     2              OBSERVATION DATA    GPS                 RINEX VERSION / TYPE
TRRINEXO V2.8.4 LH                                          PGM / RUN BY / DATE
                                                            COMMENT
BIT 2 OF LLI (+4) FLAGS DATA COLLECTED UNDER "AS" CONDITION COMMENT
Original Marker Name: 1109                                  COMMENT
Campaign Name: hpgn ca 1991                                 COMMENT
4-Character Station Name: 1109                              COMMENT
6-Character Antenna Code: TRMSST                            COMMENT
Vertical Measurement Point: BPA                             COMMENT
Vertical Offset to Rinex Ref. Point: 0.0000                 COMMENT
Radial Measurement Point: RRP                               COMMENT
Radial Offset to Rinex Ref. Point: 0.0000                   COMMENT
Antenna Height from Field Measurement: 2.2200 m             COMMENT
Original XYZ: -2363747.3768 -4793884.9701 3468936.9772      COMMENT
New XYZ position is based on association with SCEC monument COMMENT
E1D0G8H0+0011. Position of that monument is believed to be  COMMENT
valid to within 1 m horizontally; vertical accuracy         COMMENT
should be no worse than 3-times this value.                 COMMENT
                                                            COMMENT
Revised Rinex header created by UCSD GPS archive for        COMMENT
GSAC on 12-Apr-1999 (1999:102) 04:52:34 GMT                 COMMENT
For assistance contact dagnew@ucsd.edu or hjohnson@ucsd.edu COMMENT
                                                            COMMENT
HPGN CALIF STA 11-09 1990                                   MARKER NAME
UNKNOWN OBSERVER NATIONAL GEODETIC SURVEY                   OBSERVER / AGENCY
485 TRIMBLE 4000 SST 4.30 / 4.20                            REC # / TYPE / VERS
16 TR 4000SST L1/L2 GEO                                     ANT # / TYPE
 -2363770.0000 -4793879.0000  3468920.0000                  APPROX POSITION XYZ
        2.2200        0.0000        0.0000                  ANTENNA: DELTA H/E/N
     1     2     0                                          WAVELENGTH FACT L1/2
     3    C1    L1    L2                                    # / TYPES OF OBSERV
     0                                                      INTERVAL
  1991     4     5    20    27   45.000000                  TIME OF FIRST OBS
  1991     4     5    21    48   45.000000                  TIME OF LAST OBS
     0                                                      # OF SATELLITES
                                                            END OF HEADER
 91  4  5 20 27 45.0000000  0  3 18 14 19
  20500170.695          -0.56118        -0.10913
  23468134.578          -0.61615        -0.00611
  21303893.242          -0.51817        -0.41212
 91  4  5 20 28  0.0000000  0  3 18 14 19
  20496804.828      -17680.236 8    -13776.482 3
  23475384.781       38098.682 5     29687.519 1
  21298909.977      -26201.750 6    -20416.934 2
 91  4  5 20 28 15.0000000  0  3 18 14 19
  20493448.211      -35322.216 8    -27523.478 3
  23482628.906       76156.597 5     59342.781 1
  21293918.156      -52424.660 7    -40850.350 2
 91  4  5 20 28 30.0000000  0  3 18 14 19
  20490102.961      -52908.802 8    -41227.308 3
  23489866.969      114190.077 5     88979.005 1
  21288925.422      -78651.791 7    -61287.054 2
 91  4  5 20 28 45.0000000  0  3 18 14 19
  20486767.055      -70429.418 7    -54879.739 3
  23497101.711      152209.495 5    118604.275 1
  21283939.063     -104872.531 7    -81718.781 2
 91  4  5 20 29  0.0000000  0  3 18 14 19
  20483448.469      -87874.708 8    -68473.468 3
  23504335.008      190223.630 5    148225.425 1
  21278951.258     -131077.566 6   -102138.269 2
 91  4  5 20 29 15.0000000  0  3 18 14 19
  20480143.711     -105239.429 7    -82004.424 2
  23511567.891      228237.185 5    177846.128 1
  21273967.227     -157261.797 6   -122541.545 2
 91  4  5 20 29 30.0000000  0  4 18 11 14 19
  20476855.313     -122520.071 7    -95469.859 3
  24716958.813          -0.17915
  23518804.094      266253.172 5    207468.712 1
  21268992.586     -183422.218 6   -142926.279 2
 91  4  5 20 29 45.0000000  0  4 18 11 14 19
  20473583.266     -139708.986 7   -108863.817 3
  24706274.734      -56139.820 5
  23526038.469      304278.488 5    237098.583 1
  21264018.352     -209551.244 6   -163286.536 2
 91  4  5 20 30  0.0000000  0  4 18 11 14 19
  20470329.914     -156807.771 7   -122187.549 3
  24695596.961     -112256.537 5
  23533275.313      342311.208 5    266734.212 1
  21259051.641     -235650.762 6   -183623.807 2
 91  4  5 20 30 15.0000000  0  4 18 11 14 19
  20467095.406     -173810.479 8   -135436.411 3
  24684920.586     -168344.086 5
  23540514.797      380356.828 5    296379.878 1
  21254092.141     -261714.965 6   -203933.556 2
 91  4  5 20 30 30.0000000  0  4 18 11 14 19
  20463876.508     -190724.649 8   -148616.286 3
  24674251.102     -224409.786 5
  23547758.922      418406.901 5    326029.027 1
  21249135.547     -287751.679 7   -224221.885 2
 91  4  5 20 30 45.0000000  0  4 18 11 14 19
  20460676.195     -207543.887 8   -161722.191 3
  24663588.664     -280446.889 5        -0.02011
  23555001.297      456467.501 5    355686.376 1
  21244188.117     -313754.629 7   -244483.905 2
 91  4  5 20 31  0.0000000  0  4 18 11 14 19
  20457493.680     -224269.476 8   -174755.124 3
  24652932.414     -336456.473 5    -43643.615 1
  23562244.734      494537.124 5    385350.742 1
  21239247.500     -339725.195 6   -264720.686 2
 91  4  5 20 31 15.0000000  0  4 18 11 14 19
  20454329.609     -240897.715 8   -187712.200 2
  24642278.156     -392434.560 5    -87262.658 1
  23569491.164      532618.628 5    415024.379 1
  21234312.086     -365659.839 7   -284929.480 2
 91  4  5 20 31 30.0000000  0  4 18 11 14 19
  20451183.172     -257431.125 8   -200595.385 2
  24631629.570     -448383.321 5   -130858.849 1
  23576740.445      570709.311 5    444705.156 1
  21229384.742     -391561.251 6   -305112.372 2
 91  4  5 20 31 45.0000000  0  4 18 11 14 19
  20448054.578     -273871.584 8   -213406.137 2
  24620990.602     -504304.384 5   -174433.449 1
  23583987.547      608806.610 5    474391.101 1
  21224460.375     -417431.494 6   -325270.980 2
 91  4  5 20 32  0.0000000  0  4 18 11 14 19
  20444943.711     -290212.817 8   -226139.573 3
  24610353.789     -560191.405 5   -217981.574 1
  23591238.203      646915.983 5    504086.447 1
  21219544.453     -443264.854 7   -345400.852 2
 91  4  5 20 32 15.0000000  0  4 18 11 14 19
  20441854.648     -306453.356 8   -238794.544 2
  24599726.797     -616042.159 5   -261501.395 1
  23598495.211      685038.893 5    533792.344 1
  21214635.375     -469059.636 6   -365500.661 2
 91  4  5 20 32 30.0000000  0  4 18 11 14 19
  20438783.945     -322589.118 8   -251367.873 2
  24589105.594     -671852.415 5   -304989.662 1
  23605755.250      723178.762 5    563511.453 1
  21209735.633     -494811.963 6   -385567.390 2
 91  4  5 20 32 45.0000000  0  4 18 11 14 19
  20435732.398     -338622.233 8   -263861.215 2
  24578496.859     -727624.213 5   -348447.995 1
  23613017.547      761332.815 5    593241.622 1
  21204841.086     -520524.424 6   -405603.047 2
 91  4  5 20 33  0.0000000  0  4 18 11 14 19
  20432701.172     -354551.619 8   -276273.730 2
  24567886.297     -783355.914 5   -391875.059 1
  23620277.938      799501.525 5    622983.192 1
  21199956.906     -546196.026 7   -425606.870 2
 91  4  5 20 33 15.0000000  0  4 18 11 14 19
  20429689.977     -370380.177 8   -288607.675 2
  24557288.195     -839050.348 5   -435273.077 1
  23627543.938      837681.469 5    652733.524 1
  21195078.156     -571829.787 6   -445581.210 2
 91  4  5 20 33 30.0000000  0  4 18 11 14 19
  20426697.883     -386103.718 8   -300859.793 2
  24546697.086     -894702.699 5   -478638.336 1
  23634811.133      875876.808 5    682495.848 1
  21190208.852     -597421.457 7   -465522.751 2
 91  4  5 20 33 45.0000000  0  4 18 11 14 19
  20423725.813     -401718.166 8   -313026.904 2
  24536119.219     -950308.946 5   -521967.666 1
  23642083.773      914090.747 5    712272.668 1
  21185347.773     -622967.263 6   -485428.550 2
 91  4  5 20 34  0.0000000  0  4 18 11 14 19
  20420776.492     -417215.610 8   -325102.834 2
  24525545.445    -1005860.967 5   -565254.718 1
  23649361.805      952330.476 5    742069.590 1
  21180499.430     -648459.835 6   -505292.873 2
 91  4  5 20 34 15.0000000  0  4 18 11 14 19
  20417848.633     -432605.875 8   -337095.257 2
  24514984.359    -1061367.875 5   -608506.654 1
  23656645.406      990586.103 5    771878.911 1
  21175653.141     -673908.931 7   -525123.319 2
 91  4  5 20 34 30.0000000  0  4 18 11 14 19
  20414940.602     -447888.178 8   -349003.557 2
  24504428.820    -1116828.683 5   -651722.653 1
  23663926.953     1028857.856 5    801700.764 1
  21170820.047     -699313.946 7   -544919.416 2
 91  4  5 20 34 45.0000000  0  4 18 11 14 19
  20412052.492     -463067.145 8   -360831.328 2
  24493884.258    -1172247.794 5   -694906.151 1
  23671212.188     1067140.543 5    831531.154 1
  21165991.656     -724679.669 6   -564684.896 2
 91  4  5 20 35  0.0000000  0  4 18 11 14 19
  20409182.828     -478142.361 8   -372578.261 2
  24483343.930    -1227624.473 5   -738056.592 1
  23678498.438     1105434.080 5    861369.986 1
  21161172.164     -750005.794 7   -584419.519 2
 91  4  5 20 35 15.0000000  0  4 18 11 14 19
  20406334.867     -493108.411 8   -384240.123 2
  24472816.078    -1282953.064 5   -781169.594 1
  23685787.883     1143743.433 5    891221.157 1
  21156363.125     -775287.108 6   -604119.228 2
 91  4  5 20 35 30.0000000  0  4 18 11 14 19
  20403507.484     -507965.111 8   -395816.783 2
  24462295.141    -1338232.996 5   -824244.686 1
  23693080.719     1182068.456 5    921084.527 1
  21151559.469     -800523.649 6   -623784.046 2
 91  4  5 20 35 45.0000000  0  4 18 11 14 19
  20400702.445     -522708.205 8   -407304.917 2
  24451785.930    -1393459.799 5   -867278.378 1
  23700379.180     1220412.752 5    950962.923 1
  21146766.602     -825711.120 6   -643410.632 2
 91  4  5 20 36  0.0000000  0  4 18 11 14 19
  20397918.430     -537337.022 8   -418704.006 2
  24441289.914    -1448632.526 5   -910269.916 1
  23707678.688     1258776.246 5    980856.278 1
  21141982.203     -850849.145 6   -662998.691 2
 91  4  5 20 36 15.0000000  0  4 18 11 14 19
  20395157.508     -551847.296 8   -430010.727 2
  24430800.383    -1503746.628 5   -953215.788 1
  23714986.992     1297162.737 5   1010767.519 1
  21137209.477     -875933.806 6   -682545.156 2
 91  4  5 20 36 30.0000000  0  4 18 11 14 19
  20392418.258     -566241.080 8   -441226.670 2
  24420323.695    -1558803.603 5   -996117.132 1
  23722292.984     1335569.917 5   1040694.928 1
  21132445.531     -900967.124 7   -702051.627 2
 91  4  5 20 36 45.0000000  0  4 18 11 14 19
  20389701.242     -580519.692 8   -452352.870 2
  24409854.375    -1613804.527 5  -1038974.834 1
  23729606.000     1373996.074 5   1070637.099 1
  21127694.250     -925950.490 7   -721519.172 2
 91  4  5 20 37  0.0000000  0  4 18 11 14 19
  20387006.969     -594677.584 8   -463385.006 2
  24399403.625    -1668743.802 5  -1081784.483 1
  23736920.539     1412446.039 5   1100597.826 1
  21122947.289     -950878.657 6   -740943.701 2
 91  4  5 20 37 15.0000000  0  4 18 11 14 19
  20384334.414     -608722.221 8   -474328.891 2
  24388954.852    -1723628.404 5  -1124551.538 1
  23744240.930     1450911.871 5   1130570.924 1
  21118213.641     -975759.305 6   -760331.207 2
 91  4  5 20 37 30.0000000  0  4 18 11 14 19
  20381684.414     -622649.944 8   -485181.674 2
  24378527.492    -1778454.421 5  -1167272.967 1
  23751563.313     1489396.899 5   1160558.966 1
  21113489.375    -1000589.003 6   -779679.006 2
 91  4  5 20 37 45.0000000  0  4 18 11 14 19
  20379055.664     -636467.202 8   -495948.380 2
  24368101.555    -1833228.013 5  -1209953.528 1
  23758893.563     1527894.043 5   1190556.444 1
  21108772.570    -1025374.154 6   -798992.096 2
 91  4  5 20 38  0.0000000  0  4 18 11 14 19
  20376450.078     -650160.409 8   -506618.426 2
  24357691.750    -1887935.280 5  -1252582.396 1
  23766222.875     1566416.324 5   1220573.502 1
  21104066.172    -1050101.577 6   -818260.205 2
 91  4  5 20 38 15.0000000  0  4 18 11 14 19
  20373864.750     -663744.518 8   -517203.452 2
  24347289.898    -1942590.499 5  -1295170.723 1
  23773553.344     1604948.760 5   1250598.491 1
  21099369.164    -1074785.873 6   -837494.705 2
 91  4  5 20 38 30.0000000  0  4 18 11 14 19
  20371300.352     -677220.110 8   -527703.927 2
  24336899.789    -1997194.242 5  -1337718.935 1
  23780890.000     1643489.975 5   1280630.315 1
  21094681.383    -1099427.984 6   -856696.333 2
 91  4  5 20 38 45.0000000  0  4 18 11 14 19
  20368755.992     -690587.657 8   -538120.212 2
  24326517.180    -2051746.742 5  -1380227.199 1
  23788225.703     1682038.642 5   1310667.935 1
  21089998.805    -1124028.655 6   -875865.674 2
 91  4  5 20 39  0.0000000  0  4 18 11 14 19
  20366233.500     -703844.570 8   -548450.283 2
  24316146.992    -2106245.229 5  -1422693.407 1
  23795566.906     1720596.984 5   1340713.088 1
  21085326.000    -1148585.757 6   -895001.061 2
 91  4  5 20 39 15.0000000  0  4 18 11 14 19
  20363732.297     -716990.447 8   -558693.838 2
  24305787.281    -2160688.881 5  -1465116.894 1
  23802904.828     1759165.265 5   1370765.993 1
  21080662.109    -1173098.935 6   -914102.224 2
 91  4  5 20 39 30.0000000  0  4 18 11 14 19
  20361251.797     -730029.093 8   -568853.834 2
  24295435.156    -2215081.049 5  -1507500.247 1
  23810241.844     1797739.283 5   1400823.377 1
  21076003.164    -1197571.768 6   -933171.946 2
 91  4  5 20 39 45.0000000  0  4 18 11 14 19
  20358791.805     -742954.885 8   -578925.890 2
  24285096.625    -2269415.882 5  -1549838.932 1
  23817585.945     1836324.009 5   1430889.101 1
  21071355.703    -1221998.876 6   -952206.044 2
 91  4  5 20 40  0.0000000  0  4 18 11 14 19
  20356352.703     -755772.169 8   -588913.395 2
  24274768.609    -2323697.281 5  -1592135.992 1
  23824929.172     1874914.783 5   1460959.533 1
  21066714.406    -1246384.706 6   -971207.975 2
 91  4  5 20 40 15.0000000  0  4 18 11 14 19
  20353932.727     -768486.531 8   -598820.702 2
  24264443.438    -2377930.772 5  -1634395.702 1
  23832274.188     1913505.273 5   1491029.737 1
  21062081.250    -1270735.357 6   -990182.500 2
 91  4  5 20 40 30.0000000  0  4 18 11 14 19
  20351534.680     -781091.155 8   -608642.503 2
  24254137.109    -2432108.883 5  -1676612.292 1
  23839620.719     1952102.106 5   1521104.894 1
  21057456.008    -1295043.786 6  -1009124.121 2
 91  4  5 20 40 45.0000000  0  4 18 11 14 19
  20349155.789     -793587.244 8   -618379.726 2
  24243838.148    -2486232.767 5  -1718786.602 1
  23846964.781     1990703.317 5   1551183.449 1
  21052836.789    -1319311.550 6  -1028034.055 2
 91  4  5 20 41  0.0000000  0  4 18 11 14 19
  20346798.445     -805976.315 8   -628033.564 2
  24233546.805    -2540303.446 5  -1760919.462 1
  23854313.930     2029307.225 5   1581264.136 1
  21048227.094    -1343540.255 6  -1046913.555 2
 91  4  5 20 41 15.0000000  0  4 18 11 14 19
  20344461.469     -818258.374 8   -637604.013 2
  24223267.492    -2594320.766 5  -1803010.756 1
  23861661.133     2067913.213 5   1611346.404 1
  21043623.563    -1367730.117 6  -1065762.784 2
 91  4  5 20 41 30.0000000  0  4 18 11 14 19
  20342146.031     -830430.424 8   -647088.740 2
  24212999.375    -2648281.256 5  -1845057.754 1
  23869005.008     2106523.824 5   1641432.281 1
  21039028.406    -1391878.026 6  -1084579.327 2
 91  4  5 20 41 45.0000000  0  4 18 11 14 19
  20339849.656     -842495.763 8   -656490.315 2
  24202743.445    -2702188.003 5  -1887062.870 1
  23876352.828     2145135.045 5   1671518.639 1
  21034440.523    -1415987.682 6  -1103366.059 2
 91  4  5 20 42  0.0000000  0  4 18 11 14 19
  20337573.375     -854457.542 8   -665811.191 2
  24192494.883    -2756043.979 5  -1929028.422 1
  23883698.414     2183743.492 5   1701602.855 1
  21029862.070    -1440062.526 6  -1122125.670 2
 91  4  5 20 42 15.0000000  0  4 18 11 14 19
  20335316.297     -866313.925 8   -675049.942 2
  24182254.062    -2809846.908 5  -1970952.649 1
  23891047.875     2222350.550 5   1731685.963 1
  21025285.172    -1464100.756 6  -1140856.744 2
 91  4  5 20 42 30.0000000  0  4 18 11 14 19
  20333080.766     -878064.100 8   -684205.936 2
  24172027.078    -2863595.687 5  -2012834.667 1
  23898396.578     2260956.428 5   1761768.138 1
  21020715.398    -1488101.656 6  -1159558.731 2
 91  4  5 20 42 45.0000000  0  4 18 11 14 19
  20330865.688     -889707.976 8   -693279.099 2
  24161809.047    -2917289.508 5  -2054673.868 1
  23905743.875     2299561.035 5   1791849.337 1
  21016158.563    -1512065.104 6  -1178231.538 2
 91  4  5 20 43  0.0000000  0  4 18 11 14 19
  20328669.539     -901245.507 8   -702269.399 2
  24151599.156    -2970928.196 5  -2096470.116 1
  23913087.773     2338163.964 5   1821929.218 1
  21011603.984    -1535991.141 6  -1196875.191 2
 91  4  5 20 43 15.0000000  0  4 18 11 14 19
  20326494.633     -912677.475 8   -711177.444 2
  24141405.969    -3024512.358 5  -2138223.871 1
  23920430.656     2376763.963 5   1852006.833 1
  21007058.555    -1559880.818 6  -1215490.511 2
 91  4  5 20 43 30.0000000  0  4 18 11 14 19
  20324339.477     -924000.316 8   -720000.450 2
  24131219.125    -3078038.006 5  -2179932.046 1
  23927776.711     2415363.984 5   1882084.462 1
  21002520.992    -1583730.744 6  -1234074.863 2
 91  4  5 20 43 45.0000000  0  4 18 11 14 19
  20322205.195     -935214.684 8   -728738.934 2
  24121043.633    -3131505.560 5  -2221594.939 1
  23935123.945     2453962.862 5   1912161.211 1
  20997989.820    -1607541.675 6  -1252628.828 2
 91  4  5 20 44  0.0000000  0  4 18 11 14 19
  20320092.953     -946317.491 8   -737390.489 2
  24110881.523    -3184911.611 5  -2263209.928 1
  23942469.859     2492563.110 5   1942239.001 1
  20993468.016    -1631310.589 6  -1271150.052 2
 91  4  5 20 44 15.0000000  0  4 18 11 14 19
  20318000.000     -957316.017 8   -745960.784 2
  24100729.898    -3238263.081 5  -2304782.354 1
  23949811.305     2531157.100 5   1972311.915 1
  20988948.508    -1655044.964 6  -1289644.360 2
 91  4  5 20 44 30.0000000  0  4 18 11 14 19
  20315927.281     -968208.428 8   -754448.394 2
  24090587.063    -3291557.783 5  -2346310.547 1
  23957157.563     2569746.243 5   2002381.060 1
  20984438.828    -1678743.183 6  -1308110.491 2
 91  4  5 20 44 45.0000000  0  4 18 11 14 19
  20313875.430     -978993.214 8   -762852.136 2
  24080456.977    -3344794.087 5  -2387793.243 1
  23964502.820     2608331.613 5   2032447.262 1
  20979935.891    -1702403.814 6  -1326547.334 2
 91  4  5 20 45  0.0000000  0  4 18 11 14 19
  20311843.305     -989671.124 8   -771172.600 2
  24070338.297    -3397972.427 5  -2429230.764 1
  23971843.375     2646911.989 5   2062509.547 1
  20975442.789    -1726027.698 6  -1344955.541 2
 91  4  5 20 45 15.0000000  0  4 18 11 14 19
  20309830.430    -1000243.650 8   -779410.949 2
  24060228.445    -3451093.409 5  -2470623.596 1
  23979181.102     2685485.730 5   2092566.680 1
  20970953.156    -1749616.082 6  -1363336.082 2
 91  4  5 20 45 30.0000000  0  4 18 11 14 19
  20307839.945    -1010706.613 8   -787563.918 2
  24050132.328    -3504152.874 6  -2511968.494 1
  23986522.820     2724056.289 5   2122621.335 1
  20966471.078    -1773165.300 6  -1381686.105 2
 91  4  5 20 45 45.0000000  0  4 18 11 14 19
  20305870.141    -1021059.853 8   -795631.396 2
  24040046.328    -3557150.355 5  -2553265.082 1
  23993858.523     2762623.341 5   2152673.260 1
  20961996.359    -1796675.279 6  -1400005.555 2
 91  4  5 20 46  0.0000000  0  4 18 11 14 19
  20303920.750    -1031303.399 8   -803613.390 2
  24029974.141    -3610085.646 6  -2594513.211 1
  24001198.367     2801186.436 5   2182722.083 1
  20957529.055    -1820146.162 6  -1418294.533 2
 91  4  5 20 46 15.0000000  0  4 18 11 14 19
  20301991.172    -1041443.073 8   -811514.453 2
  24019911.594    -3662964.175 6  -2635717.132 1
  24008533.477     2839739.253 5   2212762.919 1
  20953071.961    -1843584.051 6  -1436557.812 2
 91  4  5 20 46 30.0000000  0  4 18 11 14 19
  20300082.070    -1051477.326 8   -819333.368 2
  24009859.898    -3715784.006 5  -2676875.293 1
  24015874.133     2878282.893 5   2242796.589 1
  20948620.625    -1866987.211 6  -1454794.025 2
 91  4  5 20 46 45.0000000  0  4 18 11 14 19
  20298193.672    -1061400.307 8   -827065.576 2
  23999819.633    -3768539.003 5  -2717982.927 1
  24023205.195     2916822.857 5   2272827.408 1
  20944172.031    -1890350.160 6  -1472998.905 2
 91  4  5 20 47  0.0000000  0  4 18 11 14 19
  20296324.336    -1071220.865 8   -834717.975 2
  23989791.414    -3821237.423 5  -2759046.479 1
  24030538.891     2955349.967 5   2302848.175 1
  20939730.789    -1913681.502 6  -1491179.153 2
 91  4  5 20 47 15.0000000  0  4 18 11 14 19
  20294476.609    -1080932.479 8   -842285.483 2
  23979775.898    -3873872.468 5  -2800060.645 1
  24037868.125     2993870.382 5   2332863.758 1
  20935299.883    -1936975.151 6  -1509330.034 2
 91  4  5 20 47 30.0000000  0  4 18 11 14 19
  20292649.359    -1090537.358 8   -849769.823 2
  23969771.555    -3926446.330 5  -2841027.124 1
  24045195.469     3032381.065 4   2362871.757 1
  20930873.547    -1960233.560 7  -1527453.453 2
 91  4  5 20 47 45.0000000  0  4 18 11 14 19
  20290842.000    -1100031.463 8   -857167.843 2
  23959780.344    -3978954.377 5  -2881942.319 1
  24052525.078     3070886.264 5   2392875.445 1
  20926455.352    -1983452.464 6  -1545546.083 2
 91  4  5 20 48  0.0000000  0  4 18 11 14 19
  20289056.578    -1109417.386 8   -864481.569 2
  23949798.484    -4031399.099 5  -2922808.164 1
  24059849.461     3109382.375 5   2422872.085 1
  20922045.078    -2006634.773 6  -1563610.203 2
 91  4  5 20 48 15.0000000  0  4 18 11 14 19
  20287289.875    -1118696.568 8   -871712.112 3
  23939830.961    -4083781.625 5  -2963625.561 1
  24067174.086     3147867.424 5   2452860.111 1
  20917639.047    -2029782.074 6  -1581647.037 2
 91  4  5 20 48 30.0000000  0  4 18 11 14 19
  20285544.211    -1127870.819 8   -878860.893 2
  23929872.766    -4136103.455 5  -3004395.656 1
  24074494.891     3186339.469 5   2482837.971 1
  20913240.625    -2052896.253 6  -1599658.067 2
 91  4  5 20 48 45.0000000  0  4 18 11 14 19
  20283818.727    -1136939.196 8   -885927.182 2
  23919928.398    -4188362.919 5  -3045117.181 1
  24081816.773     3224799.358 5   2512806.405 1
  20908849.188    -2075976.122 6  -1617642.360 2
 91  4  5 20 49  0.0000000  0  4 18 11 14 19
  20282112.539    -1145903.645 8   -892912.480 2
  23909995.578    -4240561.898 5  -3085791.543 1
  24089130.961     3263244.326 4   2542763.183 1
  20904463.180    -2099024.129 6  -1635601.820 2
 91  4  5 20 49 15.0000000  0  4 18 11 14 19
  20280427.039    -1154763.627 8   -899816.376 2
  23900072.633    -4292699.477 5  -3126418.079 1
  24096442.195     3301674.183 5   2572708.157 1
  20900083.117    -2122039.893 6  -1653536.161 2
 91  4  5 20 49 30.0000000  0  4 18 11 14 19
  20278760.539    -1163514.940 8   -906635.596 2
  23890165.977    -4344771.055 5  -3166993.184 1
  24103755.141     3340092.857 5   2602644.455 1
  20895708.305    -2145019.268 6  -1671442.148 2
 91  4  5 20 49 45.0000000  0  4 18 11 14 19
  20277116.500    -1172159.808 8   -913371.876 2
  23880267.406    -4396778.610 5  -3207518.406 1
  24111067.367     3378497.910 5   2632570.139 1
  20891344.383    -2167964.577 6  -1689321.587 2
 91  4  5 20 50  0.0000000  0  5 18 11 02 14 19
  20275492.078    -1180698.337 8   -920025.295 3
  23870384.492    -4448721.780 5  -3247993.445 1
  24352045.141          -0.30415
  24118367.656     3416888.853 5   2662484.801 1
  20886985.406    -2190875.821 6  -1707174.484 2
 91  4  5 20 50 15.0000000  0  5 18 11 02 14 19
  20273887.352    -1189133.113 8   -926597.865 2
  23860510.969    -4500602.740 5  -3288420.012 1
  24339717.609      -64794.581 5
  24125673.133     3455262.836 5   2692386.252 1
  20882629.250    -2213755.669 6  -1725002.921 2
 91  4  5 20 50 30.0000000  0  5 18 11 02 14 19
  20272424.375          -0.51018
  23850773.664          -0.78715
  24327519.641          -0.82915
  24133092.484          -0.10614
  20878405.547          -0.73716
 91  4  5 20 50 45.0000000  0  5 18 11 02 14 19
  20271070.328       -7123.508 8
  23841134.227      -50652.430 5
  24315404.172      -63639.904 5
  24140600.688       39442.761 4
  20874272.852      -21714.071 6
 91  4  5 20 51  0.0000000  0  4 18 11 02 19
  20269735.578      -14127.775 8        -0.30613
  23831509.664     -101226.002 6
  24303302.953     -127238.132 5
  20870150.453      -43381.225 6        -0.42912
 91  4  5 20 51 14.9990000  0  4 18 11 02 19
  20268425.519      -21012.750 8     -5365.234 2
  23821903.487     -151717.718 6        -0.03911
  24291209.370     -190791.318 5        -0.48911
  20866033.714      -65001.002 6    -16846.991 2
 91  4  5 20 51 29.9990000  0  4 18 11 02 19
  20267137.081      -27788.374 8    -10644.960 2
  23812306.636     -202142.932 6    -39292.254 1
  24279122.073     -254316.825 5    -49500.618 1
  20861930.511      -86585.364 6    -33665.956 2
 91  4  5 20 51 44.9990000  0  4 18 11 02 19
  20265872.261      -34438.113 8    -15826.591 2
  23802726.425     -252481.819 6    -78517.223 1
  24267040.245     -317793.939 5    -98963.054 1
  20857833.058     -108116.770 6    -50443.654 2
 91  4  5 20 51 59.9990000  0  4 18 11 02 19
  20264625.440      -40988.964 8    -20931.168 2
  23793159.823     -302761.048 6   -117695.681 1
  24254964.308     -381249.649 5   -148408.836 1
  20853738.011     -129622.603 6    -67201.430 2
 91  4  5 20 52 14.9990000  0  4 18 11 02 19
  20263399.503      -47427.167 8    -25947.964 3
  23783604.823     -352966.717 6   -156816.830 1
  24242896.042     -444670.434 5   -197827.432 1
  20849653.511     -151089.091 6    -83928.540 2
 91  4  5 20 52 29.9990000  0  4 18 11 02 19
  20262196.651      -53750.858 8    -30875.530 2
  23774066.448     -403096.428 6   -195878.806 1
  24230835.878     -508053.864 5   -247216.815 1
  20845576.276     -172514.167 6   -100623.385 2
 91  4  5 20 52 44.9990000  0  4 18 11 02 19
  20261019.714      -59935.534 8    -35694.778 2
  23764546.511     -453125.456 6   -234862.313 1
  24218783.065     -571375.422 5   -296558.084 1
  20841512.269     -193873.920 6   -117267.324 2
 91  4  5 20 52 59.9990000  0  4 18 11 02 19
  20259866.003      -66000.977 8    -40421.111 2
  23755039.628     -503073.204 6   -273782.489 1
  24206742.995     -634654.766 5   -345866.427 1
  20837458.448     -215188.142 6   -133875.790 2
 91  4  5 20 53 14.9990000  0  4 18 11 02 19
  20258732.472      -71959.125 8    -45063.841 2
  23745550.745     -552951.289 6   -312648.370 1
  24194707.581     -697903.874 5   -395151.173 1
  20833406.433     -236468.582 6   -150457.937 2
 91  4  5 20 53 29.9990000  0  4 18 11 02 19
  20257623.675      -77779.208 8    -49598.993 2
  23736077.730     -602728.191 6   -351435.412 1
  24182683.980     -761091.257 5   -444387.901 1
  20829368.823     -257684.276 6   -166989.632 2
 91  4  5 20 53 44.9990000  0  4 18 11 02 19
  20256539.729      -83478.092 8    -54039.700 2
  23726622.081     -652420.894 6   -390156.836 1
  24170669.558     -824234.087 5   -493589.822 1
  20825340.401     -278852.564 6   -183484.384 2
 91  4  5 20 53 59.9990000  0  4 18 11 02 19
  20255475.542      -89073.385 8    -58399.688 2
  23717175.745     -702046.639 6   -428826.095 1
  24158657.253     -887350.064 5   -542770.849 1
  20821319.823     -299991.130 6   -199955.981 2
 91  4  5 20 54 14.9990000  0  4 18 11 02 19
  20254435.355      -94533.182 8    -62654.098 2
  23707754.636     -751573.025 6   -467417.928 1
  24146657.964     -950406.858 5   -591905.803 1
  20817309.300     -321068.201 6   -216379.657 2
 91  4  5 20 54 29.9990000  0  4 18 11 02 19
  20253428.284      -99829.879 8    -66781.412 2
  23698350.940     -800971.935 6   -505910.423 1
  24134674.690    -1013376.587 5   -640972.854 1
  20813318.511     -342055.975 6   -232733.755 2
 91  4  5 20 54 44.9990000  0  4 18 11 02 19
  20252440.847     -105021.875 8    -70827.139 2
  23688964.651     -850301.521 6   -544348.889 1
  24122695.206    -1076317.556 5   -690017.479 1
  20809324.331     -363013.034 6   -249063.916 2
 91  4  5 20 54 59.9990000  0  4 18 11 02 19
  20251478.175     -110075.592 8    -74765.122 2
  23679598.144     -899527.994 5   -582707.001 1
  24110728.987    -1139196.281 5   -739013.661 1
  20805348.737     -183760.942 6   -265344.049 2
 91  4  5 20 58 14.9990000  0  4 18 11 02 19
  20240932.737     -165492.563 8   -117947.431 2
  23559197.050    -1532227.471 6  -1075717.712 1
  23955829.870    -1953191.302 5  -1373291.814 1
  20754331.917     -652012.077 6   -474257.874 2
 91  4  5 20 58 29.9990000  0  4 18 11 02 19
  20240277.784     -168934.065 8   -120629.142 2
  23550050.479    -1580296.238 6  -1113173.772 1
  23943971.073    -2015506.977 5  -1421849.207 1
  20750463.495     -672337.704 6   -490096.017 2
 91  4  5 20 58 44.9990000  0  4 18 11 02 19
  20239646.276     -172256.953 8   -123218.421 2
  23540918.347    -1628276.375 5  -1150560.787 1
  23932121.823    -2077777.943 5  -1470371.758 1
  20746604.456     -692619.943 6   -505900.349 2
 91  4  5 20 58 59.9990000  0  4 18 11 02 19
  20239036.253     -175461.130 8   -125715.205 2
  23531806.151    -1676167.442 6  -1187878.393 1
  23920278.800    -2140004.078 5  -1518859.418 1
  20742755.761     -712858.747 6   -521670.838 2
 91  4  5 20 59 14.9990000  0  4 18 11 02 19
  20238446.925     -178561.105 8   -128130.785 2
  23522705.378    -1723983.299 6  -1225137.384 1
  23908443.136    -2202199.517 5  -1567323.125 1
  20738908.409     -733068.260 6   -537418.504 2
 91  4  5 20 59 29.9990000  0  4 18 11 02 19
  20237877.144     -181553.421 8   -130462.482 2
  23513621.409    -1771719.946 6  -1262334.675 1
  23896613.855    -2264360.581 5  -1615760.073 1
  20735067.456     -753245.159 6   -553140.758 2
 91  4  5 20 59 44.9990000  0  4 18 11 02 19
  20237330.933     -184424.427 8   -132699.652 2
  23504557.651    -1819363.657 6  -1299459.537 1
  23884793.425    -2326473.628 5  -1664159.604 1
  20731235.292     -773376.231 6   -568827.296 2
 91  4  5 20 59 59.9990000  0  4 18 11 02 19
  20236803.144     -187197.039 8   -134860.148 2
  23495503.644    -1866937.056 6  -1336529.601 1
  23872979.112    -2388561.588 5  -1712539.581 1
  20727410.269     -793484.348 6   -584495.954 2
 91  4  5 21  0 14.9990000  0  4 18 11 02 19
  20236298.526     -189845.842 8   -136924.176 2
  23486469.151    -1914414.335 6  -1373524.793 1
  23861176.089    -2450598.782 5  -1760880.016 1
  20723593.628     -813544.129 6   -600126.939 2
 91  4  5 21  0 29.9990000  0  4 18 11 02 19
  20235814.808     -192393.091 8   -138909.070 2
  23477448.511    -1961817.282 6  -1410462.060 1
  23849374.604    -2512607.154 5  -1809197.988 1
  20719780.034     -833577.650 6   -615737.467 2
 91  4  5 21  0 44.9990000  0  4 18 11 02 19
  20235348.839     -194839.510 8   -140815.393 3
  23468442.362    -2009146.358 6  -1447341.759 1
  23837580.323    -2574587.391 5  -1857494.041 1
  20715974.081     -853585.988 6   -631328.367 2
 91  4  5 21  0 59.9990000  0  4 18 11 02 19
  20234910.159     -197144.248 8   -142611.315 2
  23459456.104    -2056360.301 6  -1484131.746 1
  23825798.581    -2636498.481 5  -1905736.226 1
  20712178.011     -873528.080 6   -646867.648 2
 91  4  5 21  1 14.9990000  0  4 18 11 02 19
  20234492.073     -199342.719 8   -144324.428 2
  23450488.175    -2103494.177 6  -1520859.336 1
  23814023.495    -2698375.715 5  -1953952.018 1
  20708389.214     -893439.469 6   -662383.007 2
 91  4  5 21  1 29.9990000  0  4 18 11 02 19
  20234090.956     -201453.221 8   -145968.996 3
  23441532.104    -2150565.914 6  -1557538.503 1
  23802251.354    -2760237.208 5  -2002155.554 1
  20704601.464     -913338.601 6   -677888.811 2
 91  4  5 21  1 44.9990000  0  4 18 11 02 19
  20233729.690     -203353.356 8   -147449.645 3
  23432605.886    -2197452.692 6  -1594073.557 1
  23790508.659    -2821960.354 5  -2050251.809 1
  20700842.214           0.000 6         0.000 1
 91  4  5 21  4 59.9990000  0  4 18 11 02 19
  20230921.019     -218113.636 7   -158951.451 2
  23318098.995    -2799194.700 6  -2062961.936 1
  23638468.714    -3620913.892 5  -2672809.822 1
  20652528.808    -1186994.462 6   -891126.968 2
 91  4  5 21  5 14.9990000  0  4 18 11 02 19
  20230850.011     -218493.707 7   -159247.635 3
  23309405.401    -2844880.349 6  -2098561.009 1
  23626822.433    -3682110.338 5  -2720495.162 1
  20648854.573    -1206301.023 6   -906171.032 2
 91  4  5 21  5 29.9990000  0  4 18 11 02 19
  20230796.347     -218762.526 7   -159457.131 3
  23300729.089    -2890474.613 6  -2134088.885 1
  23615183.065    -3743265.169 5  -2768148.083 1
  20645189.104    -1225572.391 6   -921187.667 2
 91  4  5 21  5 44.9990000  0  4 18 11 02 19
  20230767.089     -218912.866 7
  23292071.323    -2935970.039 6  -2169539.742 1
  23603553.550    -3804371.249 5  -2815762.996 1
  20641527.714    -1244801.302 7   -936171.223 2
 91  4  5 21  5 59.9990000  0  4 18 11 02 19
  20230759.245     -218953.993 7
  23283432.261    -2981375.486 6  -2204920.480 1
  23591933.589    -3865437.391 5  -2863346.804 1
  20637874.503    -1263996.938 6   -951128.849 2
 91  4  5 21  6 14.9990000  0  4 18 11 02 19
  20230773.839     -218886.737 7
  23274806.081    -3026691.400 6  -2240231.458 1
  23580321.339    -3926464.560 5  -2910900.233 1
  20634228.479    -1283160.106 6   -966061.172 2
 91  4  5 21  6 29.9990000  0  4 18 11 02 19
  20230807.784     -218712.439 7
  23266200.862    -3071918.809 6  -2275473.481 1
  23568713.245    -3987453.878 5  -2958424.185 1
  20630587.347    -1302292.444 6   -980969.479 2
 91  4  5 21  6 44.9990000  0  4 18 11 02 19
  20230860.870     -218417.792 7
  23257614.644    -3117043.980 6  -2310635.821 1
  23557119.222    -4048391.705 5  -3005907.994 1
  20626955.784    -1321380.519 6   -995843.287 2
 91  4  5 21  6 59.9990000  0  4 18 11 02 19
  20230938.870     -218010.365 7   -158871.184 3
  23249044.964    -3162074.011 6  -2345724.043 1
  23545532.433    -4109285.237 5  -3053357.296 1
  20623333.261    -1340431.673 6  -1010688.329 3
 91  4  5 21  7 14.9990000  0  4 18 11 02 19
  20231038.401     -217492.353 7   -158467.567 3
  23240494.253    -3207010.985 6  -2380739.771 1
  23533951.198    -4170136.943 5  -3100774.015 1
  20619710.104    -1359448.456 6  -1025506.589 2
 91  4  5 21  7 29.9990000  0  4 18 11 02 19
  20231157.214     -216860.596 7   -157975.314 3
  23231959.847    -3251851.187 6  -2415680.054 1
  23522380.073    -4230943.196 5  -3148155.295 1
  20616100.550    -1378427.499 7  -1040295.442 3
 91  4  5 21  7 44.9990000  0  4 18 11 02 19
  20231299.870     -216110.855 7   -157391.132 3
  23223448.019    -3296590.322 6  -2450541.594 1
  23510818.972    -4291699.993 5  -3195498.057 1
  20612496.753    -1397364.869 7  -1055051.816 2
 91  4  5 21  7 59.9990000  0  4 18 11 02 19
  20231466.511     -215245.104 7   -156716.553 3
  23214953.956    -3341229.731 6  -2485325.411 1
  23499268.214    -4352408.880 5  -3242803.484 1
  20608898.011    -1416262.327 7  -1069777.097 2
 91  4  5 21  8 14.9990000  0  4 18 11 02 19
  20231653.104     -214266.377 7   -155953.935 3
  23206475.050    -3385772.091 6  -2520033.623 1
  23487726.831    -4413072.657 5  -3290073.760 1
  20605309.386    -1435122.994 7  -1084473.700 2
 91  4  5 21  8 29.9990000  0  4 18 11 02 19
  20231858.565     -213178.815 7   -155106.515 3
  23198017.167    -3430221.183 6  -2554669.157 1
  23476188.089    -4473695.190 5  -3337311.891 1
  20601729.479    -1453950.856 6  -1099144.747 3
 91  4  5 21  8 44.9990000  0  4 18 11 02 19
  20232094.292     -211948.184 7   -154147.614 3
  23189584.276    -3474542.463 6  -2589205.100 1
  23464664.831    -4534242.137 5  -3384491.136 1
  20598156.175    -1472711.698 6  -1113763.569 2
 91  4  5 21  8 59.9990000  0  4 18 11 02 19
  20232370.862     -210492.839 7   -153013.605 3
  23181189.831    -3518653.843 6  -2623577.488 1
  23453174.425    -4594631.856 5  -3431547.850 1
  20594617.284    -1491323.963 6  -1128266.621 2
 91  4  5 21  9 14.9990000  0  4 18 11 02 19
  20232669.487     -208922.173 7   -151789.740 3
  23172815.901    -3562664.226 6  -2657871.176 1
  23441689.972    -4654973.427 5  -3478567.073 1
  20591081.784    -1509897.014 7  -1142739.113 2
 91  4  5 21  9 29.9990000  0  4 18 11 02 19
  20232992.034     -207225.986 7   -150468.072 3
  23164460.394    -3606563.430 6  -2692078.254 1
  23430218.761    -4715256.799 5  -3525540.944 1
  20587555.628    -1528420.846 7  -1157173.252 2
 91  4  5 21  9 44.9990000  0  4 18 11 02 19
  20233335.792     -205417.958 7   -149059.245 3
  23156126.167    -3650364.471 6  -2726208.807 1
  23418756.128    -4775495.169 5  -3572479.726 1
  20584040.159    -1546908.934 7  -1171579.539 2
 91  4  5 21  9 59.9990000  0  4 18 11 02 19
  20233703.190     -203493.212 7   -147559.476 3
  23147809.347    -3694061.995 6  -2760258.715 1
  23407304.370    -4835683.283 5  -3619379.371 1
  20580530.433    -1565356.402 6  -1185954.175 2
 91  4  5 21 10 14.9990000  0  4 18 11 02 19
  20234090.620     -201459.179 7   -145974.545 3
  23139511.980    -3737663.501 6  -2794233.801 1
  23395858.394    -4895829.052 5  -3666245.991 1
  20577023.729    -1583770.945 7  -1200303.160 2
 91  4  5 21 10 29.9990000  0  4 18 11 02 19
  20234499.159     -199310.631 7   -144300.385 3
  23131236.370    -3781163.054 6  -2828129.462 1
  23384419.753    -4955926.643 5  -3713075.099 1
  20573526.745    -1602146.813 7  -1214622.000 2
 91  4  5 21 10 44.9990000  0  4 18 11 02 19
  20234929.565     -197050.438 7   -142539.224 3
  23122976.659    -3824562.930 6  -2861947.425 1
  23372989.401    -5015978.546 5  -3759868.614 1
  20570037.683    -1620486.869 6  -1228912.942 2
 91  4  5 21 10 59.9990000  0  4 18 11 02 19
  20235379.003     -194686.927 7   -140697.557 3
  23114734.831    -3867871.176 6  -2895694.006 1
  23361574.948    -5075993.085 5  -3806632.993 1
  20566550.519    -1638799.600 6  -1243182.588 2
 91  4  5 21 11 14.9990000  0  4 18 11 02 19
  20235850.831     -192206.195 7   -138764.550 3
  23106512.487    -3911073.671 6  -2929358.184 1
  23350161.558    -5135956.167 5  -3853357.299 1
  20563076.831    -1657071.030 6  -1257420.052 2
 91  4  5 21 11 29.9990000  0  4 18 11 02 19
  20236346.456     -189604.358 7   -136737.174 3
  23098314.573    -3954166.374 6  -2962936.809 1
  23338763.331    -5195864.060 5  -3900038.590 1
  20559609.284    -1675297.509 6  -1271622.488 2
 91  4  5 21 11 44.9990000  0  4 18 11 02 19
  20236862.995     -186885.097 7   -134618.302 3
  23090132.159    -3997152.332 6  -2996432.262 1
  23327372.308    -5255719.842 5  -3946679.279 1
  20556146.948    -1693482.465 6  -1285792.572 2
 91  4  5 21 11 59.9990000  0  4 18 11 02 19
  20237403.144     -184042.042 7   -132402.966 3
  23081975.972    -4040025.137 6  -3029839.534 1
  23315990.237    -5315517.364 5  -3993274.562 1
  20552694.706    -1711619.841 6  -1299925.581 2
 91  4  5 21 12 14.9990000  0  4 18 11 02 19
  20237968.331     -181080.249 7   -130095.106 3
  23073836.292    -4082789.509 6  -3063162.334 1
  23304622.565    -5375261.639 5  -4039828.365 1
  20549250.815    -1729714.662 6  -1314025.427 2
 91  4  5 21 12 29.9990000  0  4 18 11 02 19
  20238551.331     -178016.303 7   -127707.646 3
  23065715.792    -4125461.288 6  -3096412.976 1
  23293260.581    -5434968.498 5  -4086353.012 1
  20545812.198    -1747783.207 6  -1328104.798 2
 91  4  5 21 12 44.9990000  0  4 18 11 02 19
  20239154.612     -174844.408 7   -125236.071 3
  23057616.253    -4168034.294 6  -3129586.645 1
  23281908.487    -5494632.176 5  -4132844.014 1
  20542380.284    -1765819.631 6  -1342159.143 2
 91  4  5 21 12 59.9990000  0  4 18 11 02 19
  20239779.315     -171562.633 8   -122678.874 3
  23049533.354    -4210506.440 6  -3162681.729 1
  23270560.464    -5554250.681 5  -4179299.819 1
  20538954.190    -1783822.222 6  -1356187.122 2
 91  4  5 21 13 14.9990000  0  4 18 11 02 19
  20240425.261     -168172.813 8   -120037.487 3
  23041469.089    -4252878.807 6  -3195699.064 1
  23259223.597    -5613825.367 5  -4225721.479 1
  20535535.550    -1801792.290 6  -1370189.762 2
 91  4  5 21 13 29.9990000  0  4 18 11 02 19
  20241091.581     -164667.458 8   -117306.076 3
  23033427.253    -4295143.861 6  -3228632.770 1
  23247894.604    -5673348.725 5  -4272103.150 1
  20532122.987    -1819722.600 6  -1384161.419 2
 91  4  5 21 13 44.9990000  0  4 18 11 02 19
  20241786.636     -161018.255 8   -114462.579 3
  23025410.065    -4337272.734 6  -3261460.363 1
  23236585.433    -5732792.212 5  -4318422.563 1
  20528723.753    -1837584.804 6  -1398080.013 2
 91  4  5 21 13 59.9990000  0  4 18 11 02 19
  20242498.386     -157279.954 8   -111549.654 3
  23017409.831    -4379319.923 6  -3294224.326 1
  23225276.854    -5792210.540 5  -4364722.385 1
  20525327.183    -1855433.690 6  -1411988.225 2
 91  4  5 21 14 14.9990000  0  4 18 11 02 19
  20243231.620     -153425.418 8   -108546.161 3
  23009427.909    -4421257.995 6  -3326903.233 1
  23213983.261    -5851576.288 5  -4410981.242 1
  20521938.073    -1873242.032 6  -1425864.848 2
 91  4  5 21 14 29.9990000  0  4 18 11 02 19
  20243987.425     -149449.913 8   -105448.402 3
  23001469.706    -4463081.574 6  -3359492.950 1
  23202694.464    -5910884.398 5  -4457195.175 1
  20518558.956    -1891005.047 6  -1439706.155 2
 91  4  5 21 14 44.9990000  0  4 18 11 02 19
  20244768.058     -145348.855 8   -102252.806 3
  22993532.261    -4504786.050 6  -3391989.848 1
  23191419.800    -5970130.538 5  -4503360.831 1
  20515188.370    -1908718.259 6  -1453508.647 2
 91  4  5 21 14 59.9990000  0  4 18 11 02 19
  20245569.175     -141142.424 7    -98975.095 3
  22985615.769    -4546390.983 6  -3424409.166 1
  23180156.214    -6029334.355 5  -4549493.496 1
  20511824.175    -1926401.552 6  -1467287.826 2
 91  4  5 21 15 14.9990000  0  4 18 11 02 19
  20246391.026     -136819.497 7    -95606.616 3
  22977718.690    -4587884.856 6  -3456741.953 1
  23168899.487    -6088484.489 5  -4595584.334 1
  20508464.909    -1944043.773 6  -1481035.004 2
 91  4  5 21 15 29.9990000  0  4 18 11 02 19
  20247235.355     -132385.516 8    -92151.599 3
  22969844.417    -4629273.038 6  -3488992.388 1
  23157653.558    -6147586.535 5  -4641637.691 1
  20505114.433    -1961650.554 6  -1494754.563 2
 91  4  5 21 15 44.9990000  0  4 18 11 02 19
  20248112.229     -127771.262 7    -88556.112 3
  22962000.964    -4670485.873 6  -3521106.185 1
  23146428.839    -6206571.098 5  -4687599.513 1
  20501785.870    -1979152.718 6  -1508392.610 2
 91  4  5 21 15 59.9990000  0  4 18 11 02 19
  20249012.112     -123048.516 8    -84876.089 3
  22954177.956    -4711594.555 6  -3553138.818 1
  23135211.237    -6265509.513 5  -4733525.374 1
  20498460.284    -1996621.733 6  -1522004.819 2
 91  4  5 21 16 14.9990000  0  4 18 11 02 19
  20249933.808     -118205.070 7    -81102.013 3
  22946378.151    -4752586.740 6  -3585080.679 1
  23124007.136    -6324389.530 5  -4779405.713 1
  20495145.847    -2014045.577 6  -1535581.833 2
 91  4  5 21 16 29.9990000  0  4 18 11 02 19
  20250869.964     -113284.981 7    -77268.213 3
  22938591.308    -4793506.138 6  -3616965.820 1
  23112804.855    -6383255.053 5  -4825274.770 1
  20491829.433    -2031468.320 6  -1549157.986 2
 91  4  5 21 16 44.9980000  0  4 18 11 02 19
  20251830.123     -108238.488 8    -73335.925 3
  22930827.943    -4834299.345 6  -3648752.634 1
  23101616.232    -6442051.710 5  -4871090.160 1
  20488524.615    -2048838.439 6  -1562693.136 2
 91  4  5 21 16 59.9980000  0  4 18 11 02 19
  20252814.217     -103070.259 8    -69308.769 3
  22923089.303    -4874976.510 6  -3680449.031 1
  23090438.639    -6500792.224 5  -4916861.816 1
  20485226.334    -2066163.473 6  -1576193.161 2
 91  4  5 21 17 14.9980000  0  4 18 11 02 19
  20253813.834      -97813.477 7    -65212.614 3
  22915364.404    -4915567.687 6  -3712078.421 1
  23079263.904    -6559505.647 5  -4962612.334 1
  20481932.725    -2083475.281 6  -1589682.869 2
 91  4  5 21 17 29.9980000  0  4 18 11 02 19
  20254834.318      -92450.183 8    -61033.458 3
  22907657.584    -4956054.398 6  -3743626.406 1
  23068101.318    -6618173.552 5  -5008327.404 1
  20478644.178    -2100755.638 6  -1603148.082 2
 91  4  5 21 17 44.9980000  0  4 18 11 02 19
  20255875.553      -86981.365 8    -56772.081 3
  22899974.068    -4996437.467 6  -3775093.623 1
  23056943.912    -6676797.089 5  -5054007.875 1
  20475362.803    -2118005.493 6  -1616589.522 2
 91  4  5 21 17 59.9980000  0  4 18 11 02 19
  20256937.553      -81396.613 7    -52420.358 3
  22892311.076    -5036706.133 6  -3806471.695 1
  23045798.576    -6735365.647 5  -5099645.528 1
  20472090.186    -2135214.514 6  -1629999.148 2
 91  4  5 21 18 14.9980000  0  4 18 11 02 19
  20258021.646      -75699.966 8    -47981.444 3
  22884669.334    -5076864.092 6  -3837763.505 1
  23034660.623    -6793883.244 5  -5145243.458 1
  20468818.498    -2152386.690 6  -1643380.058 2
 91  4  5 21 18 29.9980000  0  4 18 11 02 19
  20259128.396      -69887.990 7    -43452.668 3
  22877048.678    -5116907.424 6  -3868965.986 1
  23023540.201    -6852345.987 5  -5190798.635 1
  20465559.326    -2169518.449 6  -1656729.478 2
 91  4  5 21 18 44.9980000  0  4 18 11 02 19
  20260254.764      -63967.384 8    -38839.247 3
  22869448.365    -5156842.234 6  -3900083.918 1
  23012423.537    -6910760.347 5  -5236316.116 1
  20462305.584    -2186616.198 6  -1670052.392 2
 91  4  5 21 18 59.9980000  0  4 18 11 02 19
  20261402.068      -57936.930 8    -34140.228 3
  22861871.365    -5196667.255 6  -3931116.307 1
  23001313.811    -6969125.031 5  -5281794.895 1
  20459058.772    -2203679.044 6  -1683348.115 2
 91  4  5 21 19 14.9980000  0  4 18 11 02 19
  20262573.021      -51783.221 7    -29345.166 3
  22854316.225    -5236368.473 6  -3962052.215 1
  22990227.100    -7027426.262 6  -5327224.223 1
  20455819.967    -2220693.311 6  -1696605.982 2
 91  4  5 21 19 29.9980000  0  4 18 11 02 19
  20263766.693      -45512.841 7    -24459.195 3
  22846784.436    -5275952.170 6  -3992896.567 1
  22979141.701    -7085670.600 6  -5372609.204 1
  20452594.404    -2237665.514 6  -1709831.069 2
 91  4  5 21 19 44.9980000  0  4 18 11 02 19
  20264981.670      -39128.257 7    -19484.231 3
  22839273.006    -5315420.432 6  -4023650.964 1
  22968065.178    -7143860.285 5  -5417951.630 1
  20449368.756    -2254598.019 6  -1723025.227 2
 91  4  5 21 19 59.9980000  0  4 18 11 02 19
  20266217.326      -32633.636 7    -14423.519 3
  22831783.654    -5354777.291 6  -4054318.544 1
  22957001.193    -7201999.295 6  -5463254.543 1
  20446154.248    -2271495.222 6  -1736191.870 2
 91  4  5 21 20 14.9980000  0  4 18 11 02 19
  20267472.490      -26032.082 7     -9279.485 3
  22824315.303    -5394025.097 6  -4084901.161 1
  22945947.045    -7260090.363 6  -5508520.117 1
  20442945.084    -2288359.798 6  -1749333.091 2
 91  4  5 21 20 29.9980000  0  4 18 11 02 19
  20268750.701      -19319.980 7     -4049.313 3
  22816866.834    -5433160.110 6  -4115395.883 1
  22934903.037    -7318129.892 6  -5553745.529 1
  20439740.490    -2305188.306 6  -1762446.210 2
 91  4  5 21 20 44.9980000  0  4 18 11 02 19
  20270051.396      -12490.569 8      1272.270 3
  22809441.615    -5472175.352 6  -4145797.275 1
  22923868.154    -7376111.076 6  -5598925.470 1
  20436547.998    -2321974.053 6  -1775526.007 2
 91  4  5 21 20 59.9980000  0  4 18 11 02 19
  20271370.170       -5548.652 7      6681.524 3
  22802041.678    -5511074.900 6  -4176108.532 1
  22912846.225    -7434038.032 6  -5644063.170 1
  20433362.115    -2338721.417 6  -1788575.894 2
 91  4  5 21 21 14.9980000  0  4 18 11 02 19
  20272712.100        1493.722 7     12169.056 3
  22794657.740    -5549870.511 6  -4206338.789 1
  22901828.936    -7491922.997 6  -5689168.138 1
  20430178.100    -2355442.682 6  -1801605.441 2
 91  4  5 21 21 29.9980000  0  4 18 11 02 19
  20274075.240        8655.530 8     17749.654 3
  22787298.295    -5588542.889 6  -4236473.016 1
  22890827.670    -7549746.826 6  -5734225.466 1
  20427006.889    -2372118.678 6  -1814599.715 2
 91  4  5 21 21 44.9980000  0  4 18 11 02 19
  20275457.693       15923.996 7     23413.356 3
  22779960.217    -5627104.277 6  -4266520.765 1
  22879832.521    -7607521.793 6  -5779244.737 1
  20423837.725    -2388761.845 6  -1827568.407 2
 91  4  5 21 21 59.9980000  0  4 18 11 02 19
  20276861.873       23300.960 8     29161.604 3
  22772643.764    -5665552.497 6  -4296480.327 1
  22868849.076    -7665245.834 6  -5824224.320 1
  20420678.240    -2405370.363 6  -1840510.104 2
 91  4  5 21 22 14.9980000  0  4 18 11 02 19
  20278289.123       30798.650 8     35003.925 3
  22765351.186    -5703875.209 6  -4326342.120 1
  22857876.936    -7722906.743 6  -5869154.705 1
  20417526.826    -2421932.130 6  -1853415.361 2
 91  4  5 21 22 29.9980000  0  4 18 11 02 19
  20279737.451       38412.587 8     40936.825 3
  22758082.350    -5742076.290 6  -4356109.111 1
  22846915.514    -7780508.648 6  -5914039.121 1
  20414384.467    -2438451.409 6  -1866287.518 2
 91  4  5 21 22 44.9980000  0  4 18 11 02 19
  20281207.045       46134.008 7     46953.478 3
  22750834.467    -5780163.873 6  -4385787.666 1
  22835963.162    -7838059.832 6  -5958884.010 1
  20411245.826    -2454936.563 6  -1879133.082 2
 91  4  5 21 22 59.9980000  0  4 18 11 02 19
  20282697.342       53967.542 8     53057.493 3
  22743609.217    -5818133.516 6  -4415374.329 1
  22825022.021    -7895555.999 6  -6003686.040 1
  20408115.428    -2471383.466 6  -1891948.842 2
 91  4  5 21 23 14.9980000  0  4 18 11 02 19
  20284210.568       61915.750 8     59250.864 3
  22736405.467    -5855982.274 6  -4444866.796 1
  22814090.373    -7952994.371 6  -6048443.043 1
  20404994.514    -2487789.295 6  -1904732.589 2
 91  4  5 21 23 29.9980000  0  4 18 11 02 19
  20285743.600       69975.877 7     65531.444 3
  22729226.514    -5893712.338 6  -4474266.775 1
  22803169.818    -8010377.165 6  -6093156.731 1
  20401878.381    -2504156.658 6  -1917486.367 2
 91  4  5 21 23 44.9980000  0  4 18 11 02 19
  20287296.928       78138.960 7     71892.248 3
  22722067.865    -5931332.276 6  -4503580.940 1
  22792258.545    -8067713.169 6  -6137833.970 1
  20398770.990    -2520494.491 6  -1930217.130 2
 91  4  5 21 23 59.9980000  0  4 18 11 02 19
  20288872.373       86413.683 7     78340.046 3
  22714931.693    -5968832.885 6  -4532802.099 1
  22781359.779    -8124993.660 6  -6182467.950 1
  20395673.162    -2536793.812 6  -1942917.885 2
 91  4  5 21 24 14.9980000  0  4 18 11 02 19
  20290468.795       94806.729 7     84880.040 3
  22707818.045    -6006207.275 6  -4561924.937 1
  22770472.787    -8182211.825 6  -6227053.367 1
  20392576.467    -2553047.992 6  -1955583.466 2
 91  4  5 21 24 29.9980000  0  4 18 11 02 19
  20292087.607      103311.754 7     91507.292 3
  22700729.615    -6043461.449 6  -4590954.083 1
  22759594.170    -8239373.678 6  -6271594.905 1
  20389489.537    -2569263.408 6  -1968218.840 2
 91  4  5 21 24 44.9980000  0  4 18 11 02 19
  20293735.631      111971.704 7     98255.270 3
  22693671.592    -6080551.950 6  -4619855.692 1
  22748735.686    -8296436.004 6  -6316058.901 1
  20386420.154    -2585396.879 6  -1980790.359 2
 91  4  5 21 24 59.9980000  0  4 18 11 02 19
  20295425.529      120846.713 7    105170.821 3
  22686658.412    -6117418.230 6  -4648582.597 1
  22737907.623    -8353338.355 6  -6360398.233 1
  20383377.459    -2601388.101 6  -1993251.040 2
 91  4  5 21 25 14.9980000  0  4 18 11 02 19
  20297133.943      129829.927 7    112170.691 3
  22679664.904    -6154167.308 6  -4677218.169 1
  22727089.662    -8410188.062 6  -6404696.548 1
  20380341.678    -2617344.343 6  -2005684.457 2
 91  4  5 21 25 29.9980000  0  4 18 11 02 19
  20298864.014      138920.978 7    119254.587 3
  22672692.490    -6190798.734 6  -4705762.052 1
  22716281.100    -8466984.847 6  -6448953.615 1
  20377311.482    -2633265.404 6  -2018090.467 2
 91  4  5 21 25 44.9980000  0  4 18 11 02 19
  20300614.998      148123.562 7    126425.393 3
  22665744.709    -6227308.257 6  -4734210.949 1
  22705483.709    -8523724.553 6  -6493166.225 1
  20374288.920    -2649147.463 6  -2030466.084 2
 91  4  5 21 25 59.9980000  0  4 18 11 02 19
  20302385.686      157424.798 7    133673.069 3
  22658818.678    -6263708.486 6  -4762574.677 1
  22694692.420    -8580419.888 6  -6537344.242 1
  20371270.756    -2665003.233 6  -2042821.215 2
 91  4  5 21 26 14.9980000  0  4 18 11 02 19
  20304174.193      166827.676 7    140999.941 3
  22651912.084    -6299996.195 6  -4790850.738 1
  22683912.037    -8637067.888 6  -6581485.394 1
  20368259.514    -2680829.643 6  -2055153.472 2
 91  4  5 21 26 29.9980000  0  4 18 11 02 19
  20305985.795      176343.967 7    148415.189 3
  22645030.623    -6336159.549 6  -4819029.892 1
  22673145.318    -8693656.820 6  -6625580.504 1
  20365255.600    -2696615.133 6  -2067453.840 2
 91  4  5 21 26 44.9980000  0  4 18 11 02 19
  20307816.912      185971.532 7    155917.148 3
  22638174.295    -6372199.978 6  -4847113.268 1
  22662385.607    -8750188.240 6  -6669630.806 1
  20362259.912    -2712361.495 6  -2079723.721 2
 91  4  5 21 26 59.9980000  0  4 18 11 02 19
  20309671.061      195711.409 7    163506.620 3
  22631338.920    -6408116.144 6  -4875099.817 1
  22651639.279    -8806660.778 6  -6713635.233 1
  20359270.545    -2728067.590 6  -2091962.225 2
 91  4  5 21 27 14.9980000  0  4 18 11 02 19
  20311546.740      205568.760 7    171187.631 3
  22624527.740    -6443902.485 6  -4902985.201 1
  22640907.553    -8863069.042 6  -6757589.568 1
  20356291.553    -2743728.130 6  -2104165.235 2
 91  4  5 21 27 29.9980000  0  4 18 11 02 19
  20313442.334      215533.762 7    178952.525 3
  22617741.225    -6479568.246 6  -4930776.633 1
  22630182.420    -8919422.753 6  -6801501.394 1
  20353317.826    -2759352.717 6  -2116340.226 2
 91  4  5 21 27 44.9980000  0  4 18 11 02 19
  20315361.451      225615.348 7    186808.268 3
  22610979.061    -6515104.264 6  -4958466.958 1
  22619471.787    -8975712.963 6  -6845363.745 1
  20350354.271    -2774932.536 6  -2128480.340 2
 91  4  5 21 27 59.9980000  0  4 18 11 02 19
  20317299.678      235803.119 7    194746.749 3
  22604238.662    -6550520.535 6  -4986063.970 1
  22608771.561    -9031949.638 6  -6889184.366 1
  20347394.811    -2790477.759 6  -2140593.492 2
 91  4  5 21 28 14.9980000  0  4 18 11 02 19
  20319259.475      246100.235 7    202770.432 3
  22597522.748    -6585813.714 6  -5013565.060 1
  22598080.568    -9088129.499 6  -6932960.734 1
  20344445.022    -2805985.292 6  -2152677.275 2
 91  4  5 21 28 29.9980000  0  4 18 11 02 19
  20321241.982      256515.055 7    210885.838 3
  22590832.271    -6620975.137 6  -5040963.488 1
  22587401.537    -9144244.225 6  -6976686.332 1
  20341501.920    -2821446.637 6  -2164725.069 2
 91  4  5 21 28 44.9980000  0  4 18 11 02 19
  20323243.631      267035.422 7    219083.477 3
  22584164.131    -6656016.574 6  -5068268.419 1
  22576733.193    -9200305.610 6  -7020370.385 1
  20338565.529    -2836873.829 6  -2176746.251 2
 91  4  5 21 28 59.9980000  0  4 18 11 02 19
  20325267.373      277670.499 7    227370.509 3
  22577520.443    -6690928.518 6  -5095472.446 1
  22566077.459    -9256304.056 6  -7064005.373 1
  20335640.084    -2852257.573 6  -2188733.576 2
 91  4  5 21 29 14.9980000  0  4 18 11 02 19
  20327312.756      288419.399 7    235746.232 3
  22570900.537    -6725711.296 6  -5122575.815 1
  22555432.967    -9312240.277 6  -7107591.889 1
  20332719.389    -2867598.546 6  -2200687.579 2
 91  4  5 21 29 29.9980000  0  4 18 11 02 19
  20329378.131      299272.092 7    244202.833 3
  22564305.092    -6760374.485 6  -5149586.011 1
  22544796.451    -9368124.093 6  -7151137.561 1
  20329805.561    -2882906.644 6  -2212615.958 2
 91  4  5 21 29 44.9980000  0  4 18 11 02 19
  20331466.061      310244.390 7    252752.633 3
  22557734.975    -6794901.884 6  -5176490.390 1
  22534176.467    -9423939.296 6  -7194629.783 1
  20326902.443    -2898165.778 6  -2224506.187 2
 91  4  5 21 29 59.9980000  0  4 18 11 02 19
  20333576.357      321329.548 7    261390.371 3
  22551188.248    -6829300.000 6  -5203294.027 1
  22523568.381    -9479692.909 6  -7238074.001 1
  20324006.584    -2913382.919 6  -2236363.701 2
 91  4  5 21 30 14.9980000  0  4 18 11 02 19
  20335705.334      332520.964 7    270110.907 3
  22544667.084    -6863575.167 6  -5230001.862 1
  22512968.732    -9535391.249 6  -7281475.159 1
  20321117.334    -2928564.481 6  -2248193.484 2
 91  4  5 21 30 29.9980000  0  4 18 11 02 19
  20337857.654      343826.304 7    278920.219 3
  22538166.740    -6897719.217 6  -5256607.526 1
  22502377.061    -9591026.225 6  -7324826.936 1
  20318240.326    -2943702.502 6  -2259989.345 2
 91  4  5 21 30 44.9980000  0  4 18 11 02 19
  20340030.006      355245.235 7    287818.039 3
  22531696.920    -6931731.962 6  -5283110.881 1
  22491801.818    -9646597.782 6  -7368129.294 1
  20315364.490    -2958796.960 6  -2271751.260 2
 91  4  5 21 30 59.9980000  0  4 18 11 02 19
  20342224.092      366771.879 7    296799.793 3
  22525248.428    -6965619.243 6  -5309516.472 1
  22481240.209    -9702111.860 6  -7411386.867 1
  20312498.857    -2973853.977 6  -2283483.998 2
 91  4  5 21 31 14.9980000  0  4 18 11 02 19
  20344437.514      378407.145 7    305866.186 3
  22518823.397    -6999379.648 6  -5335823.193 1
  22470688.084    -9757567.142 6  -7454598.629 1
  20309642.178    -2988872.314 6  -2295186.598 2
 91  4  5 21 31 29.9980000  0  4 18 11 02 19
  20346672.053      390155.606 7    315020.785 3
  22512423.420    -7033008.252 6  -5362027.215 1
  22460145.232    -9812958.916 6  -7497760.902 1
  20306791.662    -3003847.318 6  -2306855.434 2
 91  4  5 21 31 44.9980000  0  4 18 11 02 19
  20348930.178      402014.572 7    324261.487 3
  22506048.920    -7066507.514 6  -5388130.447 1
  22449618.271    -9868289.841 6  -7540875.758 1
  20303950.654    -3018781.574 6  -2318492.513 2
 91  4  5 21 31 59.9980000  0  4 18 11 02 19
  20351206.326      413977.802 7    333583.438 3
  22499697.123    -7099883.158 6  -5414137.362 1
  22439100.576    -9923565.733 6  -7583947.729 1
  20301118.584    -3033681.248 6  -2330102.647 2
 91  4  5 21 32 14.9980000  0  4 18 11 02 19
  20353504.670      426052.728 7    342992.425 3
  22493370.834    -7133127.350 6  -5440041.848 1
  22428593.795    -9978778.767 6  -7626970.718 1
  20298288.154    -3048538.734 6  -2341679.905 2
 91  4  5 21 32 29.9980000  0  4 18 11 02 19
  20355822.826      438236.201 7    352485.993 3
  22487072.037    -7166242.801 6  -5465846.020 1
  22418098.787   -10033931.707 6  -7669946.883 1
  20295467.209    -3063356.765 6  -2353226.423 2
 91  4  5 21 32 44.9980000  0  4 18 11 02 19
  20358161.990      450530.071 7    362065.583 3
  22480793.686    -7199227.556 6  -5491548.354 1
  22407611.568   -10089022.948 6  -7712874.978 1
  20292655.654    -3078133.796 6  -2364740.988 2
 91  4  5 21 32 59.9980000  0  4 18 11 02 19
  20360522.311      462937.966 7    371734.028 3
  22474541.740    -7232077.596 6  -5517145.711 1
  22397141.779   -10144048.564 6  -7755751.934 1
  20289850.811    -3092865.897 7  -2376220.551 2
 91  4  5 21 33 14.9980000  0  4 18 11 02 19
  20362906.271      475459.202 7    381490.788 3
  22468316.396    -7264793.224 6  -5542638.332 1
  22386683.217   -10199009.036 6  -7798578.118 1
  20287056.326    -3107553.704 6  -2387665.592 2
 91  4  5 21 33 29.9980000  0  4 18 11 02 19
  20365309.006      488089.221 7    391332.315 3
  22462115.725    -7297378.503 6  -5568029.384 1
  22376236.295   -10253908.688 6  -7841356.925 1
  20284270.951    -3122201.589 6  -2399079.527 2
 91  4  5 21 33 44.9980000  0  4 18 11 02 19
  20367733.318      500828.020 7    401258.605 3
  22455940.264    -7329833.231 6  -5593318.719 1
  22365801.131   -10308747.512 6  -7884088.322 1
  20281489.811    -3136809.459 6  -2410462.282 2
 91  4  5 21 33 59.9980000  0  4 18 11 02 19
  20370177.646      513669.776 7    411265.114 3
  22449786.248    -7362162.695 6  -5618510.441 1
  22355376.795   -10363530.535 6  -7926776.242 1
  20278718.287    -3151382.876 6  -2421818.191 2
 91  4  5 21 34 14.9980000  0  4 18 11 02 19
  20372642.318      526626.412 7    421361.147 3
  22443661.295    -7394354.566 6  -5643594.947 1
  22344965.740   -10418245.821 6  -7969411.380 1
  20275953.107    -3165909.656 6  -2433137.751 2
 91  4  5 21 34 29.9980000  0  4 18 11 02 19
  20375128.014      539686.400 7    431537.710 3
  22437559.287    -7426420.091 6  -5668580.996 1
  22334562.920   -10472904.738 6  -8012002.592 1
  20273194.068    -3180401.329 6  -2444429.963 2
 91  4  5 21 34 44.9980000  0  4 18 11 02 19
  20377633.037      552847.256 7    441792.871 3
  22431480.982    -7458361.396 6  -5693470.255 1
  22324172.053   -10527509.431 6  -8054551.556 1
  20270444.100    -3194860.073 6  -2455696.514 2
 91  4  5 21 34 59.9980000  0  4 18 11 02 19
  20380157.459      566116.447 7    452132.452 3
  22425427.654    -7490170.792 6  -5718256.734 1
  22313792.154   -10582052.429 6  -8097052.438 1
  20267701.326    -3209278.368 6  -2466931.546 2
 91  4  5 21 35 14.9980000  0  4 18 11 02 19
  20382705.131      579500.115 7    462561.237 3
  22419401.154    -7521841.881 6  -5742935.436 1
  22303425.131   -10636527.486 6  -8139500.378 1
  20264963.717    -3223650.260 6  -2478130.421 2
 91  4  5 21 35 29.9980000  0  4 18 11 02 19
  20385271.998      592991.022 7    473073.580 3
  22413398.100    -7553381.197 6  -5767511.459 1
  22293070.107   -10690941.280 6  -8181900.588 1
  20262235.037    -3237982.436 6  -2489298.347 2
 91  4  5 21 35 44.9980000  0  4 18 11 02 19
  20387860.397      606591.786 7    483671.524 3
  22407424.076    -7584785.717 6  -5791982.456 1
  22282728.279   -10745290.963 6  -8224250.843 1
  20259517.772    -3252271.948 6  -2500433.022 2
 91  4  5 21 35 59.9980000  0  4 18 11 02 19
  20390470.436      620303.029 7    494355.556 3
  22401471.420    -7616054.745 6  -5816347.881 1
  22272399.584   -10799575.768 6  -8266550.535 1
  20256805.662    -3266518.312 6  -2511534.081 2
 91  4  5 21 36 14.9980000  0  5 18 11 02 16 19
  20393098.873      634123.059 7    505124.359 3
  22395548.240    -7647189.668 6  -5840608.803 1
  22262081.506   -10853797.140 6  -8308800.798 1
  23607569.201          -0.07314
  20254104.896    -3280723.142 6  -2522602.774 2
 91  4  5 21 36 29.9980000  0  5 18 11 02 16 19
  20395750.834      648053.139 7    515978.912 3
  22389648.998    -7678188.724 6  -5864763.843 1
  22251774.748   -10907953.722 6  -8351000.590 1
  23600837.021      -35389.158 4
  20251412.295    -3294885.041 6  -2533638.013 2
 91  4  5 21 36 44.9980000  0  5 18 11 02 16 19
  20398421.904      662091.571 7    526917.901 3
  22383776.779    -7709053.366 6  -5888814.159 1
  22241480.498   -10962046.948 6  -8393151.001 1
  23594132.365      -70653.869 4
  20248722.740    -3309005.420 6  -2544640.903 2
 91  4  5 21 36 59.9980000  0  5 18 11 02 16 19
  20401114.607      676239.360 7    537942.096 3
  22377928.811    -7739782.204 6  -5912758.647 1
  22231199.779   -11016075.604 6  -8435251.091 1
  23587445.482     -105792.880 4
  20246041.459    -3323083.061 6  -2555610.488 2
 91  4  5 21 37 14.9980000  0  5 18 11 02 16 19
  20403826.803      690495.775 7    549050.937 3
  22372106.779    -7770375.374 6  -5936597.417 1
  22220927.701   -11070039.959 6  -8477301.095 1
  23580781.396     -140806.412 4        -0.15111
  20243372.561    -3337118.568 6  -2566547.242 2
 91  4  5 21 37 29.9980000  0  5 18 11 02 16 19
  20406558.279      704846.656 7    560233.390 3
  22366307.498    -7800846.878 6  -5960341.384 1
  22210667.678   -11123954.126 6  -8519311.985 1
  23574133.193     -175708.222 4    -27196.319 1
  20240705.975    -3351126.014 6  -2577462.133 2
 91  4  5 21 37 44.9980000  0  5 18 11 02 16 19
  20409307.022      719293.534 7    571490.647 3
  22360533.498    -7831194.890 6  -5983989.127 1
  22200420.756   -11177816.182 6  -8561282.267 1
  23567510.490     -210496.689 4    -54304.171 1
  20238046.436    -3365103.578 6  -2588353.737 2
 91  4  5 21 37 59.9980000  0  5 18 11 02 16 19
  20412077.647      733851.373 7    582834.367 3
  22354783.498    -7861404.011 6  -6007528.650 1
  22190183.928   -11231611.137 6  -8603200.260 1
  23560923.811     -245156.726 4    -81311.956 1
  20235396.256    -3379036.188 6  -2599210.311 2
 91  4  5 21 38 14.9980000  0  5 18 11 02 16 19
  20414868.670      748520.990 7    594265.184 3
  22349061.943    -7891473.124 6  -6030959.071 1
  22179960.514   -11285337.907 6  -8645065.130 1
  23554351.318     -279687.024 4   -108218.640 1
  20232752.897    -3392922.916 6  -2610031.138 2
 91  4  5 21 38 29.9980000  0  5 18 11 02 16 19
  20417680.912      763299.072 7    605780.524 3
  22343366.506    -7921405.139 6  -6054282.670 1
  22169749.264   -11338999.637 6  -8686879.320 1
  23547798.615     -314090.609 4   -135026.590 1
  20230118.256    -3406766.800 6  -2620818.580 2
 91  4  5 21 38 44.9980000  0  5 18 11 02 16 19
  20420514.482      778185.005 7    617379.901 3
  22337696.912    -7951200.201 6  -6077499.553 1
  22159549.381   -11392596.516 6  -8728642.974 1
  23541287.232     -348367.978 5   -161736.187 1
  20227492.037    -3420568.218 6  -2631572.922 2
 91  4  5 21 38 59.9980000  0  5 18 11 02 16 19
  20423367.107      793177.742 7    629062.497 3
  22332051.771    -7980858.964 6  -6100610.222 1
  22149361.850   -11446129.186 6  -8770356.597 1
  23534774.764     -382519.996 4   -188348.132 1
  20224873.107    -3434328.152 6  -2642294.950 2
 91  4  5 21 39 14.9980000  0  5 18 11 02 16 19
  20426240.490      808276.385 7    640827.617 3
  22326433.248    -8010382.140 6  -6123615.257 1
  22139187.514   -11499598.551 6  -8812020.890 1
  23528307.990     -416547.312 4   -214862.861 1
  20222263.561    -3448047.328 6  -2652985.213 2
 91  4  5 21 39 29.9980000  0  5 18 11 02 16 19
  20429132.662      823480.659 7    652675.049 3
  22320842.279    -8039769.982 6  -6146514.834 1
  22129025.521   -11553005.007 6  -8853636.171 1
  23521854.107     -450450.189 4   -241280.652 1
  20219659.529    -3461726.142 6  -2663644.029 2
 91  4  5 21 39 44.9980000  0  5 18 11 02 16 19
  20432047.623      838791.316 7    664605.379 3
  22315276.162    -8069021.029 6  -6169307.803 1
  22118871.451   -11606347.323 6  -8895201.484 1
  23515425.131     -484227.192 4   -267600.372 1
  20217064.818    -3475363.380 6  -2674270.448 2
 91  4  5 21 39 59.9980000  0  5 18 11 02 16 19
  20434983.779      854223.685 7    676630.543 3
  22309738.256    -8098119.596 6  -6191981.958 1
  22108737.545   -11659609.645 6  -8936704.442 1
  23509024.678     -517862.906 4   -293809.975 1
  20214480.717    -3488943.423 6  -2684852.299 2
 91  4  5 21 40 14.9980000  0  5 18 11 02 16 19
  20437940.264      869761.182 7    688737.628 3
  22304227.443    -8127081.838 6  -6214549.895 1
  22098613.889   -11712808.503 6  -8978157.962 1
  23502644.787     -551373.574 4   -319922.134 1
  20211905.021    -3502482.712 6  -2695402.398 2
 91  4  5 21 40 29.9980000  0  5 18 11 02 16 19
  20440916.803      885408.582 7    700930.354 3
  22298743.639    -8155902.648 6  -6237007.611 1
  22088503.092   -11765938.867 6  -9019558.104 1
  23496289.021     -584754.273 4   -345933.039 1
  20209336.701    -3515976.228 6  -2705916.826 2
 91  4  5 21 40 44.9980000  0  5 18 11 02 16 19
  20443915.592      901161.972 7    713205.668 3
  22293283.740    -8184585.610 6  -6259357.922 1
  22078407.412   -11819004.277 6  -9060907.634 1
  23489969.287     -618008.506 4   -371845.379 1
  20206777.631    -3529427.650 6  -2716398.452 2
 91  4  5 21 40 59.9980000  0  5 18 11 02 16 19
  20446935.006      917027.960 7    725568.721 3
  22287854.748    -8213124.020 6  -6281595.593 1
  22068322.959   -11871998.183 6  -9102201.450 1
  23483659.943     -651129.825 3   -397654.174 1
  20204227.678    -3542830.625 6  -2726842.331 2
 91  4  5 21 41 14.9980000  0  5 18 11 02 16 19
  20449973.639      932999.684 7    738014.167 3
  22282446.670    -8241524.284 6  -6303725.617 1
  22058248.373   -11924927.104 6  -9143444.636 1
  23477388.529     -684124.854 4   -423364.541 1
  20201684.772    -3556191.587 6  -2737253.476 2
 91  4  5 21 41 29.9980000  0  5 18 11 02 16 19
  20453036.482      949088.281 7    750550.676 2
  22277073.459    -8269774.687 6  -6325738.860 1
  22048190.326   -11977779.565 6  -9184628.238 1
  23471136.709     -716981.898 4   -448967.393 1
  20199152.928    -3569499.083 6  -2747622.948 2
 91  4  5 21 41 44.9980000  0  5 18 11 02 16 19
  20456118.576      965284.843 7    763171.318 3
  22271724.256    -8297884.021 6  -6347642.184 1
  22038145.990   -12030564.382 6  -9225759.137 1
  23464899.436     -749709.922 4   -474469.713 1
  20196628.014    -3582761.946 6  -2757957.647 2
 91  4  5 21 41 59.9970000  0  5 18 11 02 16 19
  20459220.603      981592.292 7    775878.370 3
  22266402.728    -8325846.003 6  -6369430.690 1
  22028116.282   -12083273.595 6  -9266831.114 1
  23458701.767     -782302.460 4   -499866.450 1
  20194113.892    -3595975.013 6  -2768253.539 2
 91  4  5 21 42 14.9970000  0  5 18 11 02 16 19
  20462346.665      998013.125 7    788673.770 3
  22261109.540    -8353663.756 6  -6391106.812 1
  22018101.048   -12135914.026 6  -9307849.500 1
  23452526.056     -814763.097 4   -525160.420 1
  20191608.321    -3609139.702 6  -2778511.736 2
 91  4  5 21 42 29.9970000  0  5 18 11 02 16 19
  20465490.837     1014537.430 7    801549.790 3
  22255842.126    -8381343.800 6  -6412675.616 1
  22008094.274   -12188490.670 6  -9348818.178 1
  23446375.220     -847098.011 5   -550356.435 1
  20189109.728    -3622263.786 6  -2788738.299 2
 91  4  5 21 42 44.9970000  0  5 18 11 02 16 19
  20468656.212     1031167.931 7    814508.569 2
  22250602.079    -8408883.168 6  -6434134.809 1
  21998102.306   -12241000.431 6  -9389734.743 1
  23440247.735     -879304.783 5   -575452.591 1
  20186622.274    -3635344.480 6  -2798931.041 3
 91  4  5 21 42 59.9970000  0  5 18 11 02 16 19
  20471840.118     1047898.116 7    827545.013 2
  22245386.814    -8436287.932 6  -6455489.123 1
  21988120.103   -12293449.351 6  -9430603.903 1
  23434140.407     -911389.471 4   -600453.628 1
  20184143.220    -3648387.815 6  -2809094.679 3
 91  4  5 21 43 14.9970000  0  5 18 11 02 16 19
  20475045.696     1064740.076 7    840668.557 3
  22240198.532    -8463545.536 6  -6476728.756 1
  21978153.548   -12345825.197 6  -9471416.119 1
  23428055.267     -943339.493 4   -625349.723 1
  20181665.282    -3661381.427 6  -2819219.569 2
 91  4  5 21 43 29.9970000  0  5 18 11 02 16 19
  20478268.954     1081681.643 7    853869.715 3
  22235038.751    -8490668.136 6  -6497863.203 1
  21968199.243   -12398140.093 6  -9512180.844 1
  23422001.126     -975166.856 4   -650150.232 1
  20179201.978    -3674337.491 6  -2829315.201 2
 91  4  5 21 43 44.9970000  0  5 18 11 02 16 19
  20481512.056     1098728.021 7    867152.547 3
  22229903.017    -8517650.195 6  -6518888.126 1
  21958256.446   -12450388.630 6  -9552893.854 1
  23415976.048    -1006866.500 5   -674851.231 1
  20176746.282    -3687250.657 6  -2839377.402 3
 91  4  5 21 43 59.9970000  0  5 18 11 02 16 19
  20484776.243     1115879.806 7    880517.515 3
  22224796.884    -8544490.541 6  -6539802.626 1
  21948325.610   -12502569.885 6  -9593554.444 1
  23409964.962    -1038437.225 4   -699451.762 1
  20174296.509    -3700119.937 6  -2849405.409 2
 91  4  5 21 44 14.9970000  0  5 18 11 02 16 19
  20488061.392     1133139.869 7    893966.855 3
  22219716.610    -8571185.802 6  -6560604.072 1
  21938409.165   -12554680.464 6  -9634159.956 1
  23403980.540    -1069875.779 4   -723949.320 1
  20171856.681    -3712942.062 6  -2859396.669 2
 91  4  5 21 44 29.9970000  0  5 18 11 02 16 19
  20491363.493     1150503.229 7    907496.689 3
  22214663.610    -8597740.864 6  -6581296.262 1
  21928507.290   -12606725.217 6  -9674714.174 1
  23398023.556    -1101187.147 4   -748347.764 1
  20169426.688    -3725722.028 6  -2869355.080 2
 91  4  5 21 44 44.9970000  0  5 18 11 02 16 19
  20494688.954     1167970.785 7    921107.717 3
  22209636.204    -8624154.681 6  -6601878.412 1
  21918616.923   -12658703.392 6  -9715216.520 1
  23392087.782    -1132370.470 4   -772646.455 1
  20167000.017    -3738459.094 6  -2879280.061 2
 91  4  5 21 44 59.9970000  0  5 18 11 02 16 19
  20498032.056     1185540.549 7    934798.379 3
  22204637.040    -8650428.658 6  -6622351.587 1
  21908734.728   -12710616.320 6  -9755668.016 1
  23386173.829    -1163427.108 4   -796846.399 1
  20164584.923    -3751154.624 6  -2889172.677 2
 91  4  5 21 45 14.9970000  0  5 18 11 02 16 19
  20501397.360     1203219.900 7    948574.435 3
  22199664.446    -8676555.189 6  -6642709.864 1
  21898870.470   -12762456.495 6  -9796062.827 1
  23380294.595    -1194349.571 4   -820941.805 1
  20162178.212    -3763801.183 6  -2899027.137 2
 91  4  5 21 45 29.9970000  0  5 18 11 02 16 19
  20504782.188     1221007.970 7    962435.207 3
  22194721.876    -8702534.805 6  -6662953.667 1
  21889017.892   -12814224.628 6  -9836401.498 1
  23374432.556    -1225138.386 4   -844933.069 1
  20159779.618    -3776399.388 6  -2908843.913 3
 91  4  5 21 45 44.9970000  0  5 18 11 02 16 19
  20508185.251     1238898.701 7    976375.973 3
  22189804.438    -8728372.863 6  -6683087.163 1
  21879179.868   -12865926.111 6  -9876688.237 1
  23368605.478    -1255799.309 5   -868824.673 1
  20157391.321    -3788954.659 6  -2918627.239 2
 91  4  5 21 45 59.9970000  0  5 18 11 02 16 19
  20511610.938     1256896.599 7    990400.240 3
  22184915.751    -8754064.723 6  -6703106.739 1
  21869357.368   -12917556.538 6  -9916919.604 1
  23362792.212    -1286327.753 5   -892613.078 1
  20155013.860    -3801462.606 6  -2928373.685 2
 91  4  5 21 46 14.9970000  0  5 18 11 02 16 19
  20515056.407     1275001.732 7   1004508.075 3
  22180053.931    -8779610.183 6  -6723012.249 1
  21859544.040   -12969115.841 6  -9957095.554 1
  23357011.673    -1316723.722 5   -916298.214 1
  20152640.704    -3813923.247 6  -2938083.272 2
 91  4  5 21 46 29.9970000  0  5 18 11 02 16 19
  20518521.579     1293211.074 7   1018697.103 3
  22175219.626    -8805011.920 6  -6742805.753 1
  21849746.485   -13020606.694 6  -9997218.157 1
  23351252.681    -1346989.883 5   -939882.231 1
  20150279.087    -3826339.412 6  -2947758.203 2
 91  4  5 21 46 44.9970000  0  5 18 11 02 16 19
  20522004.728     1311517.200 7   1032961.544 3
  22170412.259    -8830277.071 6  -6762492.840 1
  21839959.985   -13072036.140 6 -10037292.923 1
  23345512.345    -1377133.027 5   -963370.377 1
  20147921.103    -3838718.330 6  -2957404.110 2
 91  4  5 21 46 59.9970000  0  5 18 11 02 16 19
  20525507.743     1329929.831 7   1047308.982 3
  22165633.806    -8855395.321 6  -6782065.456 1
  21830187.774   -13123394.002 6 -10077311.909 1
  23339799.923    -1407143.178 5   -986754.892 1
  20145574.384    -3851049.774 6  -2967013.021 2
 91  4  5 21 47 14.9970000  0  6 18 11 02 16 19 06
  20529033.431     1348448.129 7   1061738.757 3
  22160880.110    -8880367.455 6  -6801524.201 1
  21820425.478   -13174681.112 6 -10117275.764 1
  23334115.774    -1437021.526 5  -1010036.721 1
  20143238.415    -3863334.594 6  -2976585.606 2
  23635697.907          -0.00814
 91  4  5 21 47 29.9970000  0  6 18 11 02 16 19 06
  20532576.587     1367072.661 7   1076251.306 3
  22156156.587    -8905192.577 6  -6820868.414 1
  21810682.126   -13225896.880 6 -10157184.026 1
  23328453.876    -1466766.951 5  -1033214.966 1
  20140910.024    -3875572.020 6  -2986121.255 2
  23626772.884      -46877.789 4
 91  4  5 21 47 44.9970000  0  6 18 11 02 16 19 06
  20536140.688     1385800.053 7   1090844.008 3
  22151460.728    -8929873.697 6  -6840100.416 1
  21800947.071   -13277044.311 6 -10197039.033 1
  23322821.712    -1496382.514 5  -1056292.007 1
  20138587.501    -3887765.031 6  -2995622.299 2
  23617850.048      -93749.227 4
 91  4  5 21 47 59.9970000  0  6 18 11 02 16 19 06
  20539723.735     1404628.545 7   1105515.485 3
  22146790.407    -8954412.155 6  -6859221.246 1
  21791226.814   -13328124.903 6 -10236841.972 1
  23317207.907    -1525870.072 5  -1079269.313 1
  20136274.790    -3899915.209 6  -3005089.970 2
  23608932.618     -140615.928 4
 91  4  5 21 48 14.9970000  0  6 18 11 02 16 19 06
  20543325.603     1423560.170 7   1120267.329 3
  22142147.845    -8978805.201 6  -6878228.773 1
  21781520.524   -13379136.026 6 -10276590.772 1
  23311622.329    -1555226.925 5  -1102144.766 1
  20133972.454    -3912020.100 6  -3014522.351 2
  23600021.009     -187475.378 4
 91  4  5 21 48 29.9970000  0  6 18 11 02 16 19 06
  20546948.181     1442594.762 7   1135099.407 3
  22137533.657    -9003053.146 6  -6897123.243 1
  21771824.790   -13430077.943 6 -10316285.649 1
  23306056.259    -1584453.345 5  -1124918.605 1
  20131676.790    -3924079.922 6  -3023919.613 2
  23591103.368     -234328.068 4
 91  4  5 21 48 44.9970000  0  6 18 11 02 16 19 06
  20550589.603     1461723.043 7   1150004.484 3
  22132945.399    -9027164.854 6  -6915911.547 1
  21762143.017   -13480959.397 6 -10355933.408 1
  23300521.228    -1613558.431 4  -1147597.881 1
  20129389.876    -3936103.743 6  -3033288.821 2
  23582184.157     -281183.178 4        -0.20511
 91  4  5 21 48 59.9970000  0  6 18 11 02 16 19 06
  20554246.563     1480945.393 7   1164982.867 3
  22128382.517    -9051139.548 6  -6934593.090 1
  21752471.946   -13531779.852 6 -10395533.639 1
  23295008.657    -1642541.285 5  -1170181.895 1
  20127111.665    -3948090.753 6  -3042629.350 2
  23573265.407     -328039.988 3    -36511.833 1
 91  4  5 21 49 14.9970000  0  6 18 11 02 16 19 06
  20557924.978     1500276.223 7   1180045.778 3
  22123851.540    -9074962.638 6  -6953156.498 1
  21742812.876   -13582524.827 6 -10435075.057 1
  23289520.720    -1671387.127 5  -1192659.182 1
  20124836.837    -3960026.314 6  -3051929.787 2
  23564355.251     -374884.103 4    -73013.611 1
 91  4  5 21 49 29.9970000  0  6 18 11 02 16 19 06
  20561626.610     1519724.355 7   1195200.095 3
  22119345.704    -9098624.847 6  -6971594.545 1
  21733175.673   -13633185.129 6 -10474550.500 1
  23284055.157    -1700087.308 5  -1215022.952 1
  20122577.181    -3971901.430 6  -3061183.127 2
  23555439.931     -421706.580 3   -109498.490 1
 91  4  5 21 49 44.9970000  0  6 18 11 02 16 19 06
  20565345.399     1539271.239 7   1210431.358 3
  22114871.962    -9122144.649 6  -6989921.626 1
  21723547.423   -13683779.255 6 -10513974.373 1
  23278619.032    -1728660.249 5  -1237287.570 1
  20120325.501    -3983734.713 6  -3070403.868 2
  23546530.009     -468525.929 3   -145980.949 1
 91  4  5 21 49 59.9970000  0  6 18 11 02 16 19 06
  20569085.462     1558919.913 7   1225741.938 3
  22110423.556    -9145518.501 6  -7008134.984 1
  21713931.954   -13734303.753 6 -10553343.987 1
  23273202.204    -1757102.391 5  -1259450.271 1
  20118081.415    -3995522.686 6  -3079589.305 2
  23537627.423     -515338.947 4   -182458.486 1
 91  4  5 21 50 14.9970000  0  6 18 11 02 16 19 06
  20572841.196     1578662.717 7   1241125.870 3
  22106002.618    -9168753.678 6  -7026240.283 1
  21704331.235   -13784766.042 6 -10592665.140 1
  23267814.696    -1785421.167 5  -1281516.819 1
  20115845.931    -4007272.790 6  -3088745.234 2
  23528721.446     -562153.117 4   -218936.868 1
 91  4  5 21 50 29.9970000  0  6 18 11 02 16 19 06
  20576618.353     1598504.106 7   1256586.619 3
  22101607.618    -9191845.567 6  -7044233.930 1
  21694740.360   -13835161.409 6 -10631934.140 1
  23262453.407    -1813611.914 5  -1303483.643 1
  20113618.681    -4018980.336 6  -3097867.996 2
  23519808.954     -608963.784 3   -255412.569 1
 91  4  5 21 50 44.9970000  0  6 18 11 02 16 19 06
  20580411.985     1618445.920 7   1272125.616 3
  22097241.290    -9214791.971 6  -7062114.206 1
  21685162.095   -13885487.927 6 -10671149.492 1
  23257112.142    -1841672.579 5  -1325349.099 1
  20111400.126    -4030643.351 6  -3106956.063 2
  23510902.806     -655769.196 4   -291884.187 1
 91  4  5 21 50 59.9970000  0  6 18 11 02 16 19 06
  20584226.212     1638492.309 7   1287746.112 3
  22092902.993    -9237588.443 6  -7079877.662 1
  21675600.134   -13935741.212 6 -10710307.775 1
  23251797.212    -1869598.746 5  -1347109.723 1
  20109188.228    -4042257.466 6  -3116006.026 2
  23501996.517     -702565.064 4   -328348.338 1
 91  4  5 21 51 14.9970000  0  6 18 11 02 16 19 06
  20588062.688     1658645.892 7   1303450.132 3
  22088593.040    -9260231.934 6  -7097521.909 1
  21666053.001   -13985918.062 6 -10749406.508 1
  23246508.306    -1897387.672 5  -1368763.419 1
  20106988.407    -4053819.615 6  -3125015.494 2
  23493092.376     -749348.595 3   -364802.885 1
 91  4  5 21 51 29.9970000  0  6 18 11 02 16 19 06
  20591917.345     1678901.763 7   1319233.855 2
  22084312.782    -9282727.180 6  -7115050.645 1
  21656518.235   -14036023.347 6 -10788449.470 1
  23241249.548    -1925044.153 5  -1390313.909 1
  20104796.610    -4065334.653 6  -3133988.256 2
  23484191.368     -796124.550 4   -401251.524 1
 91  4  5 21 51 44.9970000  0  6 18 11 02 16 19 06
  20595789.446     1699250.320 7   1335089.802 3
  22080058.313    -9305083.234 6  -7132470.915 1
  21646994.282   -14086066.344 6 -10827443.906 1
  23236009.462    -1952577.352 5  -1411768.349 1
  20102614.228    -4076811.676 6  -3142931.397 2
  23475286.501     -842902.313 3   -437701.601 1
 91  4  5 21 51 59.9970000  0  6 18 11 02 16 19 06
  20599681.110     1719697.588 7   1351022.669 2
  22075831.954    -9327293.754 6  -7149777.782 1
  21637484.915   -14136040.788 6 -10866384.921 1
  23230798.688    -1979980.857 5  -1433121.706 1
  20100438.548    -4088244.336 6  -3151839.968 2
  23466387.626     -889675.800 3   -474148.340 1
 91  4  5 21 52 14.9970000  0  6 18 11 02 16 19 06
  20603591.040     1740244.259 7   1367032.990 2
  22071632.954    -9349357.764 6  -7166970.488 1
  21627988.642   -14185945.472 6 -10905271.581 1
  23225599.149    -2007253.828 5  -1454373.371 1
  20098269.634    -4099631.943 6  -3160713.428 2
  23457493.337     -936443.987 3   -510590.931 1
 91  4  5 21 52 29.9970000  0  6 18 11 02 16 19 06
  20607521.329     1760890.479 7   1383120.880 2
  22067464.204    -9371274.932 6  -7184048.772 1
  21618505.423   -14235780.149 6 -10944103.688 1
  23220436.579    -2034395.971 5  -1475523.104 1
  20096113.946    -4110974.177 6  -3169551.536 2
  23448589.189     -983206.727 3   -547029.243 1
 91  4  5 21 52 44.9970000  0  6 18 11 02 16 19 06
  20611467.274     1781637.269 7   1399287.137 2
  22063321.040    -9393043.750 6  -7201011.455 1
  21609033.376   -14285543.547 6 -10982880.251 2
  23215297.204    -2061406.140 5  -1496569.957 1
  20093962.360    -4122269.787 6  -3178353.313 2
  23439691.017    -1029962.840 3   -583462.457 1
 91  4  5 21 52 59.9970000  0  6 18 11 02 16 19 06
  20615435.423     1802490.626 7   1415536.436 2
  22059207.017    -9414658.325 6  -7217853.952 1
  21599578.985   -14335229.778 6 -11021596.694 2
  23210184.798    -2088278.321 5  -1517509.333 1
  20091824.774    -4133512.704 6  -3187114.035 2
  23430795.689    -1076706.521 3   -619885.952 1
 91  4  5 21 53 14.9970000  0  6 18 11 02 16 19 06
  20619424.423     1823445.938 7   1431865.165 2
  22055121.524    -9436122.894 6  -7234579.560 1
  21590139.126   -14384843.027 6 -11060256.269 1
  23205099.564    -2115016.632 5  -1538344.390 1
  20089693.032    -4144707.109 6  -3195836.948 2
  23421905.774    -1123442.194 3   -656303.203 1
 91  4  5 21 53 29.9970000  0  6 18 11 02 16 19 06
  20623430.415     1844504.119 7   1448274.069 2
  22051067.384    -9457436.120 6  -7251187.241 1
  21580710.860   -14434382.019 6 -11098857.969 2
  23200038.728    -2141619.905 5  -1559074.202 1
  20087572.876    -4155851.788 6  -3204521.115 2
  23413014.540    -1170168.730 3   -692713.369 1
 91  4  5 21 53 44.9970000  0  6 18 11 02 16 19 06
  20627455.845     1865660.630 7   1464759.584 2
  22047039.134    -9478601.952 6  -7267680.076 1
  21571295.173   -14483851.022 6 -11137405.142 2
  23194998.501    -2168092.575 5  -1579702.262 1
  20085461.314    -4166950.929 6  -3213169.799 2
  23404122.407    -1216890.218 4   -729119.588 1
 91  4  5 21 53 59.9970000  0  6 18 11 02 16 19 06
  20631502.564     1886920.146 7   1481325.365 2
  22043041.064    -9499615.663 6  -7284054.376 1
  21561895.829   -14533245.327 6 -11175894.109 2
  23189990.009    -2194429.901 5  -1600224.845 1
  20083358.720    -4177999.915 6  -3221779.404 2
  23395236.993    -1263602.254 4   -765518.439 1
 91  4  5 21 54 14.9970000  0  6 18 11 02 16 19 06
  20635567.360     1908278.000 7   1497967.771 2
  22039068.509    -9520481.473 6  -7300313.417 1
  21552512.532   -14582569.117 6 -11214328.129 2
  23185001.142    -2220636.228 5  -1620645.356 1
  20081264.173    -4189002.902 6  -3230353.161 2
  23386348.868    -1310309.055 4   -801913.198 1
 91  4  5 21 54 29.9970000  0  6 18 11 02 16 19 06
  20639647.782     1929732.629 7   1514685.586 2
  22035126.712    -9541200.870 6  -7316458.372 1
  21543139.407   -14631823.872 6 -11252708.352 2
  23180037.337    -2246712.894 5  -1640964.817 1
  20079178.118    -4199961.431 6  -3238892.275 2
  23377461.751    -1357012.358 4   -838305.258 1
 91  4  5 21 54 44.9970000  0  6 18 11 02 16 19 06
  20643750.407     1951285.092 7   1531479.642 2
  22031213.524    -9561772.433 6  -7332488.130 1
  21533778.728   -14681008.218 6 -11291033.716 2
  23175100.321    -2272658.652 4  -1661182.273 1
  20077103.165    -4210874.175 6  -3247395.715 2
  23368574.704    -1403710.930 4   -874693.611 1
 91  4  5 21 54 59.9970000  0  6 18 11 02 16 19 06
  20647871.892     1972937.548 7   1548351.608 2
  22027326.790    -9582193.313 6  -7348400.486 1
  21524434.095   -14730119.503 6 -11329302.151 2
  23170185.774    -2298470.904 4  -1681295.702 1
  20075034.790    -4221738.291 6  -3255861.266 2
  23359684.368    -1450402.113 4   -911076.226 1
 91  4  5 21 55 14.9970000  0  6 18 11 02 16 19 06
  20652010.853     1994690.292 7   1565301.715 2
  22023469.181    -9602463.238 6  -7364195.206 1
  21515102.228   -14779157.391 6 -11367513.397 2
  23165304.353    -2324149.270 5  -1701304.801 1
  20072977.103    -4232553.431 6  -3264288.648 2
  23350801.915    -1497085.708 4   -947452.904 1
 91  4  5 21 55 29.9970000  0  6 18 11 02 16 19 06
  20656167.517     2016535.493 7   1582323.874 2
  22019639.962    -9622589.806 6  -7379878.216 1
  21505783.845   -14828129.405 6 -11405673.307 2
  23160434.048    -2349701.612 4  -1721215.707 1
  20070928.392    -4243327.231 6  -3272683.820 2
  23341921.985    -1543769.455 5   -983829.706 1
 91  4  5 21 55 44.9970000  0  6 18 11 02 16 19 06
  20660342.548     2038478.900 7   1599422.553 2
  22015837.157    -9642566.981 6  -7395444.818 1
  21496478.470   -14877029.609 6 -11443777.263 2
  23155605.235    -2375121.783 4  -1741023.622 1
  20068885.564    -4254053.715 6  -3281042.120 2
  23333038.165    -1590447.475 5  -1020202.051 1
 91  4  5 21 55 59.9970000  0  6 18 11 02 16 19 06
  20664539.915     2060522.076 7   1616598.973 2
  22012064.392    -9662392.774 6  -7410893.449 1
  21487185.524   -14925856.153 6 -11481823.826 2
  23150784.923    -2400408.139 4  -1760727.283 1
  20066854.071    -4264731.300 6  -3289362.317 2
  23324153.095    -1637118.029 4  -1056568.604 1
 91  4  5 21 56 14.9970000  0  6 18 11 02 16 19 06
  20668751.337     2082663.903 7   1633852.262 2
  22008319.274    -9682068.097 6  -7426224.833 1
  21477909.267   -14974610.064 6 -11519813.790 2
  23146002.243    -2425561.378 4  -1780327.177 1
  20064831.751    -4275360.797 6  -3297645.040 2
  23315277.243    -1683782.174 5  -1092930.131 1
 91  4  5 21 56 29.9970000  0  6 18 11 02 16 19 06
  20672981.860     2104894.208 7   1651174.498 2
  22004603.845    -9701602.559 6  -7441446.463 1
  21468642.040   -15023300.899 6 -11557754.612 2
  23141238.814    -2450591.222 4  -1799830.961 1
  20062814.806    -4285951.815 6  -3305897.783 2
  23306399.774    -1730449.668 5  -1129294.246 1
 91  4  5 21 56 44.9970000  0  6 18 11 02 16 19 06
  20677230.509     2127221.336 7   1668572.179 2
  22000915.353    -9720987.666 6  -7456551.706 1
  21459390.774   -15071920.289 6 -11595639.752 2
  23136499.712    -2475489.250 4  -1819231.997 1
  20060808.157    -4296495.984 6  -3314114.016 2
  23297516.509    -1777112.128 4  -1165654.507 1
 91  4  5 21 56 59.9970000  0  6 18 11 02 16 19 06
  20681497.642     2149645.371 7   1686045.374 2
  21997253.126    -9740223.110 6  -7471540.329 1
  21450152.524   -15120467.922 6 -11633468.987 2
  23131790.118    -2500255.559 4  -1838530.415 1
  20058816.228    -4306992.958 6  -3322293.476 2
  23288637.868    -1823769.420 5  -1202010.710 1
 91  4  5 21 57 14.9970000  0  6 18 11 02 16 19 06
  20685782.415     2172162.138 7   1703590.826 2
  21993621.899    -9759312.892 6  -7486415.449 1
  21440927.103   -15168947.609 6 -11671245.270 2
  23127099.188    -2524893.846 4  -1857729.067 1
  20056821.532    -4317446.666 6  -3330439.223 2
  23279755.173    -1870425.718 4  -1238366.152 1
 91  4  5 21 57 29.9970000  0  6 18 11 02 16 19 06
  20690084.384     2194774.467 7   1721210.738 2
  21990017.423    -9778253.742 6  -7501174.523 1
  21431715.806   -15217356.320 6 -11708966.251 2
  23122437.688    -2549401.066 4  -1876825.567 1
  20054842.001    -4327854.118 6  -3338548.928 2
  23270883.290    -1917077.864 4  -1274718.302 1
 91  4  5 21 57 44.9970000  0  6 18 11 02 16 19 06
  20694406.556     2217484.053 7   1738906.440 2
  21986442.782    -9797043.516 6  -7515815.869 1
  21422514.939   -15265692.043 6 -11746630.361 2
  23117801.899    -2573775.363 5  -1895818.541 1
  20052871.079    -4338213.171 6  -3346620.915 2
  23262005.782    -1963723.909 4  -1311065.766 1
 91  4  5 21 57 59.9970000  0  6 18 11 02 16 19 06
  20698747.009     2240287.340 7   1756675.151 2
  21982892.907    -9815685.466 6  -7530342.028 1
  21413333.696   -15313958.017 6 -11784240.120 2
  23113186.001    -2598020.022 5  -1914710.464 1
  20050907.251    -4348527.118 6  -3354657.754 2
  23253125.806    -2010367.254 4  -1347411.095 1
 91  4  5 21 58 14.9970000  0  6 18 11 02 16 19 06
  20703105.931     2263191.499 7   1774522.460 2
  21979375.798    -9834172.166 6  -7544747.217 1
  21404160.509   -15362146.770 6 -11821789.703 2
  23108597.485    -2622127.669 4  -1933495.666 1
  20048954.392    -4358788.282 6  -3362653.468 2
  23244257.868    -2057000.539 4  -1383748.596 1
 91  4  5 21 58 29.9970000  0  6 18 11 02 16 19 06
  20707480.384     2286180.649 7   1792436.000 2
  21975885.306    -9852519.425 6  -7559043.753 1
  21395002.821   -15410274.155 6 -11859291.470 2
  23104033.899    -2646114.291 4  -1952186.520 1
  20047011.899    -4369012.565 6  -3370620.439 2
  23235380.423    -2103639.729 4  -1420090.677 1
 91  4  5 21 58 44.9970000  0  6 18 11 02 16 19 06
  20711873.907     2309269.468 7   1810427.206 2
  21972422.735    -9870712.301 6  -7573219.993 1
  21385861.048   -15458325.330 6 -11896733.854 2
  23099486.024    -2669964.730 4  -1970771.267 1
  20045074.149    -4379185.183 6  -3378547.153 2
  23226504.517    -2150270.048 4  -1456425.867 1
 91  4  5 21 58 59.9970000  0  6 18 11 02 16 19 06
  20716284.821     2332451.565 7   1828491.096 2
  21968988.306    -9888756.750 6  -7587280.568 1
  21376731.001   -15506306.226 6 -11934121.472 2
  23094981.509    -2693685.298 4  -1989254.801 1
  20043150.024    -4389312.111 6  -3386438.264 2
  23217627.767    -2196897.482 4  -1492758.812 1
 91  4  5 21 59 14.9970000  0  6 18 11 02 16 19 06
  20720714.798     2355731.556 7   1846631.271 2
  21965584.845    -9906647.720 6  -7601221.547 1
  21367613.313   -15554211.955 6 -11971450.522 2
  23090494.110    -2717270.980 5  -2007633.254 1
  20041229.798    -4399388.089 6  -3394289.674 2
  23208756.860    -2243517.276 4  -1529085.804 1
 91  4  5 21 59 29.9970000  0  6 18 11 02 16 19 06
  20725163.165     2379104.807 7   1864844.115 2
  21962207.829    -9924389.847 6  -7615046.559 1
  21358510.899   -15602046.910 6 -12008724.428 2
  23086026.071    -2740726.315 4  -2025910.133 1
  20039319.720    -4409418.000 6  -3402105.191 2
  23199885.954    -2290134.089 4  -1565410.494 1
 91  4  5 21 59 44.9970000  0  6 18 11 02 16 19 06
  20729629.228     2402573.281 7   1883131.151 2
  21958860.743    -9941981.053 6  -7628753.957 1
  21349422.696   -15649809.103 6 -12045941.631 2
  23081597.462    -2764049.275 5  -2044083.826 1
  20037422.095    -4419399.555 6  -3409883.027 2
  23191021.954    -2336745.874 4  -1601731.222 1
 91  4  5 21 59 59.9970000  0  6 18 11 02 16 19 06
  20734113.204     2426137.455 7   1901492.768 2
  21955541.454    -9959420.327 6  -7642342.973 1
  21340345.962   -15697497.567 6 -12083101.380 2
  23077180.431    -2787239.135 5  -2062153.850 1
  20035534.556    -4429332.021 6  -3417622.609 2
  23182147.118    -2383351.783 4  -1638047.416 1
 91  4  5 22  0 14.9970000  0  6 18 11 02 16 19 06
  20738615.282     2449792.914 7   1919925.512 2
  21952251.298    -9976711.677 6  -7655816.726 1
  21331285.907   -15745116.441 6 -12120206.902 2
  23072783.907    -2810299.988 4  -2080123.321 1
  20033650.235    -4439219.290 6  -3425326.973 2
  23173277.470    -2429956.016 4  -1674362.288 1
 91  4  5 22  0 29.9970000  0  6 18 11 02 16 19 06
  20743134.814     2473538.621 7   1938428.580 2
  21948989.517    -9993855.962 6  -7669175.882 1
  21322236.220   -15792666.379 6 -12157258.713 2
  23068429.384    -2833232.602 5  -2097992.880 1
  20031774.532    -4449062.283 6  -3432996.835 2
  23164415.392    -2476559.620 4  -1710676.662 1
 91  4  5 22  0 44.9970000  0  6 18 11 02 16 19 06
  20747670.423     2497376.739 7   1957003.655 2
  21945755.142   -10010850.975 6  -7682418.725 1
  21313200.978   -15840145.329 6 -12194255.210 2
  23064086.696    -2856035.066 5  -2115761.021 1
  20029913.603    -4458858.753 6  -3440630.447 2
  23155549.173    -2523160.291 4  -1746988.756 1
 91  4  5 22  0 59.9970000  0  6 18 11 02 16 19 06
  20752223.689     2521305.413 7   1975649.291 2
  21942549.032   -10027697.968 6  -7695546.227 1
  21304179.267   -15887554.652 6 -12231197.447 2
  23059768.329    -2878708.854 4  -2133428.889 1
  20028056.048    -4468610.127 6  -3448228.918 2
  23146675.657    -2569759.670 4  -1783299.822 1
 91  4  5 22  1 14.9970000  0  6 18 11 02 16 19 06
  20756797.188     2545333.785 7   1994372.617 2
  21939374.704   -10044387.342 6  -7708550.909 1
  21295172.743   -15934884.832 6 -12268078.016 2
  23055484.485    -2901244.518 5  -2150989.117 1
  20026212.259    -4478306.668 6  -3455784.662 2
  23137812.712    -2616348.198 4  -1819602.465 1
 91  4  5 22  1 29.9970000  0  6 18 11 02 16 19 06
  20761385.806     2569453.483 7   2013167.105 2
  21936226.563   -10060927.326 6  -7721439.179 1
  21286177.462   -15982143.957 6 -12304903.214 2
  23051220.649    -2923649.925 5  -2168447.905 1
  20024378.759    -4487956.620 6  -3463304.105 2
  23128948.892    -2662934.149 4  -1855903.077 1
 91  4  5 22  1 44.9970000  0  6 18 11 02 16 19 06
  20765993.829     2593670.219 7   2032037.213 2
  21933108.188   -10077312.055 6  -7734206.479 1
  21277200.649   -16029326.251 6 -12341668.551 2
  23046986.446    -2945919.318 5  -2185800.658 1
  20022550.212    -4497554.139 6  -3470782.688 2
  23120080.860    -2709511.753 4  -1892197.195 1
 91  4  5 22  1 59.9970000  0  6 18 11 02 16 19 06
  20770619.813     2617979.866 7   2050979.711 2
  21930018.907   -10093545.657 6  -7746856.013 1
  21268236.524   -16076435.909 6 -12378377.283 2
  23042770.634    -2968056.943 5  -2203050.747 1
  20020729.978    -4507103.429 6  -3478223.691 2
  23111217.110    -2756085.318 5  -1928488.168 1
 91  4  5 22  2 14.9970000  0  6 18 11 02 16 19 06
  20775263.524     2642383.269 7   2069995.273 2
  21926957.876   -10109626.550 6  -7759386.565 1
  21259285.056   -16123471.362 6 -12415028.191 2
  23038579.923    -2990061.645 4  -2220197.242 1
  20018925.274    -4516602.801 6  -3485625.801 2
  23102362.290    -2802653.448 4  -1964774.897 1
 91  4  5 22  2 29.9970000  0  6 18 11 02 16 19 06
  20779926.673     2666881.093 7   2089084.402 2
  21923926.524   -10125553.939 6  -7771797.501 1
  21250348.407   -16170431.874 6 -12451620.706 2
  23034417.735    -3011932.572 4  -2237239.509 1
  20017125.321    -4526051.623 6  -3492988.520 2
  23093500.509    -2849215.407 4  -2001056.826 1
 91  4  5 22  2 44.9970000  0  6 18 11 02 16 19 06
  20784605.079     2691466.805 7   2108242.022 2
  21920924.110   -10141334.026 6  -7784093.655 1
  21241427.657   -16217323.540 6 -12488159.573 2
  23030285.220    -3033676.028 5  -2254182.447 1
  20015338.134    -4535455.752 6  -3500316.416 2
  23084632.079    -2895777.401 4  -2037338.779 1
 91  4  5 22  2 59.9970000  0  6 18 11 02 16 19 06
  20789300.860     2716144.535 7   2127471.338 2
  21917951.282   -10156962.607 6  -7796271.757 1
  21232516.149   -16264142.122 6 -12524641.488 2
  23026170.259    -3055287.446 5  -2271022.495 1
  20013556.017    -4544811.023 6  -3507606.234 2
  23075769.954    -2942335.163 4  -2073617.450 1
 91  4  5 22  3 14.9970000  0  6 18 11 02 16 19 06
  20794014.454     2740915.131 7   2146773.022 2
  21915006.814   -10172438.424 6  -7808330.819 1
  21223621.423   -16310886.317 6 -12561065.440 2
  23022079.548    -3076765.832 5  -2287758.900 1
  20011785.814    -4554116.391 6  -3514857.172 2
  23066918.189    -2988887.732 4  -2109892.039 1
 91  4  5 22  3 29.9970000  0  6 18 11 02 16 19 06
  20798743.392     2765767.283 7   2166138.248 2
  21912087.524   -10187772.609 6  -7820279.515 1
  21214737.259   -16357567.419 6
  23018018.798    -3098122.465 5  -2304400.404 1
  20010021.829    -4563382.805 6  -3522077.755 2
  23058060.267    -3035446.236 4
 91  4  5 22  3 44.9970000  0  6 18 11 02 16 19 06
  20803489.790     2790709.099 7   2185573.347 2
  21909198.087   -10202956.832 6  -7832111.365 1
  21205867.407   -16404177.018 6
  23013985.485    -3119349.134 5  -2320940.659 1
  20008269.337    -4572601.970 6  -3529261.524 2
  23049201.001    -3082002.585 4
 91  4  5 22  3 59.9970000  0  6 18 11 02 16 19 06
  20808252.048     2815738.291 7   2205076.531 2
  21906337.142   -10217992.885 6  -7843827.756 1
  21197011.751   -16450716.844 6
  23009960.282    -3140447.604 4  -2337381.014 1
  20006522.759    -4581775.717 6  -3536409.895 2
  23040339.267    -3128558.592 5
 91  4  5 22  4 14.9970000  0  6 18 11 02 16 19 06
  20813033.017     2840857.137 7   2224649.579 2
  21903504.431   -10232878.125 6  -7855426.630 1
  21188170.681   -16497184.391 6 -12706232.386 2
  23005974.782    -3161415.765 5  -2353719.806 1
  20004785.064    -4590901.346 6  -3543520.771 2
  23031483.438    -3175111.655 5  -2255001.110 1
 91  4  5 22  4 29.9970000  0  6 18 11 02 16 19 06
  20817829.048     2866062.432 7   2244289.979 2
  21900699.501   -10247615.849 6  -7866910.546 1
  21179340.782   -16543583.016 6 -12742387.065 2
  23002007.923    -3182256.762 5  -2369959.542 1
  20003057.556    -4599982.254 6  -3550596.804 2
  23022622.142    -3221665.262 5  -2291276.531 1
 91  4  5 22  4 44.9970000  0  6 18 11 02 16 19 06
  20822644.735     2891363.644 7   2264005.123 2
  21897924.767   -10262196.129 6  -7878271.786 1
  21170526.946   -16589902.759 6 -12778480.272 2
  22998066.774    -3202960.695 5  -2386092.459 1
  20001342.071    -4609008.297 6  -3557630.088 2
  23013764.556    -3268209.581 5  -2327544.701 1
 91  4  5 22  4 59.9970000  0  6 18 11 02 16 19 06
  20827475.493     2916754.217 7   2283789.900 2
  21895180.259   -10276625.306 6  -7889515.281 1
  21161725.142   -16636149.978 6 -12814516.973 2
  22994153.892    -3223533.814 5  -2402123.442 1
  19999632.337    -4617986.005 6  -3564625.702 2
  23004907.915    -3314751.014 4  -2363810.638 1
 91  4  5 22  5 14.9970000  0  6 18 11 02 16 19 06
  20832326.235     2942238.779 7   2303647.912 2
  21892462.759   -10290898.552 6  -7900637.277 1
  21152938.688   -16682319.800 6 -12850493.358 2
  22990258.392    -3243971.720 4  -2418049.085 1
  19997932.759    -4626910.389 6  -3571579.768 2
  22996055.462    -3361284.821 5  -2400070.606 1
 91  4  5 22  5 29.9970000  0  6 18 11 02 16 19 06
  20837192.993     2967814.413 7   2323576.891 2
  21889777.415   -10305018.328 6  -7911639.680 1
  21144168.235   -16728414.819 6 -12886411.461 2
  22986399.915    -3264276.694 4  -2433871.138 1
  19996245.118    -4635783.982 6  -3578494.264 2
  22987199.290    -3407813.502 5  -2436326.596 1
 91  4  5 22  5 44.9970000  0  6 18 11 02 16 19 06
  20842075.267     2993476.844 7   2343573.507 2
  21887117.595   -10318988.690 6  -7922525.667 1
  21135410.548   -16774438.821 6 -12922274.222 2
  22982562.704    -3284452.629 4  -2449592.597 1
  19994564.142    -4644610.614 6  -3585372.157 2
  22978346.157    -3454341.116 5  -2472581.764 1
 91  4  5 22  5 59.9970000  0  6 18 11 02 16 19 06
  20846976.399     3019228.136 7   2363639.352 2
  21884487.407   -10332807.530 6  -7933293.574 1
  21126665.712   -16820389.653 6 -12958079.968 2
  22978740.821    -3304497.760 4  -2465212.187 1
  19992896.399    -4653388.065 6  -3592211.734 2
  22969491.657    -3500865.661 5  -2508834.512 1
 91  4  5 22  6 14.9970000  0  6 18 11 02 16 19 06
  20851892.634     3045067.577 7   2383773.897 2
  21881886.985   -10346475.191 6  -7943943.690 1
  21117936.938   -16866267.887 7 -12993829.153 2
  22974953.485    -3324412.509 4  -2480730.162 1
  19991234.259    -4662116.763 6  -3599013.317 2
  22960640.376    -3547387.617 5  -2545085.248 1
 91  4  5 22  6 29.9970000  0  6 18 11 02 16 19 06
  20856826.985     3070997.249 7   2403978.741 2
  21879317.126   -10359989.191 6  -7954474.062 1
  21109217.907   -16912070.990 6 -13029519.788 2
  22971191.642    -3344194.622 4  -2496144.770 1
  19989583.415    -4670794.400 6  -3605775.111 2
  22951788.079    -3593904.710 5  -2581332.211 1
 91  4  5 22  6 44.9970000  0  6 18 11 02 16 19 06
  20861777.954     3097016.720 7   2424253.569 2
  21876775.634   -10373349.899 6  -7964884.987 1
  21100518.149   -16957799.369 6 -13065152.206 2
  22967453.782    -3363844.531 4  -2511456.396 1
  19987940.806    -4679421.158 6  -3612497.264 2
  22942936.837    -3640417.093 5  -2617575.501 1
 91  4  5 22  6 59.9960000  0  6 18 11 02 16 19 06
  20866746.535     3123127.692 7   2444599.684 2
  21874262.629   -10386552.653 6  -7975172.833 1
  21091828.777   -17003446.194 6 -13100721.072 2
  22963728.059    -3383357.188 3  -2526661.046 1
  19986308.332    -4687992.486 6  -3619176.218 2
  22934087.379    -3686918.068 5  -2653809.879 1
 91  4  5 22  7 14.9960000  0  6 18 11 02 16 19 06
  20871732.551     3149321.668 7   2465010.486 2
  21871776.910   -10399610.929 6  -7985348.096 1
  21083158.863   -17049029.062 7 -13136240.106 2
  22960055.996    -3402746.781 4  -2541769.808 1
  19984686.684    -4696521.257 6  -3625822.015 2
  22925237.684    -3733425.586 5  -2690049.368 1
 91  4  5 22  7 29.9960000  0  6 18 11 02 16 19 06
  20876730.785     3175595.426 7   2485483.448 2
  21869319.910   -10412525.516 6  -7995411.403 1
  21074494.457   -17094546.804 7 -13171708.390 2
  22956382.387    -3422013.977 4  -2556783.198 1
  19983072.004    -4705008.669 6  -3632435.582 2
  22916390.121    -3779938.350 5  -2726292.927 1
 91  4  5 22  7 44.9960000  0  6 18 11 02 16 19 06
  20881747.441     3201945.188 7   2506015.644 2
  21866887.168   -10425299.543 6  -8005365.182 1
  21065844.262   -17140002.518 6 -13207128.342 2
  22952746.887    -3441161.923 4  -2571703.659 1
  19981464.996    -4713457.923 6  -3639019.414 2
  22907536.676    -3826459.576 5  -2762543.099 1
 91  4  5 22  7 59.9960000  0  6 18 11 02 16 19 06
  20886777.762     3228378.789 7   2526613.161 2
  21864485.598   -10437924.673 6  -8015202.926 1
  21057209.488   -17185387.899 6 -13242493.489 2
  22949120.324    -3460182.332 4  -2586524.768 1
  19979866.152    -4721860.448 6  -3645566.839 2
  22898678.395    -3872980.989 4  -2798793.402 1
 91  4  5 22  8 14.9960000  0  6 18 11 02 16 19 06
  20891824.434     3254904.269 7   2547282.275 2
  21862114.738   -10450392.928 6  -8024918.434 1
  21048585.910   -17230694.811 6 -13277797.492 2
  22945532.277    -3479067.203 5  -2601240.246 1
  19978275.480    -4730208.093 6  -3652071.496 2
  22889826.613    -3919494.593 4  -2835037.610 1
 91  4  5 22  8 29.9960000  0  6 18 11 02 16 19 06
  20896889.137     3281518.458 7   2568020.505 2
  21859768.902   -10462707.165 6  -8034513.926 1
  21039978.449   -17275926.165 6 -13313042.624 2
  22941957.020    -3497819.468 4  -2615852.396 1
  19976698.895    -4738503.731 6  -3658535.639 2
  22880981.051    -3966003.281 5  -2871277.991 1
 91  4  5 22  8 44.9960000  0  6 18 11 02 16 19 06
  20901970.535     3308218.367 7   2588825.549 2
  21857456.746   -10474870.041 6  -8043991.465 1
  21031386.520   -17321084.655 6 -13348230.972 2
  22938418.160    -3516441.912 4  -2630363.375 1
  19975128.145    -4746750.117 6  -3664961.396 2
  22872128.434    -4012509.792 4  -2907516.698 1
 91  4  5 22  8 59.9960000  0  6 18 11 02 16 19 06
  20907068.816     3335003.819 7   2609697.231 2
  21855170.207   -10486881.391 6  -8053350.944 1
  21022806.004   -17366169.991 6 -13383362.325 2
  22934901.020    -3534934.693 4  -2644773.343 1
  19973569.207    -4754946.992 6  -3671348.570 2
  22863270.879    -4059014.045 4  -2943753.617 1
 91  4  5 22  9 14.9960000  0  6 18 11 02 16 19 06
  20912182.043     3361876.699 7   2630637.048 2
  21852913.379   -10498739.513 6  -8062591.017 1
  21014241.434   -17411180.556 6 -13418435.412 2
  22931400.770    -3553295.963 4  -2659080.831 1
  19972018.402    -4763092.422 6  -3677695.663 2
  22854428.059    -4105514.338 5  -2979987.459 1
 91  4  5 22  9 29.9960000  0  6 18 11 02 16 19 06
  20917310.918     3388824.592 7   2651635.316 2
  21850682.637   -10510456.306 6  -8071720.971 1
  21005688.691   -17456128.178 6 -13453459.452 2
  22927929.816    -3571537.730 4  -2673295.190 1
  19970480.762    -4771198.504 6  -3684012.096 2
  22845580.981    -4152022.660 4  -3016227.557 1
 91  4  5 22  9 44.9960000  0  6 18 11 02 16 19 06
  20922454.918     3415865.772 7   2672706.267 2
  21848483.246   -10522013.312 6  -8080726.406 1
  20997149.457   -17500994.240 6 -13488419.940 2
  22924483.559    -3589641.317 4  -2687401.871 1
  19968946.191    -4779246.642 6  -3690283.368 2
  22836735.270    -4198520.448 4  -3052459.428 1
 91  4  5 22  9 59.9960000  0  6 18 11 02 16 19 06
  20927616.387     3442988.121 7   2693840.474 2
  21846313.348   -10533422.139 6  -8089616.383 1
  20988624.684   -17545790.544 6 -13523326.074 2
  22921066.121    -3607618.833 4  -2701410.328 1
  19967421.746    -4787248.423 6  -3696518.524 2
  22827884.332    -4245019.578 4  -3088692.374 1
 91  4  5 22 10 14.9960000  0  6 18 11 02 16 19 06
  20932794.543     3470202.152 7   2715046.127 2
  21844174.348   -10544672.286 6  -8098382.706 1
  20980116.535   -17590506.503 6 -13558169.596 2
  22917671.910    -3625459.791 4  -2715312.379 1
  19965909.855    -4795193.138 6  -3702709.208 2
  22819035.723    -4291509.489 4  -3124918.113 1
 91  4  5 22 10 29.9960000  0  6 18 11 02 16 19 06
  20937990.379     3497499.172 7   2736316.427 2
  21842061.223   -10555772.196 6  -8107031.976 1
  20971621.254   -17635150.486 6 -13592957.037 2
  22914292.520    -3643172.338 4  -2729114.368 1
  19964405.848    -4803089.217 6  -3708862.003 2
  22810189.230    -4337998.537 4  -3161143.209 1
 91  4  5 22 10 44.9960000  0  6 18 11 02 16 19 06
  20943200.902     3524883.339 7   2757654.658 2
  21839977.582   -10566717.727 6  -8115560.936 1
  20963138.238   -17679718.289 6 -13627685.118 2
  22910957.418    -3660752.828 5  -2742813.448 1
  19962914.074    -4810932.421 6  -3714973.591 2
  22801344.379    -4384482.721 5  -3197364.508 1
 91  4  5 22 10 59.9960000  0  6 18 11 02 16 19 06
  20948428.746     3552354.095 7   2779060.337 2
  21837925.254   -10577508.943 6  -8123969.659 1
  20954674.012   -17724210.033 6 -13662353.936 2
  22907629.262    -3678201.399 4  -2756409.742 1
  19961434.035    -4818722.704 6  -3721043.945 2
  22792500.371    -4430962.156 5  -3233582.094 1
 91  4  5 22 11 14.9960000  0  6 18 11 02 16 19 06
  20953670.363     3579906.213 7   2800529.431 2
  21835897.934   -10588150.691 6  -8132261.910 1
  20946220.731   -17768630.384 6 -13696967.112 2
  22904339.738    -3695522.571 4  -2769906.741 1
  19959960.207    -4826464.802 6  -3727076.756 2
  22783651.652    -4477441.742 5  -3269799.808 1
 91  4  5 22 11 29.9960000  0  6 18 11 02 16 19 06
  20958929.020     3607545.644 7   2822066.558 2
  21833903.184   -10598636.780 6  -8140432.863 1
  20937781.356   -17812973.179 6 -13731519.862 2
  22901069.254    -3712710.491 5  -2783299.942 1
  19958499.605    -4834152.593 6  -3733067.244 2
  22774813.481    -4523915.316 5  -3306012.870 1
 91  4  5 22 11 44.9960000  0  6 18 11 02 16 19 06
  20964205.590     3635262.678 7   2843664.149 2
  21831934.129   -10608976.864 6  -8148490.059 1
  20929356.832   -17857248.095 6 -13766019.716 2
  22897821.215    -3729775.111 5  -2796597.040 1
  19957044.160    -4841795.702 6  -3739022.920 2
  22765966.090    -4570392.574 5  -3342228.771 1
 91  4  5 22 11 59.9960000  0  6 18 11 02 16 19 06
  20969494.512     3663053.655 7   2865319.355 2
  21829996.152   -10619174.658 6  -8156436.370 1
  20920943.676   -17901458.947 6 -13800469.653 2
  22894590.254    -3746719.962 4  -2809800.829 1
  19955593.949    -4849397.461 6  -3744946.377 2
  22757120.707    -4616877.177 5  -3378450.429 1
 91  4  5 22 12 14.9960000  0  6 18 11 02 16 19 06
  20974796.590     3690920.355 7   2887033.578 2
  21828080.988   -10629227.842 6  -8164270.001 1
  20912542.621   -17945603.364 6 -13834867.820 2
  22891389.316    -3763542.774 4  -2822909.507 1
  19954157.473    -4856955.665 6  -3750835.885 2
  22748275.691    -4663366.871 5  -3414676.046 1
 91  4  5 22 12 29.9960000  0  6 18 11 02 16 19 06
  20980113.926     3718868.214 7   2908811.027 2
  21826196.731   -10639130.645 6  -8171986.462 1
  20904156.363   -17989675.302 6 -13869209.507 2
  22888211.238    -3780237.859 4  -2835918.682 1
  19952730.176    -4864464.390 6  -3756686.847 2
  22739423.098    -4709855.836 5  -3450901.090 1
 91  4  5 22 12 44.9960000  0  6 18 11 02 16 19 06
  20985449.316     3746900.874 7   2930654.562 2
  21824342.660   -10648879.234 6  -8179582.755 1
  20895782.855   -18033670.987 6 -13903491.779 2
  22885068.066    -3796801.494 5  -2848825.398 1
  19951309.926    -4871919.712 6  -3762496.195 2
  22730582.332    -4756340.300 5  -3487122.647 1
 91  4  5 22 12 59.9960000  0  6 18 11 02 16 19 06
  20990798.465     3775008.385 7   2952556.422 2
  21822514.316   -10658483.342 6  -8187066.462 1
  20887425.293   -18077600.081 6 -13937722.156 2
  22881935.098    -3813243.246 5  -2861637.156 1
  19949898.231    -4879331.220 6  -3768271.397 2
  22721736.574    -4802829.962 5  -3523348.239 1
 91  4  5 22 13 14.9960000  0  6 18 11 02 16 19 06
  20996161.793     3803193.278 7   2974518.577 2
  21820714.309   -10667940.429 6  -8194435.617 1
  20879077.410   -18121460.134 7 -13971898.740 2
  22878832.449    -3829560.808 5  -2874352.130 1
  19948498.621    -4886696.348 6  -3774010.467 2
  22712886.215    -4849322.292 5  -3559575.929 1
 91  4  5 22 13 29.9960000  0  6 18 11 02 16 19 06
  21001541.348     3831458.067 7   2996542.985 2
  21818943.840   -10677247.453 6  -8201687.828 1
  20870745.738   -18165248.076 7 -14006019.133 2
  22875750.215    -3845751.297 5  -2886968.104 1
  19947104.551    -4894012.063 6  -3779711.028 2
  22704040.387    -4895814.466 5  -3595803.506 1
 91  4  5 22 13 44.9960000  0  6 18 11 02 16 19 06
  21006936.332     3859807.353 7   3018633.235 2
  21817203.270   -10686399.641 6  -8208819.394 1
  20862427.051   -18208959.082 6 -14040079.575 2
  22872691.723    -3861810.005 5  -2899481.393 1
  19945723.949    -4901273.458 6  -3785369.258 2
  22695195.074    -4942301.575 5  -3632027.110 1
 91  4  5 22 13 59.9960000  0  6 18 11 02 16 19 06
  21012346.277     3888242.761 7   3040790.593 2
  21815489.246   -10695395.192 6  -8215828.914 1
  20854125.941   -18252591.204 7 -14074078.550 2
  22869661.371    -3877735.213 5  -2911890.629 1
  19944356.348    -4908478.664 6  -3790983.712 2
  22686352.879    -4988781.749 5  -3668245.345 1
 91  4  5 22 14 14.9960000  0  6 18 11 02 16 19 06
  21017772.277     3916756.572 7   3063009.049 2
  21813805.957   -10704241.612 6  -8222722.217 1
  20845834.332   -18296152.016 7 -14108021.957 2
  22866656.121    -3893534.633 5  -2924201.878 1
  19942992.449    -4915635.222 6  -3796560.256 2
  22677505.793    -5035262.743 5  -3704464.200 1
 91  4  5 22 14 29.9960000  0  6 18 11 02 16 19 06
  21023212.879     3945350.196 7   3085289.687 2
  21812150.488   -10712937.329 6  -8229498.100 1
  20837559.887   -18339640.005 7 -14141908.625 2
  22863676.785    -3909206.509 5  -2936413.718 1
  19941638.301    -4922741.475 6  -3802097.598 2
  22668656.043    -5081742.813 5  -3740682.342 1
 91  4  5 22 14 44.9960000  0  6 18 11 02 16 19 06
  21028670.316     3974024.833 7   3107633.465 2
  21810525.262   -10721480.835 6  -8236155.371 1
  20829298.738   -18383053.644 7 -14175737.349 2
  22860712.035    -3924749.372 5  -2948525.041 1
  19940297.520    -4929795.753 6  -3807594.448 2
  22659816.426    -5128220.533 5  -3776898.667 1
 91  4  5 22 14 59.9960000  0  6 18 11 02 16 19 06
  21034140.613     4002772.784 7   3130034.355 2
  21808928.777   -10729879.635 6  -8242699.888 1
  20821048.520   -18426400.143 6 -14209513.761 2
  22857782.441    -3940170.879 5  -2960541.797 1
  19938961.246    -4936805.313 6  -3813056.445 2
  22650969.621    -5174703.196 5  -3813118.852 1
 91  4  5 22 15 14.9960000  0  6 18 11 02 16 19 06
  21039626.863     4031598.271 7   3152495.673 1
  21807358.418   -10738129.332 6  -8249128.221 1
  20812814.957   -18469675.090 7 -14243234.422 2
  22854875.410    -3955466.630 5  -2972460.562 1
  19937637.371    -4943765.623 6  -3818480.068 2
  22642123.082    -5221186.568 5  -3849339.583 1
 91  4  5 22 15 29.9960000  0  6 18 11 02 16 19 06
  21045128.184     4060505.289 7   3175020.520 2
  21805818.207   -10746225.644 6  -8255437.033 1
  20804592.777   -18512874.215 6 -14276895.992 2
  22851983.106    -3970632.281 5  -2984277.949 1
  19936323.262    -4950672.330 6  -3823861.920 2
  22633280.949    -5267666.315 5  -3885557.473 1
 91  4  5 22 15 44.9960000  0  6 18 11 02 16 19 06
  21050644.152     4089492.589 7   3197607.920 1
  21804305.113   -10754169.703 6  -8261627.196 1
  20796386.715   -18555998.621 6 -14310499.343 2
  22849125.504    -3985669.294 5  -2995995.114 1
  19935020.316    -4957526.378 6  -3829202.747 2
  22624432.949    -5314143.538 5  -3921773.425 1
 91  4  5 22 15 59.9960000  0  6 18 11 02 16 19 06
  21056174.949     4118560.404 7   3220258.063 1
  21802824.137   -10761961.097 6  -8267698.409 1
  20788195.902   -18599047.789 6 -14344044.067 2
  22846286.043    -4000577.275 5  -3007611.714 1
  19933724.699    -4964327.394 6  -3834502.245 2
  22615590.832    -5360617.867 5  -3957987.104 1
 91  4  5 22 16 14.9960000  0  6 18 11 02 16 19 06
  21061722.512     4147712.171 7   3242973.619 1
  21801370.277   -10769596.152 6  -8273647.799 1
  20780019.106   -18642018.049 6 -14377527.308 2
  22843479.395    -4015352.509 5  -3019124.900 1
  19932442.074    -4971071.600 6  -3839757.475 2
  22606745.254    -5407085.524 5  -3994195.590 1
 91  4  5 22 16 29.9960000  0  6 18 11 02 16 19 06
  21067282.723     4176934.216 7   3265743.942 1
  21799943.816   -10777088.326 6  -8279485.854 1
  20771854.137   -18684922.854 6 -14410959.539 2
  22840681.129    -4030008.747 5  -3030545.365 1
  19931166.223    -4977772.314 6  -3844978.815 2
  22597903.918    -5453559.976 5  -4030409.365 1
 91  4  5 22 16 44.9960000  0  6 18 11 02 16 19 06
  21072860.566     4206237.778 7   3288577.778 1
  21798548.809   -10784426.154 6  -8285203.642 1
  20763703.816   -18727750.517 6 -14444331.669 2
  22837919.340    -4044534.605 5  -3041864.200 1
  19929901.949    -4984417.825 6  -3850157.135 2
  22589057.457    -5500029.800 5  -4066619.540 1
 91  4  5 22 16 59.9960000  0  6 18 11 02 16 19 06
  21078450.613     4235619.951 7   3311472.877 2
  21797181.770   -10791612.210 6  -8290803.165 1
  20755567.668   -18770503.625 6 -14477645.698 2
  22835179.949    -4058932.350 5  -3053083.226 1
  19928646.559    -4991010.629 6  -3855294.396 2
  22580220.285    -5546497.448 5  -4102828.024 1
 91  4  5 22 17 14.9960000  0  6 18 11 02 16 19 06
  21084056.652     4265083.623 7   3334431.472 1
  21795840.981   -10798643.457 6  -8296282.057 1
  20747448.379   -18813179.023 6 -14510899.177 2
  22832465.863    -4073199.381 4  -3064200.414 1
  19927405.316    -4997547.701 6  -3860388.221 2
  22571371.395    -5592959.984 5  -4139032.514 1
 91  4  5 22 17 29.9960000  0  6 18 11 02 16 19 06
  21089681.113     4294628.825 7   3357453.603 2
  21794533.980   -10805519.519 6  -8301640.027 1
  20739341.606   -18855776.302 6 -14544091.784 2
  22829776.457    -4087334.887 5  -3075215.102 1
  19926170.988    -5004028.490 6  -3865438.195 2
  22562534.840    -5639417.027 5  -4175232.720 1
 91  4  5 22 17 44.9960000  0  6 18 11 02 16 19 06
  21095318.254     4324247.145 7   3380532.708 1
  21793254.660   -10812248.931 6  -8306883.716 1
  20731249.285   -18898303.842 6 -14577230.052 2
  22827110.871    -4101347.844 5  -3086134.303 1
  19924945.582    -5010461.362 6  -3870450.826 2
  22553694.918    -5685876.934 5  -4211435.144 1
 91  4  5 22 17 59.9960000  0  6 18 11 02 16 19 06
  21100968.285     4353947.532 6   3403675.756 1
  21792004.426   -10818822.548 6  -8312006.015 1
  20723169.160   -18940752.601 6 -14610306.930 2
  22824470.809    -4115229.194 5  -3096950.946 1
  19923731.340    -5016836.937 6  -3875418.811 2
  22544856.254    -5732330.601 5  -4247632.713 1
 91  4  5 22 18 14.9960000  0  6 18 11 02 16 19 06
  21106634.395     4383727.064 6   3426880.475 1
  21790782.121   -10825242.912 6
  20715107.980   -18983125.247 6 -14643324.495 2
  22821846.316    -4128981.690 4  -3107667.201 1
  19922528.629    -5023157.732 6
  22536015.074    -5778780.591 5  -4283827.425 1
 91  4  5 22 18 29.9960000  0  6 18 11 02 16 19 06
  21112318.098     4413577.378 7   3450140.352 1
  21789588.270   -10831518.144 6
  20707056.910   -19025429.707 6 -14676288.932 2
  22819259.629    -4142613.326 5  -3118289.274 1
  19921335.277    -5029432.125 6
  22527171.738    -5825234.992 5  -4320025.554 1
 91  4  5 22 18 44.9960000  0  6 18 11 02 16 19 06
  21118009.176     4443495.832 6   3473453.329 1
  21788421.895   -10837650.630 6  -8326677.245 1
  20699017.887   -19067668.230 6 -14709201.993 2
  22816684.832    -4156126.482 5  -3128819.018 1
  19920149.059    -5035662.047 6  -3890087.723 3
  22518331.981    -5871696.175 5  -4356228.960 1
 91  4  5 22 18 59.9960000  0  6 18 11 02 16 19 06
  21123718.004     4473495.627 6   3496829.676 1
  21787285.098   -10843627.173 6  -8331334.274 1
  20690996.832   -19109827.559 6 -14742053.338 2
  22814144.504    -4169508.150 5  -3139246.308 1
  19918975.074    -5041834.064 6  -3894897.094 3
  22509492.129    -5918150.821 5  -4392427.279 1
 91  4  5 22 19 14.9960000  0  6 18 11 02 16 19 06
  21129441.488     4503571.829 6   3520265.571 1
  21786173.582   -10849452.554 6  -8335873.544 1
  20682987.910   -19151912.201 6 -14774846.488 2
  22811614.840    -4182762.929 4  -3149574.735 1
  19917813.129    -5047952.863 6  -3899664.987 3
  22500652.762    -5964603.697 5  -4428624.216 1
 91  4  5 22 19 29.9960000  0  6 18 11 02 16 19 06
  21135179.324     4533720.211 6   3543757.712 1
  21785092.676   -10855130.786 6  -8340298.134 1
  20674992.371   -19193926.252 6 -14807584.633 2
  22809125.676    -4195895.122 5  -3159807.603 1
  19916657.621    -5054022.270 6  -3904394.402 3
  22491813.684    -6011058.804 5  -4464822.900 1
 91  4  5 22 19 44.9960000  0  6 18 11 02 16 19 06
  21140929.090     4563942.671 6   3567307.566 2
  21784043.621   -10860659.513 6  -8344606.230 1
  20667014.027   -19235867.361 7 -14840265.952 2
  22806642.191    -4208902.381 5  -3169943.171 1
  19915511.465    -5060039.835 6  -3909083.424 3
  22482969.449    -6057513.689 5  -4501021.383 1
 91  4  5 22 19 59.9960000  0  6 18 11 02 16 19 06
  21146694.582     4594235.417 6   3590912.191 1
  21783017.566   -10866042.503 6  -8348800.781 1
  20659044.473   -19277739.112 7 -14872893.220 2
  22804194.254    -4221788.561 5  -3179984.385 1
  19914374.746    -5066009.479 6  -3913735.092 3
  22474129.605    -6103972.109 5  -4537222.646 1
 91  4  5 22 20 14.9960000  0  6 18 11 02 16 19 06
  21152472.293     4624596.214 6   3614569.848 1
  21782019.738   -10871281.789 6  -8352883.353 1
  20651088.879   -19319543.576 7 -14905468.055 2
  22801762.410    -4234555.587 5  -3189932.736 1
  19913249.629    -5071932.898 6  -3918350.751 3
  22465292.074    -6150436.123 5  -4573428.236 1
 91  4  5 22 20 29.9960000  0  6 18 11 02 16 19 06
  21158263.574     4655032.081 6   3638285.996 1
  21781052.348   -10876370.227 6  -8356848.374 1
  20643148.324   -19361273.572 7 -14937984.868 2
  22799356.871    -4247196.511 5  -3199782.838 1
  19912133.645    -5077802.857 6  -3922924.749 3
  22456450.262    -6196898.357 5  -4609632.446 1
 91  4  5 22 20 44.9960000  0  6 18 11 02 16 19 06
  21164067.863     4685540.023 6   3662058.312 1
  21780111.793   -10881310.365 6  -8360697.843 1
  20635221.191   -19402931.588 7 -14970445.596 2
  22796973.715    -4259713.906 4  -3209536.681 1
  19911025.246    -5083621.534 6  -3927458.787 3
  22447611.246    -6243361.463 5  -4645837.335 1
 91  4  5 22 20 59.9960000  0  6 18 11 02 16 19 06
  21169887.957     4716118.896 6   3685885.892 1
  21779198.465   -10886103.443 6  -8364432.720 1
  20627306.426   -19444518.780 7 -15002851.132 2
  22794614.824    -4272109.000 5  -3219195.223 1
  19909926.965    -5089390.131 6  -3931953.803 3
  22438764.816    -6289826.538 5  -4682043.768 1
 91  4  5 22 21 14.9960000  0  6 18 11 02 16 19 06
  21175721.801     4746770.650 6   3709770.260 2
  21778317.918   -10890747.268 6  -8368051.289 1
  20619407.160   -19486032.871 7 -15035199.706 2
  22792284.246    -4284379.970 5  -3228757.042 1
  19908838.645    -5095106.358 6  -3936408.012 3
  22429926.754    -6336291.320 5  -4718249.967 1
 91  4  5 22 21 29.9960000  0  6 18 11 02 16 19 06
  21181566.988     4777493.589 6   3733710.094 1
  21777462.059   -10895243.396 6  -8371554.774 1
  20611521.035   -19527475.180 7 -15067492.348 2
  22789965.363    -4296528.273 5  -3238223.275 1
  19907759.324    -5100771.564 6  -3940822.463 3
  22421078.574    -6382757.497 5  -4754457.246 1
 91  4  5 22 21 44.9960000  0  6 18 11 02 16 19 06
  21187428.543     4808290.798 6   3757707.801 1
  21776632.840   -10899588.349 6  -8374940.467 1
  20603648.152   -19568842.323 7 -15099726.422 2
  22787680.676    -4308550.401 5  -3247591.188 1
  19906693.223    -5106382.240 6  -3945194.423 3
  22412236.871    -6429221.271 5  -4790662.661 1
 91  4  5 22 21 59.9960000  0  6 18 11 02 16 19 06
  21193302.941     4839163.329 6   3781764.201 1
  21775834.152   -10903780.980 6  -8378207.465 1
  20595791.168   -19610133.027 7 -15131900.935 2
  22785425.246    -4320445.429 5  -3256860.077 1
  19905639.816    -5111937.131 6  -3949522.919 3
  22403400.395    -6475681.612 5  -4826865.386 1
 91  4  5 22 22 14.9960000  0  6 18 11 02 16 19 06
  21199191.598     4870109.802 6   3805878.215 1
  21775066.074   -10907822.467 6  -8381356.685 1
  20587947.004   -19651348.393 7 -15164016.741 2
  22783179.348    -4332214.639 5  -3266030.902 1
  19904591.379    -5117437.219 6  -3953808.707 3
  22394557.848    -6522139.629 5  -4863066.317 1
 91  4  5 22 22 29.9960000  0  6 18 11 02 16 19 06
  21205094.371     4901123.866 6   3830044.909 1
  21774323.941   -10911718.903 6  -8384392.881 1
  20580117.918   -19692494.662 7 -15196078.700 2
  22780960.855    -4343864.028 5  -3275108.382 1
  19903553.855    -5122888.392 6  -3958056.380 3
  22385714.754    -6568601.430 5  -4899270.182 1
 91  4  5 22 22 44.9960000  0  6 18 11 02 16 19 06
  21211009.027     4932211.891 6   3854269.223 1
  21773611.426   -10915463.917 6  -8387311.080 1
  20572302.770   -19733565.231 7 -15228081.678 2
  22778765.129    -4355387.241 5  -3284087.540 1
  19902527.606    -5128284.102 6  -3962260.828 3
  22376873.715    -6615060.294 5  -4935471.764 1
 91  4  5 22 22 59.9960000  0  6 18 11 02 16 19 06
  21216939.387     4963369.373 6   3878547.676 1
  21772926.652   -10919061.699 6  -8390114.564 1
  20564500.902   -19774564.125 7 -15260028.804 2
  22776595.184    -4366788.481 5  -3292971.611 1
  19901508.324    -5133628.321 6  -3966425.172 3
  22368038.168    -6661520.693 5  -4971674.540 1
 91  4  5 22 23 14.9960000  0  6 18 11 02 16 19 06
  21222881.160     4994591.722 6   3902876.662 1
  21772271.402   -10922516.844 6  -8392806.894 1
  20556711.348   -19815495.836 7 -15291923.584 2
  22774448.566    -4378072.433 5  -3301764.335 1
  19900498.895    -5138925.508 6  -3970552.852 3
  22359190.613    -6707987.129 5  -5007882.035 1
 91  4  5 22 23 29.9960000  0  6 18 11 02 16 19 06
  21228835.348     5025887.232 6   3927262.656 1
  21771644.004   -10925820.932 6  -8395381.523 1
  20548938.043   -19856351.840 7 -15323759.367 2
  22772329.129    -4389230.727 5  -3310459.129 1
  19899503.676    -5144167.153 6  -3974637.260 3
  22350348.606    -6754450.695 5  -5044087.274 1
 91  4  5 22 23 44.9960000  0  6 18 11 02 16 19 06
  21234807.254     5057258.119 6   3951707.390 1
  21771040.793   -10928971.360 6  -8397836.413 1
  20541176.527   -19897129.428 7 -15355534.047 2
  22770230.887    -4400260.627 5  -3319053.881 1
  19898518.184    -5149350.307 6  -3978676.084 3
  22341509.816    -6800908.733 5  -5080288.223 1
 91  4  5 22 23 59.9960000  0  6 18 11 02 16 19 06
  21240788.605     5088700.348 6   3976207.712 1
  21770471.348   -10931972.118 6  -8400174.680 1
  20533432.707   -19937832.369 7 -15387250.562 2
  22768159.105    -4411166.280 5  -3327551.786 1
  19897542.316    -5154478.732 6  -3982672.267 3
  22332666.254    -6847365.511 5  -5116488.201 1
 91  4  5 22 24 14.9960000  0  6 18 11 02 16 19 06
  21246788.348     5120214.220 6   4000763.853 1
  21769928.254   -10934822.563 6  -8402395.824 1
  20525699.934   -19978460.266 7 -15418908.606 2
  22766108.348    -4421947.123 5  -3335952.516 1
  19896576.387    -5159551.781 6  -3986625.298 3
  22323830.285    -6893820.310 5  -5152686.616 1
 91  4  5 22 24 29.9960000  0  6 18 11 02 16 19 06
  21252796.785     5151795.594 6   4025372.601 1
  21769415.520   -10937526.815 6  -8404503.050 1
  20517983.551   -20019017.135 7 -15450511.292 2
  22764077.762    -4432607.533 5  -3344259.339 1
  19895618.418    -5164573.461 6  -3990538.302 3
  22314988.145    -6940276.981 5  -5188886.517 1
 91  4  5 22 24 44.9960000  0  6 18 11 02 16 19 06
  21258820.215     5183451.804 6   4050039.666 1
  21768927.363   -10940077.187 6  -8406490.376 1
  20510278.613   -20059495.101 7 -15482052.497 2
  22762073.246    -4443139.916 5  -3352466.414 1
  19894677.293    -5169535.898 6  -3994405.142 3
  22306148.082    -6986727.858 5  -5225081.887 1
 91  4  5 22 24 59.9960000  0  6 18 11 02 16 19 06
  21264858.684     5215183.262 6   4074765.357 1
  21768474.043   -10942473.243 6  -8408357.447 1
  20502592.207   -20099893.656 7 -15513531.823 2
  22760091.723    -4453543.621 5  -3360573.216 1
  19893743.676    -5174438.533 6  -3998225.378 3
  22297310.082    -7033172.257 5  -5261272.227 1
 91  4  5 22 25 14.9960000  0  6 18 11 02 16 19 06
  21270908.668     5246983.510 6   4099544.658 1
  21768045.129   -10944721.096 6  -8410109.039 1
  20494919.434   -20140218.775 7 -15544953.922 2
  22758133.512    -4463825.193 5  -3368584.886 1
  19892820.465    -5179287.291 6  -4002003.641 3
  22288476.832    -7079616.263 5  -5297462.245 1
 91  4  5 22 25 29.9960000  0  6 18 11 02 16 19 06
  21276974.996     5278856.005 6   4124380.249 1
  21767644.488   -10946817.301 6  -8411742.464 1
  20487259.762   -20180466.845 7 -15576315.989 2
  22756203.184    -4473981.067 5  -3376498.565 1
  19891908.184    -5184078.466 6  -4005737.028 3
  22279636.457    -7126056.423 5  -5333649.280 1
 91  4  5 22 25 44.9960000  0  6 18 11 02 16 19 06
  21283055.410     5310805.136 6   4149275.556 1
  21767277.355   -10948757.129 6  -8413254.035 1
  20479614.621   -20220632.973 7 -15607614.208 2
  22754292.590    -4484006.338 5  -3384310.489 1
  19891008.809    -5188807.205 6  -4009421.768 3
  22270803.762    -7172487.845 5  -5369829.511 1
 91  4  5 22 25 59.9960000  0  6 18 11 02 16 19 06
  21289143.856     5342814.163 6   4174217.534 1
  21766935.809   -10950557.373 6  -8414656.837 1
  20471984.973   -20260734.037 7 -15638861.730 2
  22752411.637    -4493917.928 5  -3392033.857 1
  19890115.145    -5193490.046 6  -4013070.741 3
  22261960.309    -7218927.311 5  -5406015.987 1
 91  4  5 22 26 14.9960000  0  6 18 11 02 16 19 06
  21295250.777     5374885.176 6   4199207.821 1
  21766621.285   -10952215.913 6  -8415949.218 1
  20464367.770   -20300767.761 7 -15670056.772 2
  22750547.941    -4503713.826 5  -3399667.024 1
  19889235.855    -5198124.708 6  -4016682.169 3
  22253124.410    -7265372.325 5  -5442206.830 1
 91  4  5 22 26 29.9960000  0  6 18 11 02 16 19 06
  21301364.582     5407018.821 6   4224246.906 1
  21766331.941   -10953731.727 6  -8417130.380 1
  20456761.066   -20340732.851 7 -15701198.333 2
  22748697.441    -4513393.257 5  -3407209.495 1
  19888363.918    -5202710.033 6  -4020255.150 3
  22244286.863    -7311822.033 5  -5478401.294 1
 91  4  5 22 26 44.9960000  0  6 18 11 02 16 19 06
  21307491.277     5439220.174 6   4249338.749 1
  21766071.238   -10955099.367 6  -8418196.087 1
  20449170.098   -20380623.945 7 -15732282.235 2
  22746883.426    -4522950.541 5  -3414656.768 1
  19887500.270    -5207240.257 6  -4023785.202 3
  22235446.941    -7358270.735 5  -5514594.995 1
 91  4  5 22 26 59.9960000  0  6 18 11 02 16 19 06
  21313633.762     5471491.463 6   4274485.090 1
  21765838.449   -10956316.684 6  -8419144.652 1
  20441593.238   -20420438.864 7 -15763306.780 2
  22745088.145    -4532383.595 5  -3422007.240 1
  19886648.668    -5211712.951 6  -4027270.420 3
  22226608.020    -7404716.314 5  -5550786.257 1
 91  4  5 22 27 14.9960000  0  6 18 11 02 16 19 06
  21319788.988     5503831.557 6   4299685.042 1
  21765634.926   -10957384.683 6  -8419976.872 1
  20434032.285   -20460178.580 7 -15794272.725 2
  22743316.355    -4541693.843 5  -3429261.973 1
  19885810.660    -5216129.170 6  -4030711.634 3
  22217769.730    -7451159.602 5  -5586975.731 1
 91  4  5 22 27 29.9960000  0  6 18 11 02 16 19 06
  21325953.207     5536235.329 6   4324934.616 1
  21765458.113   -10958307.934 6  -8420696.301 1
  20426481.199   -20499847.518 7 -15825183.515 2
  22741573.457    -4550885.773 5  -3436424.550 1
  19884977.426    -5220493.405 6  -4034112.343 3
  22208932.590    -7497605.312 5  -5623167.101 1
 91  4  5 22 27 44.9960000  0  6 18 11 02 16 19 06
  21332133.074     5568707.491 6   4350237.469 1
  21765313.121   -10959082.153 6  -8421299.603 1
  20418947.824   -20539441.076 7 -15856035.565 2
  22739847.356    -4559954.849 5  -3443491.440 1
  19884158.277    -5224800.902 6  -4037468.831 3
  22200092.254    -7544048.676 5  -5659356.649 1
 91  4  5 22 27 59.9960000  0  6 18 11 02 16 19 06
  21338323.309     5601242.622 6   4375589.413 1
  21765194.785   -10959712.401 6  -8421790.730 1
  20411427.277   -20578964.318 7 -15886832.825 2
  22738133.949    -4568906.442 5  -3450466.724 1
  19883349.473    -5229056.748 6  -4040785.083 3
  22191258.582    -7590494.877 5  -5695548.392 1
 91  4  5 22 28 14.9960000  0  6 18 11 02 16 19 06
  21344530.309     5633852.684 6   4400999.722 1
  21765100.707   -10960186.370 6  -8422160.077 1
  20403922.629   -20618404.829 7 -15917565.626 2
  22736462.137    -4577728.251 5  -3457340.879 1
  19882551.715    -5233248.332 6  -4044051.255 3
  22182417.215    -7636931.385 5  -5731732.611 1
 91  4  5 22 28 29.9960000  0  6 18 11 02 16 19 06
  21350747.543     5666522.282 6   4426456.422 1
  21765037.645   -10960519.659 6  -8422419.805 1
  20396427.863   -20657778.120 7 -15948246.045 2
  22734804.207    -4586435.866 5  -3464126.047 1
  19881762.465    -5237390.973 6  -4047279.292 3
  22173581.871    -7683373.552 5  -5767921.214 1
 91  4  5 22 28 44.9960000  0  6 18 11 02 16 19 06
  21356974.809     5699258.221 6   4451964.823 1
  21765002.699   -10960705.068 6
  20388951.676   -20697076.910 7 -15978868.413 2
  22733161.731    -4595022.195 5  -3470816.739 1
  19880987.191    -5241477.539 6  -4050463.637 3
  22164742.777    -7729814.292 5  -5804108.722 1
 91  4  5 22 28 59.9960000  0  6 18 11 02 16 19 06
  21363218.113     5732059.265 6   4477523.950 1
  21764993.801   -10960743.595 6
  20381486.691   -20736301.981 7 -16009433.329 2
  22731555.051    -4603488.354 5  -3477413.797 1
  19880218.066    -5245508.755 6  -4053604.851 3
  22155905.668    -7776254.331 5  -5840295.682 1
 91  4  5 22 29 14.9960000  0  6 18 11 02 16 19 06
  21369473.051     5764923.027 6   4503131.955 1
  21765017.426   -10960637.636 6
  20374035.145   -20775455.736 7 -16039942.682 2
  22729970.816    -4611836.599 5  -3483918.962 1
  19879461.176    -5249486.568 6  -4056704.447 3
  22147065.715    -7822695.982 5  -5876483.903 1
 91  4  5 22 29 29.9960000  0  6 18 11 02 16 19 06
  21375739.488     5797856.213 6   4528794.053 1
  21765064.285   -10960380.358 6
  20366600.176   -20814531.272 7 -16070391.079 2
  22728408.434    -4620060.386 5  -3490327.132 1
  19878716.129    -5253404.093 6  -4059757.067 3
  22138232.582    -7869132.435 5  -5912668.060 1
 91  4  5 22 29 44.9960000  0  6 18 11 02 16 19 06
  21382017.402     5830852.338 6   4554505.191 1
  21765141.035   -10959978.014 6
  20359178.902   -20853534.566 7 -16100783.192 3
  22726862.785    -4628165.925 5  -3496643.210 1
  19877982.574    -5257267.285 6  -4062767.350 3
  22129391.879    -7915569.648 5  -5948852.836 1
 91  4  5 22 29 59.9960000  0  6 18 11 02 16 19 06
  21388310.426     5863914.643 6   4580267.897 1
  21765245.676   -10959427.277 6  -8421568.700 1
  20351769.629   -20892462.220 7 -16131116.360 2
  22725343.410    -4636149.693 5  -3502864.325 1
  19877258.121    -5261072.682 6  -4065732.603 3
  22120556.441    -7962004.052 5  -5985035.399 1
 91  4  5 22 30 14.9960000  0  6 18 11 02 16 19 06
  21394614.715     5897048.812 6   4606086.601 1
  21765382.473   -10958722.378 6  -8421019.443 1
  20344378.043   -20931308.315 7 -16161385.976 2
  22723847.605    -4644006.110 4  -3508986.246 1
  19876544.926    -5264814.347 6  -4068648.190 3
  22111722.871    -8008429.845 5  -6021211.258 1
 91  4  5 22 30 29.9960000  0  6 18 11 02 16 19 06
  21400929.629     5930230.555 6   4631942.380 1
  21765540.332   -10957887.274 6  -8420368.725 1
  20336997.324   -20970096.996 7 -16191610.859 2
  22722372.699    -4651759.241 5  -3515027.709 1
  19875839.777    -5268516.039 6  -4071532.630 3
  22102887.223    -8054871.050 5  -6057399.113 1
 91  4  5 22 30 44.9960000  0  6 18 11 02 16 19 06
  21407257.301     5963472.601 6   4657845.137 1
  21765726.754   -10956909.365 6  -8419606.737 1
  20329630.262   -21008815.349 7 -16221780.942 2
  22720916.066    -4659396.330 5  -3520978.706 1
  19875145.035    -5272164.880 6  -4074375.889 3
  22094046.441    -8101314.672 5  -6093588.871 1
 91  4  5 22 30 59.9960000  0  6 18 11 02 16 19 06
  21413595.457     5996783.592 6   4683801.632 1
  21765941.723   -10955779.618 6  -8418726.427 1
  20322276.191   -21047454.203 7 -16251889.078 2
  22719485.051    -4666908.533 5  -3526832.427 1
  19874463.527    -5275751.605 6  -4077170.748 3
  22085210.098    -8147751.536 5  -6129773.335 1
 91  4  5 22 31 14.9960000  0  6 18 11 02 16 19 06
  21419943.637     6030147.216 6   4709799.137 1
  21766182.027   -10954514.291 6  -8417740.473 1
  20314935.168   -21086029.719 7 -16281947.861 2
  22718077.504    -4674312.245 5  -3532601.582 1
  19873789.590    -5279292.229 6  -4079929.685 3
  22076377.363    -8194197.897 5  -6165965.224 1
 91  4  5 22 31 29.9960000  0  6 18 11 02 16 19 06
  21426304.582     6063570.382 6   4735843.035 1
  21766449.105   -10953106.406 6  -8416643.436 1
  20307608.582   -21124534.509 7 -16311951.527 2
  22716697.098    -4681600.281 5  -3538280.636 1
  19873128.496    -5282779.576 6  -4082647.107 3
  22067532.020    -8240646.488 5  -6202158.828 1
 91  4  5 22 31 44.9950000  0  6 18 11 02 16 19 06
  21432675.858     6097055.467 6   4761935.177 1
  21766744.983   -10951551.249 6  -8415431.646 1
  20300294.327   -21162961.179 7 -16341894.331 2
  22715327.398    -4688767.612 5  -3543865.601 1
  19872475.015    -5286208.448 6  -4085318.969 3
  22058698.452    -8287089.437 5  -6238348.051 1
 91  4  5 22 31 59.9950000  0  6 18 11 02 16 19 06
  21439060.687     6130604.524 6   4788077.164 1
  21767069.929   -10949850.789 6  -8414106.629 1
  20292997.546   -21201317.101 7 -16371782.000 2
  22713992.116    -4695817.444 5  -3549358.981 1
  19871830.062    -5289581.213 6  -4087947.107 3
  22049856.913    -8333534.815 5  -6274539.150 1
 91  4  5 22 32 14.9950000  0  6 18 11 02 16 19 06
  21445455.976     6164216.693 6   4814268.332 1
  21767420.288   -10948003.856 6  -8412667.478 1
  20285712.069   -21239598.359 7 -16401611.500 2
  22712678.374    -4702748.179 5  -3554759.607 1
  19871202.155    -5292896.123 6  -4090530.164 3
  22041018.015    -8379978.124 5  -6310728.647 1
 91  4  5 22 32 29.9950000  0  6 18 11 02 16 19 06
  21451863.030     6197890.684 6   4840507.678 1
  21767800.210   -10946011.431 6  -8411114.958 1
  20278441.640   -21277805.728 7 -16431383.419 3
  22711371.913    -4709560.622 5  -3560068.042 1
  19870581.132    -5296154.057 6  -4093068.827 3
  22032180.155    -8426420.426 5  -6346917.336 1
 91  4  5 22 32 44.9950000  0  6 18 11 02 16 19 06
  21458285.327     6231628.189 6   4866796.512 1
  21768207.398   -10943871.705 6  -8409447.663 1
  20271184.624   -21315936.980 7 -16461096.030 3
  22710103.577    -4716252.920 5  -3565282.889 1
  19869971.866    -5299352.804 6  -4095561.367 3
  22023347.413    -8472859.405 5  -6383103.454 1
 91  4  5 22 32 59.9950000  0  6 18 11 02 16 19 06
  21464715.905     6265431.691 6   4893136.772 1
  21768642.562   -10941582.320 6  -8407663.746 1
  20263944.593   -21353989.727 7 -16490747.469 2
  22708845.366    -4722822.732 5  -3570402.248 1
  19869378.163    -5302489.852 6  -4098005.829 3
  22014505.788    -8519292.615 5  -6419285.063 1
 91  4  5 22 33 14.9950000  0  6 18 11 02 16 19 06
  21471161.804     6299294.808 6   4919523.494 1
  21769104.468   -10939149.174 6  -8405767.803 1
  20256718.054   -21391969.961 7 -16520342.406 3
  22707617.608    -4729276.348 5  -3575431.109 1
  19868790.507    -5305570.994 6  -4100406.729 3
  22005672.257    -8565726.016 5  -6455466.844 1
 91  4  5 22 33 29.9950000  0  6 18 11 02 16 19 06
  21477616.140     6333215.376 6   4945954.963 1
  21769596.898   -10936574.460 6  -8403761.543 1
  20249502.257   -21429879.761 7 -16549882.458 2
  22706414.038    -4735615.810 5  -3580370.958 1
  19868212.640    -5308598.129 6  -4102765.550 3
  21996836.288    -8612161.423 5  -6491650.148 1
 91  4  5 22 33 44.9950000  0  6 18 11 02 16 19 06
  21484080.233     6367189.220 6   4972427.962 1
  21770110.937   -10933862.222 6  -8401648.134 1
  20242302.085   -21467723.084 7 -16579370.710 3
  22705230.132    -4741845.316 5  -3585225.147 1
  19867647.460    -5311574.998 6  -4105085.198 3
  21987999.530    -8658602.818 5  -6527838.156 1
 91  4  5 22 33 59.9950000  0  6 18 11 02 16 19 06
  21490557.483     6401230.749 6   4998953.691 1
  21770656.312   -10930997.949 6  -8399416.251 1
  20235116.507   -21505485.215 7 -16608795.695 3
  22704066.757    -4747950.432 5  -3589982.452 1
  19867093.515    -5314486.946 6  -4107354.266 3
  21979163.694    -8705035.551 5  -6564019.397 1
 91  4  5 22 34 14.9950000  0  6 18 11 02 16 19 06
  21497048.062     6435331.790 6   5025525.792 1
  21771228.241   -10927989.707 6  -8397072.179 1
  20227943.249   -21543174.046 7 -16638163.563 2
  22702926.132    -4753939.120 5  -3594648.989 1
  19866549.515    -5317341.772 6  -4109578.817 3
  21970329.155    -8751467.599 5  -6600200.116 1
 91  4  5 22 34 29.9950000  0  6 18 11 02 16 19 06
  21503549.640     6469496.349 6   5052147.396 1
  21771831.069   -10924833.103 6  -8394612.502 1
  20220785.983   -21580784.950 7 -16667470.706 3
  22701805.952    -4759807.230 5  -3599221.589 1
  19866021.202    -5320134.841 6  -4111755.249 3
  21961488.905    -8797894.252 5  -6636376.600 1
 91  4  5 22 34 44.9950000  0  6 18 11 02 16 19 06
  21510063.866     6503714.720 6   5078810.923 1
  21772457.983   -10921537.801 6  -8392044.754 1
  20213641.444   -21618327.498 7 -16696724.590 3
  22700714.671    -4765564.302 5  -3603707.670 1
  19865495.483    -5322875.563 6  -4113890.892 3
  21952656.624    -8844324.947 5  -6672556.272 1
 91  4  5 22 34 59.9950000  0  6 18 11 02 16 19 06
  21516583.937     6537991.777 6   5105520.181 1
  21773111.788   -10918099.003 6  -8389365.180 1
  20206510.624   -21655796.755 7 -16725921.357 3
  22699640.788    -4771205.381 5  -3608103.386 1
  19864983.726    -5325558.895 6  -4115981.818 3
  21943820.148    -8890754.835 5  -6708735.291 1
 91  4  5 22 35 14.9950000  0  6 18 11 02 16 19 06
  21523117.523     6572325.228 6   5132273.395 1
  21773794.272   -10914518.926 6  -8386575.531 1
  20199394.647   -21693194.534 7 -16755062.434 2
  22698593.671    -4776733.122 5  -3612410.736 1
  19864484.515    -5328186.687 6  -4118029.465 3
  21934985.913    -8937185.811 5  -6744915.175 1
 91  4  5 22 35 29.9950000  0  6 18 11 02 16 19 06
  21529662.499     6606724.320 6   5159077.739 1
  21774501.913   -10910788.163 6  -8383668.457 1
  20192295.374   -21730511.633 7 -16784140.643 3
  22697564.296    -4782138.067 5  -3616622.445 1
  19863994.905    -5330749.517 6  -4120026.495 3
  21926151.562    -8983608.323 5  -6781088.454 1
 91  4  5 22 35 44.9950000  0  6 18 11 02 16 19 06
  21536219.132     6641177.507 6   5185924.246 1
  21775240.562   -10906917.966 6  -8380652.742 1
  20185205.398   -21767759.353 7 -16813164.790 3
  22696557.398    -4787431.483 5  -3620747.210 1
  19863521.429    -5333258.444 6  -4121981.522 3
  21917317.335    -9030033.691 5  -6817263.973 1
 91  4  5 22 35 59.9950000  0  6 18 11 02 16 19 06
  21542788.202     6675689.264 6   5212816.387 1
  21776003.312   -10902904.007 6  -8377525.000 1
  20178131.296   -21804933.059 7 -16842131.268 3
  22695568.944    -4792608.854 5  -3624781.613 1
  19863056.765    -5335708.841 6  -4123890.935 3
  21908480.335    -9076457.371 5  -6853438.159 1
 91  4  5 22 36 14.9950000  0  6 18 11 02 16 19 06
  21549365.796     6710257.267 6   5239752.346 1
  21776794.491   -10898748.334 6  -8374286.830 1
  20171072.835   -21842034.734 7 -16871041.611 3
  22694602.023    -4797672.255 5  -3628727.153 1
  19862600.140    -5338102.366 6  -4125756.036 3
  21899649.483    -9122881.030 5  -6889612.350 1
 91  4  5 22 36 29.9950000  0  6 18 11 02 16 19 06
  21555954.726     6744876.821 6   5266728.483 1
  21777611.265   -10894455.570 6  -8370941.836 1
  20164023.491   -21879068.639 7 -16899899.147 3
  22693666.632    -4802626.386 5  -3632587.569 1
  19862155.163    -5340443.396 6  -4127580.229 3
  21890812.710    -9169309.229 5  -6925790.067 1
 91  4  5 22 36 44.9950000  0  6 18 11 02 16 19 06
  21562552.530     6779556.870 6   5293751.756 1
  21778455.507   -10890016.505 6  -8367482.846 1
  20156991.218   -21916025.397 7 -16928696.571 3
  22692742.921    -4807462.393 5  -3636355.949 1
  19861721.101    -5342722.736 6  -4129356.349 3
  21881979.827    -9215732.586 5  -6961964.007 1
 91  4  5 22 36 59.9950000  0  6 18 11 02 16 19 06
  21569161.890     6814286.287 6   5320813.491 1
  21779326.812   -10885442.061 6  -8363918.349 1
  20149971.187   -21952916.081 7 -16957442.501 3
  22691846.616    -4812191.098 5  -3640040.711 1
  19861295.257    -5344950.989 6  -4131092.665 3
  21873143.163    -9262161.706 5  -6998142.443 1
 91  4  5 22 37 14.9950000  0  6 18 11 02 16 19 06
  21575782.577     6849073.646 6   5347920.376 1
  21780224.608   -10880723.706 6  -8360241.725 1
  20142965.671   -21989731.807 7 -16986130.025 3
  22690964.007    -4816803.893 5  -3643635.139 1
  19860883.718    -5347119.321 6  -4132782.287 3
  21864308.382    -9308588.025 5  -7034318.726 1
 91  4  5 22 37 29.9950000  0  6 18 11 02 16 19 06
  21582413.413     6883914.006 6   5375068.569 1
  21781148.460   -10875866.365 6  -8356456.802 1
  20135972.937   -22026477.501 7 -17014762.979 3
  22690109.882    -4821305.899 5  -3647143.274 1
  19860482.687    -5349232.367 6  -4134428.835 3
  21855473.523    -9355016.181 5  -7070496.398 1
 91  4  5 22 37 44.9950000  0  6 18 11 02 16 19 06
  21589054.483     6918811.788 6   5402261.495 1
  21782100.116   -10870865.658 6  -8352560.159 1
  20128994.999   -22063148.431 7 -17043337.683 3
  22689272.687    -4825692.651 5  -3650561.580 1
  19860090.515    -5351285.379 6  -4136028.596 3
  21846639.179    -9401441.475 5  -7106671.863 1
 91  4  5 22 37 59.9950000  0  6 18 11 02 16 19 06
  21595703.374     6953762.521 6   5429495.680 1
  21783078.640   -10865725.804 6  -8348555.109 1
  20122030.007   -22099748.676 7 -17071857.300 3
  22688460.577    -4829968.337 5  -3653893.364 1
  19859707.866    -5353282.423 6  -4137584.752 3
  21837802.944    -9447868.188 5  -7142848.421 1
 91  4  5 22 38 14.9950000  0  6 18 11 02 16 19 06
  21602365.397     6988775.192 6   5456778.132 1
  21784084.155   -10860437.577 6  -8344434.436 1
  20115080.866   -22136268.827 7 -17100314.509 3
  22687676.194    -4834123.713 5  -3657131.374 1
  19859343.530    -5355214.022 6  -4139089.911 3
  21828970.398    -9494286.628 5  -7179018.541 1
 91  4  5 22 38 29.9950000  0  6 18 11 02 16 19 06
  21609037.546     7023838.960 6   5484100.414 1
  21785117.499   -10855011.804 6  -8340206.580 1
  20108141.765   -22172719.742 7 -17128717.764 3
  22686902.437    -4838169.928 5  -3660284.341 1
  19858985.522    -5357090.601 6  -4140552.192 3
  21820140.147    -9540707.627 5  -7215190.660 1
 91  4  5 22 38 44.9950000  0  6 18 11 02 16 19 06
  21615723.960     7058959.008 6   5511466.539 1
  21786176.616   -10849443.016 6  -8335867.283 1
  20101220.648   -22209095.746 7 -17157062.653 3
  22686153.890    -4842101.721 5  -3663348.128 1
  19858641.249    -5358906.640 6  -4141967.300 3
  21811307.952    -9587125.392 5  -7251360.266 1
 91  4  5 22 38 59.9950000  0  6 18 11 02 16 19 06
  21622419.038     7094150.920 6   5538888.651 1
  21787267.663   -10843715.639 6  -8331404.416 1
  20094316.257   -22245381.218 7 -17185336.998 3
  22685433.897    -4845903.290 5  -3666310.451 1
  19858310.749    -5360646.262 6  -4143322.867 3
  21802476.937    -9633524.283 5  -7287515.162 1
 91  4  5 22 39 14.9950000  0  6 18 11 02 16 19 06
  21629138.187     7129468.430 6   5566408.646 1
  21788396.624   -10837776.159 6  -8326776.274 1
  20087439.632   -22281522.394 7 -17213498.906 3
  22684746.241    -4849521.112 5  -3669129.607 1
  19858001.937    -5362255.695 6  -4144576.990 3
  21793660.483    -9679850.502 5  -7323613.426 1
 91  4  5 22 39 29.9950000  0  6 18 11 02 16 19 06
  21635871.812     7164840.258 6   5593970.962 1
  21789555.257   -10831695.469 6  -8322038.086 1
  20080575.530   -22317590.020 7 -17241603.495 3
  22684074.741    -4853026.045 5  -3671860.777 1
  19857705.515    -5363805.490 6  -4145784.636 3
  21784846.023    -9726174.749 5  -7359710.148 1
 91  4  5 22 39 44.9950000  0  6 18 11 02 16 19 06
  21642612.257     7200258.827 6   5621569.697 1
  21790737.694   -10825480.913 6  -8317195.593 1
  20073725.155   -22353591.185 7 -17269656.301 3
  22683427.405    -4856425.482 5  -3674509.760 1
  19857421.194    -5365302.785 6  -4146951.377 3
  21776023.663    -9772504.018 5  -7395810.806 1
 91  4  5 22 39 59.9950000  0  6 18 11 02 16 19 06
  21649361.202     7235734.566 6   5649212.974 1
  21791947.210   -10819122.348 6  -8312240.891 1
  20066888.522   -22389515.522 7 -17297649.244 3
  22682802.015    -4859709.512 5  -3677068.811 1
  19857147.476    -5366737.184 6  -4148069.113 3
  21767215.960    -9818828.067 5  -7431907.377 1
 91  4  5 22 40 14.9950000  0  6 18 11 02 16 19 06
  21656123.773     7271266.346 6   5676899.928 1
  21793184.476   -10812620.570 6  -8307174.603 1
  20060066.624   -22425363.826 7 -17325582.946 3
  22682201.124    -4862878.949 5  -3679538.596 1
  19856888.749    -5368109.154 6  -4149138.199 3
  21758400.452    -9865147.568 5  -7468000.412 1
 91  4  5 22 40 29.9950000  0  6 18 11 02 16 19 06
  21662894.937     7306843.866 6   5704622.517 1
  21794447.038   -10805985.708 6  -8302004.609 1
  20053257.968   -22461146.067 7 -17353465.159 3
  22681616.843    -4865943.835 5  -3681926.899 1
  19856637.218    -5369428.458 6  -4150166.246 3
  21749579.765    -9911472.302 5  -7504097.524 1
 91  4  5 22 40 44.9950000  0  6 18 11 02 16 19 06
  21669674.273     7342474.747 6   5732386.679 1
  21795735.296   -10799210.065 6  -8296724.913 1
  20046462.593   -22496854.505 7 -17381289.866 3
  22681048.405    -4868896.545 5  -3684227.773 1
  19856398.780    -5370687.386 6  -4151147.244 3
  21740768.124    -9957794.411 5  -7540192.579 1
 91  4  5 22 40 59.9950000  0  6 18 11 02 16 19 06
  21676467.976     7378163.818 6   5760196.188 1
  21797052.663   -10792288.926 6  -8291331.843 1
  20039682.632   -22532484.137 7 -17409053.162 3
  22680513.218    -4871732.310 5  -3686437.517 1
  19856170.507    -5371880.754 6  -4152077.161 3
  21731958.163   -10004108.887 5  -7576281.688 1
 91  4  5 22 41 14.9950000  0  6 18 11 02 16 19 06
  21683267.905     7413903.244 6   5788044.940 1
  21798396.577   -10785230.053 6  -8285831.452 1
  20032914.819   -22568042.513 7 -17436760.937 3
  22679995.116    -4874458.968 5  -3688562.255 1
  19855955.593    -5373016.204 6  -4152961.945 3
  21723140.358   -10050423.360 5  -7612370.802 1
 91  4  5 22 41 29.9950000  0  6 18 11 02 16 19 06
  21690078.202     7449696.595 6   5815935.699 1
  21799766.233   -10778029.573 6  -8280220.718 1
  20026164.444   -22603525.804 7 -17464410.209 3
  22679498.999    -4877072.734 5  -3690599.042 1
  19855750.702    -5374089.435 6  -4153798.251 3
  21714329.382   -10096733.595 5  -7648456.609 1
 91  4  5 22 41 44.9950000  0  6 18 11 02 16 19 06
  21696900.929     7485540.061 6   5843865.516 1
  21801162.163   -10770691.313 6  -8274502.629 1
  20019424.577   -22638937.525 7 -17492003.701 3
  22679016.030    -4879577.558 4  -3692550.951 1
  19855557.538    -5375104.091 6  -4154588.913 3
  21705513.413   -10143043.521 5  -7684542.173 1
 91  4  5 22 41 59.9950000  0  6 18 11 02 16 19 06
  21703730.687     7521431.883 6   5871833.018 1
  21802587.062   -10763216.699 6  -8268678.276 1
  20012699.374   -22674278.941 7 -17519542.422 3
  22678565.960    -4881974.940 5  -3694419.097 1
  19855375.507    -5376061.320 6  -4155334.827 3
  21696704.554   -10189354.021 5  -7720628.179 1
 91  4  5 22 42 14.9950000  0  6 18 11 02 16 19 06
  21710569.163     7557372.385 6   5899838.442 1
  21804034.288   -10755605.556 6  -8262747.542 1
  20005987.577   -22709549.863 7 -17547026.208 3
  22678134.335    -4884264.831 5  -3696203.518 1
  19855205.280    -5376960.646 6  -4156035.625 3
  21687891.218   -10235664.861 5  -7756714.454 1
 91  4  5 22 42 29.9950000  0  6 18 11 02 16 19 06
  21717420.694     7593373.296 6   5927890.945 1
  21805509.819   -10747845.935 6  -8256701.107 1
  19999291.655   -22744738.037 7 -17574445.509 3
  22677720.015    -4886435.231 5  -3697894.781 1
  19855047.655    -5377790.023 6  -4156681.912 3
  21679083.069   -10281963.865 5  -7792791.511 1
 91  4  5 22 42 44.9950000  0  6 18 11 02 16 19 06
  21724278.991     7629419.801 6   5955978.979 1
  21807012.272   -10739952.804 6  -8250550.646 1
  19992608.077   -22779858.215 7 -17601811.828 3
  22677325.280    -4888500.730 5  -3699504.357 1
  19854898.796    -5378563.790 6  -4157284.868 3
  21670270.905   -10328265.544 6  -7828870.647 1
 91  4  5 22 42 59.9950000  0  6 18 11 02 16 19 06
  21731146.952     7665522.068 6   5984110.458 1
  21808541.163   -10731915.796 6  -8244288.069 1
  19985939.155   -22814899.864 7 -17629116.956 3
  22676959.843    -4890451.234 5  -3701024.294 1
  19854763.710    -5379271.511 6  -4157836.357 3
  21661462.726   -10374559.499 6  -7864943.767 1
 91  4  5 22 43 14.9950000  0  6 18 11 02 16 19 06
  21738030.054     7701681.961 6   6012286.839 1
  21810098.733   -10723732.913 6  -8237911.819 1
  19979287.273   -22849860.781 7 -17656359.182 3
  22676606.858    -4892284.770 5  -3702453.122 1
  19854642.538    -5379910.900 6  -4158334.600 3
  21652655.765   -10420843.385 6  -7901009.034 1
 91  4  5 22 43 29.9950000  0  6 18 11 02 16 19 06
  21744922.648     7737890.282 6   6040500.959 1
  21811682.632   -10715413.073 6  -8231428.861 1
  19972648.976   -22884749.793 7 -17683545.373 3
  22676277.624    -4894010.396 5  -3703797.825 1
  19854532.585    -5380490.633 6  -4158786.358 3
  21643844.397   -10467125.973 6  -7937073.305 1
 91  4  5 22 43 44.9950000  0  6 18 11 02 16 19 06
  21751822.007     7774156.073 6   6068759.863 1
  21813293.452   -10706947.425 6  -8224832.276 1
  19966023.155   -22919557.764 7 -17710668.415 3
  22675974.991    -4895619.010 5  -3705051.363 1
  19854435.226    -5381001.531 6  -4159184.481 3
  21635040.523   -10513398.010 6  -7973129.344 1
 91  4  5 22 43 59.9950000  0  6 18 11 02 16 19 06
  21758732.515     7810462.460 6   6097050.375 1
  21814930.023   -10698352.742 6  -8218135.153 1
  19959413.460   -22954301.382 7 -17737741.311 3
  22675683.765    -4897127.670 5  -3706227.033 1
  19854348.343    -5381460.006 6  -4159541.750 3
  21626233.296   -10559676.119 6  -8009190.120 1
 91  4  5 22 44 14.9950000  0  6 18 11 02 16 19 06
  21765649.265     7846809.692 6   6125372.736 1
  21816589.374   -10689628.687 6  -8211337.215 1
  19952813.983   -22988980.214 7 -17764763.724 3
  22675413.694    -4898536.025 5  -3707324.533 1
  19854271.069    -5381865.472 6  -4159857.717 3
  21617425.593   -10605959.761 6  -8045255.206 1
 91  4  5 22 44 29.9950000  0  6 18 11 02 16 19 06
  21772573.069     7883198.588 6   6153727.566 1
  21818273.280   -10680774.515 6  -8204437.883 1
  19946227.530   -23023593.181 7 -17791734.815 3
  22675167.179    -4899843.332 4  -3708343.301 1
  19854203.124    -5382216.927 6  -4160131.602 3
  21608616.921   -10652247.961 6  -8081323.845 1
 91  4  5 22 44 44.9950000  0  6 18 11 02 16 19 06
  21779506.132     7919634.933 6   6182119.363 1
  21819986.874   -10671784.026 6  -8197432.336 1
  19939654.726   -23058133.967 7 -17818649.666 3
  22674933.929    -4901043.530 5  -3709278.572 1
  19854149.741    -5382507.913 6  -4160358.361 3
  21599810.069   -10698534.238 6  -8117390.991 1
 91  4  5 22 44 59.9950000  0  6 18 11 02 16 19 06
  21786448.108     7956119.618 6   6210548.819 1
  21821722.101   -10662656.493 6  -8190320.005 1
  19933095.280   -23092601.632 7 -17845507.534 3
  22674726.702    -4902135.938 4  -3710129.883 1
  19854103.976    -5382737.370 6  -4160537.181 3
  21591001.022   -10744817.610 6  -8153455.865 1
 91  4  5 22 45 14.9950000  0  6 18 11 02 16 19 06
  21793401.546     7992660.619 6   6239022.165 1
  21823486.632   -10653383.886 6  -8183094.612 1
  19926551.241   -23126988.190 7 -17872302.206 3
  22674545.507    -4903112.636 5  -3710891.037 1
  19854074.749    -5382896.995 6
  21582193.319   -10791089.705 6  -8189511.944 1
 91  4  5 22 45 29.9950000  0  6 18 11 02 16 19 06
  21800365.405     8029247.926 6   6267531.602 1
  21825275.694   -10643976.070 6  -8175763.875 1
  19920021.546   -23161303.187 7 -17899041.109 3
  22674380.710    -4903983.285 5  -3711569.527 1
  19854058.608    -5382996.375 6
  21573393.983   -10837360.278 6  -8225566.845 1
 91  4  5 22 45 44.9950000  0  6 18 11 02 16 19 06
  21807336.187     8065876.668 6   6296073.313 1
  21827091.421   -10634437.911 6  -8168331.569 1
  19913503.937   -23195551.029 7 -17925727.689 3
  22674232.351    -4904752.758 5  -3712169.197 1
  19854047.749    -5383039.871 6
  21564586.819   -10883633.675 6  -8261623.938 1
 91  4  5 22 45 59.9950000  0  6 18 11 02 16 19 06
  21814316.327     8102553.337 6   6324652.367 1
  21828933.155   -10624762.740 6  -8160792.503 1
  19907002.054   -23229725.199 7 -17952356.863 3
  22674101.437    -4905414.637 4  -3712685.032 1
  19854051.202    -5383020.623 6
  21555780.171   -10929903.239 6  -8297678.053 1
 91  4  5 22 46 14.9950000  0  6 18 11 02 16 19 06
  21821301.772     8139286.552 6   6353275.483 1
  21830802.398   -10614941.851 6  -8153139.902 1
  19900514.827   -23263816.841 7 -17978921.724 3
  22674001.077    -4905960.081 4  -3713110.124 1
  19854071.374    -5382929.806 6
  21546976.280   -10976159.902 6  -8333722.111 1
 91  4  5 22 46 29.9950000  0  6 18 11 02 16 19 06
  21828303.171     8176060.365 6   6381930.239 1
  21832694.726   -10604991.166 6  -8145386.147 1
  19894040.233   -23297841.571 7 -18005434.455 3
  22673928.812    -4906404.821 4  -3713456.782 1
  19854097.710    -5382782.856 6
  21538174.624   -11022419.348 6  -8369768.339 1
 91  4  5 22 46 44.9950000  0  6 18 11 02 16 19 06
  21835308.765     8212878.756 6   6410619.737 1
  21834614.007   -10594906.807 6  -8137528.236 1
  19887578.741   -23331795.286 7 -18031891.845 3
  22673850.991    -4906745.579 4  -3713722.393 1
  19854136.397    -5382575.667 6
  21529375.296   -11068677.433 6  -8405813.508 1
 91  4  5 22 46 59.9950000  0  6 18 11 02 16 19 06
  21842326.132     8249740.360 6   6439342.891 1
  21836558.265   -10584690.040 6  -8129567.145 1
  19881129.905   -23365679.013 7 -18058294.703 3
  22673804.257    -4906983.157 4  -3713907.591 1
  19854190.140    -5382308.952 6  -4160203.500 3
  21520569.022   -11114935.033 6  -8441858.299 1
 91  4  5 22 47 14.9950000  0  6 18 11 02 16 19 06
  21849346.608     8286637.919 6   6468094.066 1
  21838526.233   -10574347.955 6  -8121508.416 1
  19874694.093   -23399499.807 7 -18084648.521 3
  22673782.187    -4907124.653 4
  19854248.327    -5381989.708 6  -4159954.755 3
  21511760.608   -11161199.018 5  -8477908.064 1
 91  4  5 22 47 29.9950000  0  6 18 11 02 16 19 06
  21856375.265     8323580.822 6   6496880.590 1
  21840518.483   -10563871.103 6  -8113344.661 1
  19868272.999   -23433247.992 7 -18110945.756 3
  22673778.546    -4907161.039 5
  19854320.757    -5381608.161 6  -4159657.457 3
  21502966.866   -11207459.746 6  -8513955.298 1
 91  4  5 22 47 44.9950000  0  6 18 11 02 16 19 06
  21863415.257     8360566.060 6   6525700.076 1
  21842538.890   -10553262.186 6  -8105078.001 1
  19861862.304   -23466926.010 7 -18137188.322 3
  22673793.655    -4907094.977 5
  19854404.702    -5381166.841 6  -4159313.590 3
  21494157.437   -11253719.701 6  -8550001.927 1
 91  4  5 22 47 59.9950000  0  6 18 11 02 16 19 06
  21870463.327     8397601.468 6   6554558.667 1
  21844583.093   -10542513.585 6  -8096702.498 1
  19855470.741   -23500526.307 7 -18163370.324 3
  22673821.929    -4906918.904 4
  19854501.968    -5380657.784 6  -4158916.943 3
  21485357.398   -11299971.018 6  -8586041.811 1
 91  4  5 22 48 14.9950000  0  6 18 11 02 16 19 06
  21877517.327     8434683.035 6   6583453.233 1
  21846655.398   -10531629.113 6  -8088221.130 1
  19849090.093   -23534052.382 7 -18189494.491 3
  22673873.999    -4906636.410 4
  19854610.765    -5380084.459 6  -4158470.214 3
  21476557.827   -11346217.158 6  -8622077.683 1
 91  4  5 22 48 29.9950000  0  6 18 11 02 16 19 06
  21884582.319     8471806.079 6   6612380.106 1
  21848751.999   -10520613.554 6  -8079637.611 1
  19842722.999   -23567508.915 7 -18215564.469 3
  22673952.226    -4906252.622 4  -3713338.871 1
  19854733.280    -5379451.458 6  -4157976.984 3
  21467756.663   -11392462.556 6  -8658112.966 1
 91  4  5 22 48 44.9950000  0  6 18 11 02 16 19 06
  21891656.226     8508973.277 6   6641341.402 1
  21850873.038   -10509463.953 6  -8070949.651 1
  19836370.093   -23600892.820 7 -18241577.858 3
  22674042.452    -4905764.453 4  -3712958.581 1
  19854864.374    -5378755.585 6  -4157434.761 3
  21458958.491   -11438704.123 6  -8694145.272 1
 91  4  5 22 48 59.9950000  0  6 18 11 02 16 19 06
  21898737.546     8546182.339 6   6670335.295 1
  21853019.499   -10498182.588 6  -8062159.012 1
  19830030.382   -23634205.900 7 -18267536.057 3
  22674152.163    -4905174.144 4
  19855009.640    -5377998.667 6  -4156844.974 3
  21450159.960   -11484943.754 6  -8730176.049 1
 91  4  5 22 49 14.9950000  0  6 18 11 02 16 19 06
  21905827.648     8583438.959 6   6699366.249 1
  21855192.976   -10486763.801 6  -8053261.296 1
  19823705.476   -23667442.540 7 -18293434.695 3
  22674285.913    -4904476.004 4
  19855164.679    -5377174.780 6  -4156203.000 3
  21441361.937   -11531175.543 6  -8766200.735 1
 91  4  5 22 49 29.9950000  0  6 18 11 02 16 19 06
  21912923.015     8620742.114 5   6728433.472 1
  21857391.898   -10475208.684 6  -8044257.341 1
  19817396.421   -23700603.539 7 -18319274.390 3
  22674438.437    -4903671.222 4
  19855332.343    -5376284.494 6  -4155509.286 3
  21432562.507   -11577400.220 6  -8802219.859 1
 91  4  5 22 49 44.9950000  0  6 18 11 02 16 19 06
  21920031.687     8658084.865 6   6757531.535 1
  21859613.538   -10463523.962 6  -8035152.402 1
  19811098.960   -23733695.194 7 -18345060.053 3
  22674607.335    -4902766.414 4
  19855514.226    -5375334.387 6  -4154768.959 3
  21423768.210   -11623624.311 6  -8838238.537 1
 91  4  5 22 49 59.9950000  0  6 18 11 02 16 19 06
  21927148.179     8695474.291 6   6786665.980 1
  21861864.960   -10451702.524 6  -8025940.927 1
  19804814.632   -23766710.401 7 -18370786.143 3
  22674802.343    -4901754.522 5
  19855710.194    -5374316.926 6  -4153976.153 3
  21414975.921   -11669840.302 6  -8874250.914 1
 91  4  5 22 50 14.9950000  0  6 18 11 02 16 19 06
  21934268.335     8732904.386 6   6815832.114 1
  21864139.241   -10439750.368 6  -8016627.597 1
  19798546.397   -23799655.129 7 -18396457.322 3
  22675012.866    -4900641.874 4
  19855914.155    -5373237.796 6  -4153135.289 3
  21406179.476   -11716054.052 6  -8910261.534 1
 91  4  5 22 50 29.9950000  0  6 18 11 02 16 19 06
  21941398.726     8770373.229 6   6845028.429 1
  21866438.593   -10427669.433 6  -8007213.932 1
  19792290.187   -23832531.065 7 -18422074.890 3
  22675249.562    -4899430.313 5
  19856127.530    -5372098.812 6  -4152247.789 3
  21397385.796   -11762267.049 6  -8946271.566 1
 91  4  5 22 50 44.9950000  0  6 18 11 02 16 19 06
  21948538.858     8807880.765 6   6874254.914 1
  21868762.226   -10415459.482 6  -7997699.724 1
  19786046.843   -23865337.748 7 -18447638.497 3
  22675492.296    -4898119.525 4
  19856359.233    -5370899.536 6  -4151313.303 3
  21388592.023   -11808478.968 6  -8982280.773 1
 91  4  5 22 50 59.9950000  0  6 18 11 02 16 19 06
  21955684.882     8845427.578 6   6903511.977 1
  21871110.663   -10403119.855 6  -7988084.477 1
  19779817.702   -23898074.211 7 -18473147.386 3
  22675763.280    -4896708.943 4
  19856596.085    -5369638.776 6  -4150330.917 3
  21379798.929   -11854688.631 6  -9018288.209 1
 91  4  5 22 51 14.9950000  0  6 18 11 02 16 19 06
  21962835.968     8883016.203 6   6932801.646 1
  21873482.444   -10390648.282 6  -7978366.409 1
  19773601.851   -23930737.958 7 -18498599.620 3
  22676048.062    -4895196.414 4
  19856850.601    -5368313.891 6  -4149298.555 3
  21371008.288   -11900893.531 6  -9054291.946 1
 91  4  5 22 51 29.9950000  0  6 18 11 02 16 19 06
  21969996.866     8920650.143 5   6962126.616 1
  21875882.765   -10378041.031 6  -7968542.614 1
  19767401.960   -23963325.239 7 -18523992.261 3
  22676364.116    -4893578.248 4
  19857117.155    -5366920.883 6  -4148213.117 3
  21362214.858   -11947089.736 6  -9090288.898 1
 91  4  5 22 51 44.9950000  0  6 18 11 02 16 19 06
  21977164.796     8958316.956 5   6991477.187 1
  21878304.890   -10365310.542 6  -7958622.795 1
  19761212.116   -23995848.221 7 -18549334.802 3
  22676687.843    -4891866.875 4
  19857391.280    -5365471.936 6  -4147084.089 3
  21353427.741   -11993289.364 6  -9126288.522 1
 91  4  5 22 51 59.9950000  0  6 18 11 02 16 19 06
  21984340.499     8996033.240 5   7020866.321 1
  21880756.194   -10352440.209 6  -7948594.001 1
  19755038.374   -24028290.106 7 -18574614.158 3
  22677024.968    -4890045.513 4
  19857679.515    -5363950.091 6  -4145898.257 3
  21344632.960   -12039475.451 6  -9162277.594 1
 91  4  5 22 52 14.9950000  0  6 18 11 02 16 19 06
  21991524.304     9033779.494 5   7050278.801 1
  21883225.022   -10339449.509 6  -7938471.430 1
  19748875.546   -24060670.163 7 -18599845.327 3
  22677393.194    -4888133.826 4
  19857981.616    -5362374.467 6  -4144670.514 3
  21335844.968   -12085667.128 6  -9198271.025 1
 91  4  5 22 52 29.9950000  0  6 18 11 02 16 19 06
  21998716.226     9071560.538 6   7079718.370 1
  21885722.257   -10326333.636 6  -7928251.313 1
  19742727.476   -24092983.392 7 -18625024.434 3
  22677785.944    -4886126.839 5
  19858290.937    -5360739.912 6  -4143396.860 3
  21327051.968   -12131859.484 6  -9234264.981 1
 91  4  5 22 52 44.9950000  0  6 18 11 02 16 19 06
  22005914.163     9109383.763 5   7109190.845 1
  21888245.046   -10313084.852 6  -7917927.631 1
  19736593.148   -24125221.766 7 -18650145.207 3
  22678177.515    -4884017.086 4
  19858615.335    -5359038.394 6  -4142071.020 3
  21318266.241   -12178044.231 6  -9270253.008 1
 91  4  5 22 52 59.9950000  0  6 18 11 02 16 19 06
  22013119.757     9147251.866 5   7138698.256 1
  21890791.358   -10299700.649 6  -7907498.434 1
  19730473.241   -24157382.700 7 -18675205.643 3
  22678605.148    -4881802.039 4
  19858952.952    -5357266.947 6  -4140690.690 3
  21309478.687   -12224218.697 6  -9306233.030 1
 91  4  5 22 53 14.9950000  0  6 18 11 02 16 19 06
  22020331.405     9185151.626 6   7168230.351 1
  21893361.038   -10286194.351 6  -7896974.081 1
  19724364.819   -24189479.326 7 -18700215.962 3
  22679042.679    -4879495.001 4
  19859301.679    -5355438.848 6  -4139266.221 3
  21300693.046   -12270395.821 6  -9342215.120 1
 91  4  5 22 53 29.9950000  0  5 18 11 02 19 06
  22027550.233     9223083.697 5   7197787.619 1
  21895954.343   -10272564.853 6  -7886353.735 1
  19718269.218   -24221510.217 7 -18725175.059 3
  19859658.077    -5353552.568 6  -4137796.415 3
  21291902.515   -12316574.232 6  -9378198.208 1
 91  4  5 22 53 44.9950000  0  5 18 11 02 19 06
  22034775.202     9261054.854 5   7227375.349 1
  21898573.796   -10258805.590 6  -7875632.272 1
  19712188.523   -24253468.620 7 -18750077.678 3
  19860031.460    -5351601.199 6  -4136275.885 3
  21283113.163   -12362747.050 6  -9414176.948 1
 91  4  5 22 53 59.9950000  0  5 18 11 02 19 06
  22042007.718     9299070.020 5   7256997.367 1
  21901215.741   -10244911.619 6  -7864805.837 1
  19706120.257   -24285349.377 7 -18774919.792 3
  19860414.054    -5349579.339 6  -4134700.431 3
  21274331.999   -12408908.929 6  -9450147.156 1
 91  4  5 22 54 14.9950000  0  5 18 11 02 19 06
  22049250.132     9337127.391 5   7286652.266 1
  21903886.233   -10230884.972 6  -7853876.030 1
  19700069.733   -24317154.335 7 -18799702.842 3
  19860814.304    -5347488.773 6  -4133071.441 3
  21265550.546   -12455061.588 6  -9486110.197 1
 91  4  5 22 54 29.9950000  0  5 18 11 02 19 06
  22056498.499     9375213.079 5   7316329.240 1
  21906577.640   -10216739.137 6  -7842853.357 1
  19694028.726   -24348896.813 7 -18824437.203 3
  19861220.460    -5345342.648 6  -4131399.155 3
  21256768.062   -12501218.147 6  -9522076.268 1
 91  4  5 22 54 44.9950000  0  5 18 11 02 19 06
  22063753.765     9413334.702 5   7346034.204 1
  21909294.538   -10202466.473 6  -7831731.845 1
  19688001.991   -24380568.812 7 -18849116.647 3
  19861643.007    -5343132.905 6  -4129677.295 3
  21247984.640   -12547370.782 6  -9558039.280 1
 91  4  5 22 54 59.9950000  0  5 18 11 02 19 06
  22071014.437     9451488.957 5   7375764.604 1
  21912033.101   -10188070.592 6  -7820514.317 1
  19681986.077   -24412173.784 7 -18873743.863 3
  19862074.351    -5340862.747 6  -4127908.366 3
  21239201.444   -12593522.614 6  -9594001.657 1
 91  4  5 22 55 14.9950000  0  5 18 11 02 19 06
  22078285.030     9489691.995 5   7405533.009 1
  21914800.116   -10173534.965 6  -7809187.900 1
  19675988.124   -24443695.052 7 -18898305.853 3
  19862521.702    -5338515.346 6  -4126079.245 3
  21230424.804   -12639656.837 6  -9629950.322 1
 91  4  5 22 55 29.9950000  0  5 18 11 02 19 06
  22085562.366     9527937.458 5   7435334.453 1
  21917591.663   -10158865.728 6  -7797757.366 1
  19670006.507   -24475138.593 7 -18922807.274 3
  19862980.507    -5336096.911 6  -4124194.769 3
  21221647.421   -12685779.401 6  -9665889.894 1
 91  4  5 22 55 44.9950000  0  5 18 11 02 19 06
  22092843.976     9566209.724 5   7465156.811 1
  21920405.148   -10144078.724 6  -7786235.079 1
  19664033.319   -24506520.068 7 -18947260.336 3
  19863453.093    -5333622.771 6  -4122266.887 3
  21212865.687   -12731905.867 6  -9701832.525 1
 91  4  5 22 55 59.9950000  0  5 18 11 02 19 06
  22100133.179     9604520.053 5   7495008.816 1
  21923244.491   -10129162.739 6  -7774612.279 1
  19658076.327   -24537827.975 7 -18971656.069 3
  19863935.108    -5331081.320 6  -4120286.554 3
  21204091.702   -12778024.583 6  -9737769.098 1
 91  4  5 22 56 14.9950000  0  5 18 11 02 19 06
  22107431.116     9642856.548 5   7524881.194 1
  21926103.944   -10114129.652 6  -7762898.230 1
  19652129.827   -24569074.050 7 -18996003.624 3
  19864430.288    -5328484.021 6  -4118262.707 3
  21195316.163   -12824146.929 6  -9773708.515 1
 91  4  5 22 56 29.9950000  0  5 18 11 02 19 06
  22114734.804     9681239.490 5   7554789.802 1
  21928990.944   -10098958.996 6  -7751076.989 1
  19646199.601   -24600237.605 7 -19020286.879 3
  19864939.640    -5325809.986 6  -4116179.062 3
  21186542.968   -12870252.246 6  -9809634.665 1
 91  4  5 22 56 44.9940000  0  5 18 11 02 19 06
  22122049.330     9719667.487 5   7584733.483 1
  21931904.119   -10083650.858 6  -7739148.619 1
  19640287.057   -24631315.440 7 -19044503.336 3
  19865463.697    -5323058.333 6  -4114034.936 3
  21177771.479   -12916336.088 6  -9845544.071 1
 91  4  5 22 56 59.9940000  0  5 18 11 02 19 06
  22129368.369     9758137.489 5   7614709.903 1
  21934842.916   -10068211.207 6  -7727117.763 1
  19634386.166   -24662319.379 7 -19068662.207 3
  19865999.783    -5320236.467 6  -4111836.101 3
  21169006.119   -12962412.535 6  -9881447.728 1
 91  4  5 22 57 14.9940000  0  5 18 11 02 19 06
  22136694.072     9796636.344 5   7644708.817 1
  21937804.127   -10052651.460 6  -7714993.330 1
  19628498.744   -24693257.548 7 -19092769.834 3
  19866548.791    -5317354.440 6  -4109590.385 3
  21160239.190   -13008488.409 6  -9917350.920 1
 91  4  5 22 57 29.9940000  0  5 18 11 02 19 06
  22144027.666     9835160.188 5   7674727.200 1
  21940786.690   -10036975.675 6  -7702778.484 1
  19622623.588   -24724133.815 7 -19116829.227 3
  19867107.440    -5314415.985 6  -4107300.704 3
  21151467.096   -13054567.476 6  -9953256.616 1
 91  4  5 22 57 44.9940000  0  5 18 11 02 19 06
  22151362.330     9873716.674 5   7704771.012 1
  21943793.674   -10021176.116 6  -7690467.179 1
  19616760.729   -24754940.289 7 -19140834.229 3
  19867679.658    -5311413.132 6  -4104960.842 3
  21142698.963   -13100641.615 6  -9989158.471 1
 91  4  5 22 57 59.9940000  0  5 18 11 02 19 06
  22158706.908     9912299.883 5   7734835.628 1
  21946822.635   -10005258.450 6  -7678063.851 1
  19610910.775   -24785682.396 7 -19164789.077 3
  19868263.791    -5308351.104 6  -4102574.874 3
  21133933.361   -13146716.158 6 -10025060.643 1
 91  4  5 22 58 14.9940000  0  5 18 11 02 19 06
  22166054.690     9950917.345 5   7764926.957 1
  21949874.229    -9989215.300 6  -7665562.746 1
  19605073.775   -24816352.389 7 -19188687.730 3
  19868857.307    -5305222.162 6  -4100136.761 3
  21125164.244   -13192783.321 6 -10060957.060 1
 91  4  5 22 58 29.9940000  0  5 18 11 02 19 06
  22173410.408     9989569.792 5   7795045.535 1
  21952952.768    -9973046.121 6  -7652963.427 1
  19599251.744   -24846949.638 7 -19212529.698 3
  19869465.502    -5302025.445 6  -4097645.836 3
  21116401.166   -13238842.257 6 -10096847.077 1
 91  4  5 22 58 44.9940000  0  5 18 11 02 19 06
  22180770.486    10028253.063 5   7825188.147 1
  21956051.236    -9956755.081 6  -7640269.153 1
  19593443.127   -24877477.951 7 -19236317.954 3
  19870085.705    -5298764.745 6  -4095105.053 3
  21107635.510   -13284896.797 6 -10132733.654 1
 91  4  5 22 58 59.9940000  0  5 18 11 02 19 06
  22188137.916    10066959.328 5   7855348.665 1
  21959173.760    -9940349.823 6  -7627485.885 1
  19587644.869   -24907944.958 7 -19260058.434 3
  19870716.565    -5295447.321 6  -4092520.070 3
  21098875.721   -13330954.143 6 -10168622.421 1
 91  4  5 22 59 14.9940000  0  5 18 11 02 19 06
  22195507.072    10105691.014 5   7885528.975 1
  21962317.650    -9923827.889 6  -7614611.694 1
  19581859.041   -24938347.890 7 -19283748.989 3
  19871359.604    -5292070.532 6  -4089888.830 3
  21090109.182   -13377011.532 6 -10204511.224 1
 91  4  5 22 59 29.9940000  0  5 18 11 02 19 06
  22202883.838    10144453.687 5   7915733.430 1
  21965485.588    -9907183.764 6  -7601642.302 1
  19576088.260   -24968680.977 7 -19307385.120 3
  19872016.830    -5288628.448 6  -4087206.711 3
  21081345.354   -13423063.036 6 -10240395.441 1
 91  4  5 22 59 44.9940000  0  5 18 11 02 19 06
  22210269.799    10183246.232 5   7945961.196 1
  21968674.721    -9890418.341 6  -7588578.391 1
  19570328.486   -24998944.810 7 -19330967.282 3
  19872681.822    -5285121.554 6  -4084474.091 3
  21072584.689   -13469109.371 6 -10276275.628 1
 91  4  5 22 59 59.9940000  0  5 18 11 02 19 06
  22217655.830    10222064.529 5   7976209.017 1
  21971888.940    -9873535.957 6  -7575423.333 1
  19564581.799   -25029143.679 7 -19354498.821 3
  19873359.588    -5281553.942 6  -4081694.161 3
  21063819.690   -13515154.445 6 -10312154.842 1
 91  4  5 23  0 14.9940000  0  5 18 11 02 19 06
  22225047.158    10260911.926 5   8006479.473 1
  21975122.721    -9856533.094 6  -7562174.404 1
  19558847.393   -25059274.040 7 -19377976.981 3
  19874052.736    -5277921.707 6  -4078863.872 3
  21055059.299   -13561194.416 6 -10348030.075 1
 91  4  5 23  0 29.9940000  0  5 18 11 02 19 06
  22232445.057    10299793.857 5   8036776.896 1
  21978383.518    -9839404.315 6  -7548827.356 1
  19553128.236   -25089330.181 7 -19401397.306 3
  19874755.736    -5274219.058 6  -4075978.717 3
  21046300.025   -13607223.401 6 -10383896.745 1
 91  4  5 23  0 44.9940000  0  5 18 11 02 19 06
  22239847.190    10338701.018 5   8067093.945 1
  21981666.268    -9822158.865 6  -7535389.401 1
  19547421.174   -25119320.982 7 -19424766.718 3
  19875473.744    -5270454.843 6  -4073045.594 3
  21037541.877   -13653250.274 6 -10419761.772 1
 91  4  5 23  0 59.9940000  0  5 18 11 02 19 06
  22247254.291    10377634.993 5   8097431.878 1
  21984970.229    -9804795.336 6  -7521859.431 1
  19541726.018   -25149244.540 7 -19448083.733 3
  19876203.424    -5266627.402 6  -4070063.203 3
  21028782.705   -13699273.381 6 -10455623.870 1
 91  4  5 23  1 14.9940000  0  5 18 11 02 19 06
  22254673.768    10416596.201 5   8127791.056 1
  21988295.627    -9787313.237 6  -7508237.061 1
  19536044.580   -25179100.387 7 -19471347.989 3
  19876943.549    -5262735.930 6  -4067030.908 3
  21020025.190   -13745291.759 6 -10491482.273 1
 91  4  5 23  1 29.9940000  0  5 18 11 02 19 06
  22262091.635    10455579.877 5   8158167.738 1
  21991644.604    -9769717.385 6  -7494526.048 1
  19530376.736   -25208893.102 7 -19494563.045 3
  19877696.572    -5258784.814 6  -4063952.148 3
  21011269.447   -13791309.942 6 -10527340.530 1
 91  4  5 23  1 44.9940000  0  5 18 11 02 19 06
  22269515.088    10494593.086 5   8188567.413 1
  21995015.658    -9752000.433 6  -7480720.679 1
  19524720.838   -25238615.202 7 -19517723.083 3
  19878459.393    -5254766.571 6  -4060821.079 3
  21002513.713   -13837320.242 6 -10563192.649 1
 91  4  5 23  1 59.9940000  0  5 18 11 02 19 06
  22276943.065    10533630.456 5   8218985.938 1
  21998408.596    -9734168.221 6  -7466825.501 1
  19519076.307   -25268272.037 7 -19540832.260 3
  19879235.307    -5250686.418 6  -4057641.772 3
  20993757.236   -13883327.943 6 -10599042.735 1
 91  4  5 23  2 14.9940000  0  5 18 11 02 19 06
  22284378.088    10572701.857 5   8249430.976 1
  22001825.932    -9716210.576 6  -7452832.572 1
  19513447.439   -25297853.234 7 -19563882.496 3
  19880025.830    -5246533.927 6  -4054406.091 3
  20985006.190   -13929322.602 6 -10634882.660 1
 91  4  5 23  2 29.9940000  0  5 18 11 02 19 06
  22291818.924    10611800.080 5   8279896.903 1
  22005264.322    -9698134.675 6  -7438747.519 1
  19507831.299   -25327365.874 7 -19586879.314 3
  19880828.627    -5242315.870 6  -4051119.322 3
  20976256.221   -13975311.031 6 -10670717.726 1
 91  4  5 23  2 44.9940000  0  5 18 11 02 19 06
  22299263.322    10650931.051 5   8310388.373 1
  22008730.158    -9679934.716 6  -7424565.783 1
  19502230.291   -25356803.726 7 -19609817.859 3
  19881644.869    -5238025.899 6  -4047776.517 3
  20967505.424   -14021286.953 6 -10706543.049 1
 91  4  5 23  2 59.9940000  0  5 18 11 02 19 06
  22306717.260    10690088.625 5   8340900.573 1
  22012215.635    -9661616.750 6  -7410292.102 1
  19496642.565   -25386173.007 7 -19632702.973 3
  19882472.346    -5233669.964 6  -4044382.311 3
  20958757.916   -14067256.191 6 -10742363.165 1
 91  4  5 23  3 14.9940000  0  5 18 11 02 19 06
  22314175.525    10729275.277 5   8371435.410 1
  22015723.908    -9643178.508 6  -7395924.695 1
  19491065.713   -25415470.943 7 -19655532.495 3
  19883315.346    -5229245.310 6  -4040934.558 3
  20950014.018   -14113216.051 6 -10778175.970 1
 91  4  5 23  3 29.9940000  0  5 18 11 02 19 06
  22321637.377    10768478.391 5   8401983.056 1
  22019253.869    -9624632.420 6  -7381473.252 1
  19485501.861   -25444709.714 7 -19678315.909 3
  19884166.018    -5224763.945 6  -4037442.612 3
  20941266.041   -14159178.385 6 -10813990.699 1
 91  4  5 23  3 44.9940000  0  5 18 11 02 19 06
  22329100.197    10807706.742 5   8432550.398 1
  22022804.565    -9605969.527 6  -7366930.796 1
  19479950.221   -25473880.282 7 -19701046.177 3
  19885033.119    -5220216.768 6  -4033899.388 3
  20932523.455   -14205134.105 6 -10849800.273 1
 91  4  5 23  3 59.9940000  0  5 18 11 02 19 06
  22336570.158    10846961.238 5   8463138.111 1
  22026378.354    -9587189.049 6  -7352296.716 1
  19474412.479   -25502981.630 7 -19723722.509 3
  19885913.838    -5215602.594 6  -4030303.954 3
  20923777.744   -14251082.054 6 -10885603.795 1
 91  4  5 23  4 14.9940000  0  5 18 11 02 19 06
  22344045.588    10886239.191 5   8493744.109 1
  22029973.994    -9568293.529 6  -7337572.981 1
  19468887.775   -25532015.913 7 -19746346.585 3
  19886802.174    -5210923.613 6  -4026658.022 3
  20915035.940   -14297024.261 6 -10921402.844 1
 91  4  5 23  4 29.9940000  0  5 18 11 02 19 06
  22351522.221    10925539.624 5   8524367.625 1
  22033591.596    -9549284.410 6  -7322760.741 1
  19463374.666   -25560984.514 7 -19768919.475 3
  19887702.533    -5206180.752 6  -4022962.315 3
  20906294.291   -14342961.753 6 -10957198.218 1
 91  4  5 23  4 44.9940000  0  5 18 11 02 19 06
  22359006.557    10964866.239 5   8555011.512 1
  22037232.252    -9530157.665 6  -7307856.849 1
  19457875.049   -25589883.091 7 -19791437.808 3
  19888619.971    -5201369.784 6  -4019213.536 3
  20897552.557   -14388890.154 6 -10992986.498 1
 91  4  5 23  4 59.9940000  0  5 18 11 02 19 06
  22366495.283    11004219.408 5   8585676.130 1
  22040893.447    -9510912.984 6  -7292861.070 1
  19452389.150   -25618711.042 7 -19813901.106 3
  19889546.260    -5196489.930 6  -4015411.084 3
  20888817.072   -14434808.832 6 -11028767.213 1
 91  4  5 23  5 14.9940000  0  5 18 11 02 19 06
  22373988.650    11043593.714 5   8616357.208 1
  22044576.447    -9491555.777 6  -7277777.602 1
  19446917.541   -25647473.512 7 -19836313.382 3
  19890488.268    -5191546.268 6  -4011558.909 3
  20880077.783   -14480722.753 6 -11064544.217 1
 91  4  5 23  5 29.9940000  0  5 18 11 02 19 06
  22381485.830    11082988.632 5   8647054.304 1
  22048282.533    -9472086.731 6  -7262606.976 1
  19441455.643   -25676170.837 7 -19858674.891 3
  19891441.908    -5186539.290 6  -4007657.397 3
  20871341.346   -14526632.179 6 -11100317.714 1
 91  4  5 23  5 44.9940000  0  5 18 11 02 19 06
  22388988.252    11122411.549 5   8677773.253 1
  22052010.455    -9452498.255 6  -7247343.283 1
  19436007.611   -25704795.339 7 -19880979.661 3
  19892408.557    -5181461.039 6  -4003700.345 3
  20862607.150   -14572529.213 6 -11136081.554 1
 91  4  5 23  5 59.9940000  0  5 18 11 02 19 06
  22396493.479    11161854.301 5   8708507.626 1
  22055757.635    -9432798.644 6  -7231993.006 1
  19430573.986   -25733355.066 7 -19903233.957 3
  19893386.166    -5176319.276 6  -3999693.800 3
  20853876.596   -14618421.675 6 -11171841.833 1
 91  4  5 23  6 14.9940000  0  5 18 11 02 19 06
  22404002.119    11201314.493 5   8739255.617 1
  22059528.611    -9412990.410 6  -7216558.082 1
  19425152.275   -25761852.251 7 -19925439.516 3
  19894377.900    -5171116.263 6  -3995639.529 3
  20845141.705   -14664311.660 6 -11207600.178 1
 91  4  5 23  6 29.9940000  0  5 18 11 02 19 06
  22411516.838    11240806.720 5   8770028.591 1
  22063321.080    -9393058.883 6  -7201027.083 1
  19419743.588   -25790272.044 7 -19947584.775 3
  19895380.283    -5165836.855 6  -3991525.733 3
  20836412.197   -14710184.209 6 -11243344.937 1
 91  4  5 23  6 44.9940000  0  5 18 11 02 19 06
  22419036.127    11280315.917 5   8800814.739 1
  22067134.471    -9373018.961 6  -7185411.623 1
  19414346.244   -25818629.262 7 -19969681.264 3
  19896397.666    -5160495.667 6  -3987363.793 3
  20827685.244   -14756053.782 6 -11279087.373 1
 91  4  5 23  6 59.9940000  0  5 18 11 02 19 06
  22426559.877    11319846.249 5   8831617.356 1
  22070969.010    -9352866.709 6  -7169708.627 1
  19408963.338   -25846919.450 7 -19991725.530 3
  19897425.307    -5155088.406 6  -3983150.373 3
  20818957.033   -14801916.003 6 -11314824.092 1
 91  4  5 23  7 14.9940000  0  5 18 11 02 19 06
  22434083.690    11359393.855 5   8862433.440 1
  22074825.893    -9332605.704 6  -7153920.890 1
  19403591.424   -25875146.084 7 -20013720.271 3
  19898468.119    -5149618.101 6  -3978887.824 3
  20810230.658   -14847774.029 6 -11350557.535 1
 91  4  5 23  7 29.9940000  0  5 18 11 02 19 06
  22441613.408    11398964.043 5   8893267.140 1
  22078702.275    -9312231.056 6  -7138044.608 1
  19398233.760   -25903304.198 7 -20035661.623 3
  19899521.854    -5144079.684 6  -3974572.201 3
  20801505.322   -14893622.638 6 -11386283.634 1
 91  4  5 23  7 44.9940000  0  5 18 11 02 19 06
  22449149.658    11438559.298 5   8924120.378 1
  22082600.799    -9291740.035 6  -7122077.646 1
  19392888.338   -25931390.647 7 -20057547.127 3
  19900589.994    -5138470.141 6  -3970201.153 3
  20792783.096   -14939458.754 6 -11422000.005 1
 91  4  5 23  7 59.9940000  0  5 18 11 02 19 06
  22456680.596    11478168.147 5   8954984.176 1
  22086520.744    -9271144.307 6  -7106029.094 1
  19387556.057   -25959416.830 7 -20079385.675 3
  19901668.088    -5132800.602 6  -3965783.356 3
  20784059.807   -14985293.431 6 -11457715.251 1
 91  4  5 23  8 14.9940000  0  5 18 11 02 19 06
  22464223.924    11517794.087 5   8985861.291 1
  22090462.025    -9250440.150 6  -7089896.053 1
  19382232.244   -25987378.706 7 -20101174.110 3
  19902760.932    -5127066.947 6  -3961315.605 3
  20775341.283   -15031122.664 6 -11493426.249 1
 91  4  5 23  8 29.9940000  0  5 18 11 02 19 06
  22471771.338    11557445.167 5   9016758.037 1
  22094423.416    -9229619.674 6  -7073672.361 1
  19376927.830   -26015268.162 7 -20122906.120 3
  19903863.455    -5121261.089 6  -3956791.584 3
  20766620.940   -15076938.134 6 -11529126.525 1
 91  4  5 23  8 44.9940000  0  5 18 11 02 19 06
  22479319.150    11597111.378 5   9047666.548 1
  22098404.963    -9208692.805 6  -7057365.772 1
  19371633.416   -26043094.922 7 -20144589.271 3
  19904981.119    -5115392.439 6  -3952218.638 2
  20757903.416   -15122749.324 6 -11564823.481 1
 91  4  5 23  8 59.9940000  0  5 18 11 02 19 06
  22486870.385    11636789.654 5   9078584.450 1
  22102407.213    -9187662.782 6  -7040978.811 1
  19366348.861   -26070861.997 7 -20166225.916 3
  19906108.666    -5109464.067 6  -3947599.157 3
  20749186.229   -15168559.150 6 -11600519.356 1
 91  4  5 23  9 14.9940000  0  5 18 11 02 19 06
  22494429.455    11676493.401 5   9109522.222 1
  22106429.908    -9166515.945 6  -7024500.821 1
  19361078.768   -26098555.641 7 -20187805.345 3
  19907252.088    -5103461.894 6  -3942922.167 3
  20740472.463   -15214353.523 6 -11636203.206 1
 91  4  5 23  9 29.9940000  0  5 18 11 02 19 06
  22501989.197    11716220.929 5   9140478.515 1
  22110477.127    -9145254.122 6  -7007933.236 1
  19355822.275   -26126177.370 7 -20209328.730 3
  19908405.369    -5097387.408 6  -3938188.828 3
  20731759.854   -15260133.717 6 -11671875.999 1
 91  4  5 23  9 44.9940000  0  5 18 11 02 19 06
  22509550.330    11755960.507 5   9171444.188 1
  22114543.830    -9123889.511 6  -6991285.552 1
  19350576.229   -26153739.090 7 -20230805.370 3
  19909575.697    -5091252.375 6  -3933408.318 3
  20723049.822   -15305911.681 6 -11707547.061 1
 91  4  5 23  9 59.9940000  0  5 18 11 02 19 06
  22517117.455    11795722.140 5   9202427.038 1
  22118629.424    -9102411.771 6  -6974549.715 1
  19345345.174   -26181230.103 7 -20252226.906 3
  19910754.908    -5085045.973 6  -3928572.193 3
  20714338.877   -15351676.549 6 -11743207.916 1
 91  4  5 23 10 14.9940000  0  5 18 11 02 19 06
  22524687.268    11835502.927 5   9233424.853 1
  22122737.283    -9080823.796 6  -6957727.970 1
  19340126.354   -26208653.180 7 -20273595.502 3
  19911950.971    -5078770.762 6  -3923682.448 3
  20705632.572   -15397430.893 6 -11778860.571 1
 91  4  5 23 10 29.9940000  0  5 18 11 02 19 06
  22532260.627    11875299.747 5   9264435.154 1
  22126866.604    -9059128.488 6  -6940822.593 1
  19334920.471   -26236010.918 7 -20294913.186 3
  19913158.104    -5072429.352 6  -3918741.120 3
  20696928.955   -15443177.157 6 -11814506.920 1
 91  4  5 23 10 44.9940000  0  5 18 11 02 19 06
  22539837.213    11915115.003 5   9295459.794 1
  22131016.736    -9037323.749 6  -6923831.944 1
  19329728.025   -26263300.861 7 -20316178.045 3
  19914376.994    -5066019.194 6  -3913746.224 3
  20688225.744   -15488912.815 6 -11850145.018 1
 91  4  5 23 10 59.9940000  0  5 18 11 02 19 06
  22547418.838    11954947.384 5   9326497.767 1
  22135186.190    -9015411.117 6  -6906757.225 1
  19324547.557   -26290524.414 7 -20337391.173 3
  19915608.791    -5059541.547 6  -3908698.743 3
  20679522.893   -15534638.859 6 -11885775.619 1
 91  4  5 23 11 14.9940000  0  5 18 11 02 19 06
  22554999.041    11994796.073 5   9357548.524 1
  22139375.057    -8993391.050 6  -6889598.777 1
  19319379.900   -26317681.838 7 -20358552.770 3
  19916855.104    -5052996.424 6  -3903598.679 3
  20670824.424   -15580355.418 6 -11921398.827 1
 91  4  5 23 11 29.9940000  0  5 18 11 02 19 06
  22562584.940    12034663.914 5   9388614.148 1
  22143587.807    -8971260.678 6  -6872354.392 1
  19314226.096   -26344770.004 7 -20379660.402 3
  19918113.994    -5046380.642 6  -3898443.563 3
  20662127.799   -15626059.090 6 -11957012.000 1
 91  4  5 23 11 44.9940000  0  5 18 11 02 19 06
  22570172.049    12074540.038 5   9419686.238 1
  22147818.690    -8949031.289 6  -6855032.843 1
  19309081.369   -26371799.899 7 -20400722.622 3
  19919384.682    -5039705.010 6  -3893241.804 2
  20653427.940   -15671760.865 6 -11992623.688 1
 91  4  5 23 11 59.9940000  0  5 18 11 02 19 06
  22577762.979    12114429.332 4   9450768.569 1
  22152067.744    -8926697.799 6  -6837630.178 1
  19303949.502   -26398766.003 7 -20421735.144 3
  19920670.658    -5032964.110 6  -3887989.191 2
  20644733.721   -15717455.197 6 -12028229.581 1
 91  4  5 23 12 14.9940000  0  5 18 11 02 19 06
  22585358.650    12154326.864 5   9481857.302 1
  22156336.877    -8904265.446 6  -6820150.484 1
  19298828.580   -26425673.363 7 -20442701.888 3
  19921961.775    -5026162.932 6  -3882689.606 2
  20636038.846   -15763146.890 6 -12063833.420 1
 91  4  5 23 12 29.9940000  0  5 18 11 02 19 06
  22592956.424    12194238.823 5   9512957.327 1
  22160626.330    -8881727.811 5  -6802588.755 1
  19293720.971   -26452515.525 7 -20463617.829 3
  19923268.682    -5019294.678 6  -3877337.750 2
  20627346.432   -15808829.202 6 -12099429.939 1
 91  4  5 23 12 44.9940000  0  5 18 11 02 19 06
  22600554.830    12234170.553 5   9544072.778 1
  22164935.815    -8859079.420 5  -6784940.716 1
  19288626.815   -26479286.754 7 -20484478.496 3
  19924590.338    -5012353.502 6  -3871929.072 3
  20618656.291   -15854496.156 6 -12135014.504 1
 91  4  5 23 12 59.9940000  0  5 18 11 02 19 06
  22608157.947    12274121.249 3   9575202.958 1
  22169264.158    -8836321.234 6  -6767207.118 1
  19283547.432   -26505987.674 7 -20505284.382 3
  19925923.744    -5005339.837 6  -3866463.914 3
  20609967.635   -15900148.115 6 -12170587.374 1
 91  4  5 23 13 14.9940000  0  5 18 11 02 19 06
  22615763.369    12314084.702 4   9606343.027 1
  22173616.369    -8813459.753 6  -6749393.029 1
  19278477.018   -26532624.463 7 -20526040.293 3
  19927271.869    -4998259.841 6  -3860947.068 2
  20601283.018   -15945791.203 6 -12206153.328 1
 91  4  5 23 13 29.9940000  0  5 18 11 02 19 06
  22623366.900    12354057.320 4   9637490.302 1
  22177985.416    -8790498.568 6  -6731501.259 1
  19273419.283   -26559200.621 7 -20546748.958 3
  19928631.736    -4991116.610 6  -3855380.954 3
  20592597.908   -15991428.671 6 -12241714.913 1
 91  4  5 23 13 44.9940000  0  5 18 11 02 19 06
  22630976.127    12394047.293 4   9668651.126 1
  22182377.049    -8767428.978 6  -6713525.017 1
  19268376.072   -26585707.056 7 -20567403.295 3
  19930003.275    -4983901.252 6  -3849758.632 3
  20583916.986   -16037051.400 6 -12277265.014 1
 91  4  5 23 13 59.9940000  0  4 11 02 19 06
  22186784.025    -8744259.130 5  -6695470.651 1
  19263343.236   -26612151.527 7 -20588009.349 3
  19931390.940    -4976621.599 6  -3844086.207 2
  20575236.197   -16082666.954 6 -12312809.521 1
 91  4  5 23 14 14.9940000  0  4 11 02 19 06
  22191216.041    -8720971.602 5  -6677324.585 1
  19258327.002   -26638516.627 7 -20608553.560 3
  19932789.830    -4969259.804 6  -3838349.771 2
  20566560.338   -16128257.672 6 -12348334.673 1
 91  4  5 23 14 29.9940000  0  4 11 02 19 06
  22195666.721    -8697577.952 6  -6659095.818 1
  19253323.111   -26664813.480 7 -20629044.583 3
  19934203.205    -4961827.005 6  -3832558.012 2
  20557888.783   -16173834.456 6 -12383848.975 1
 91  4  5 23 14 44.9940000  0  4 11 02 19 06
  22200139.338    -8674086.787 6  -6640791.063 1
  19248329.408   -26691050.535 7 -20649489.013 3
  19935631.939    -4954331.588 6  -3826717.459 2
  20549213.846   -16219405.557 6 -12419358.835 1
 91  4  5 23 14 59.9940000  0  4 11 02 19 06
  22204629.025    -8650493.378 6  -6622406.647 1
  19243348.674   -26717222.920 7 -20669883.052 3
  19937071.369    -4946768.321 6  -3820824.039 2
  20540545.877   -16264965.801 6 -12454860.245 1
 91  4  5 23 15 14.9940000  0  4 11 02 19 06
  22209137.690    -8626797.044 6  -6603942.018 1
  19238380.947   -26743329.520 7 -20690225.836 3
  19938522.783    -4939136.136 6  -3814876.910 2
  20531876.002   -16310514.046 6 -12490352.303 1
 91  4  5 23 15 29.9940000  0  4 11 02 19 06
  22213668.338    -8602999.017 6  -6585398.170 1
  19233425.236   -26769371.302 7 -20710518.108 3
  19939986.197    -4931435.904 6  -3808876.770 2
  20523212.174   -16356051.137 6 -12525835.676 1
 91  4  5 23 15 44.9940000  0  4 11 02 19 06
  22218214.979    -8579098.911 6  -6566774.775 1
  19228482.674   -26795347.626 7 -20730759.372 3
  19941465.572    -4923666.808 6  -3802822.959 3
  20514546.619   -16401576.171 6 -12561309.649 1
 91  4  5 23 15 59.9940000  0  4 11 02 19 06
  22222782.494    -8555096.759 5  -6548071.858 1
  19223551.924   -26821258.135 7 -20750949.351 3
  19942955.674    -4915828.454 6  -3796715.189 2
  20505886.658   -16447088.746 6 -12596773.908 1
 91  4  5 23 16 14.9940000  0  4 11 02 19 06
  22227368.432    -8530993.688 5  -6529290.309 1
  19218633.315   -26847103.976 7 -20771088.941 3
  19944462.854    -4907921.962 6  -3790554.321 2
  20497230.065   -16492589.547 6 -12632229.007 1
 91  4  5 23 16 29.9940000  0  4 11 02 19 06
  22231973.190    -8506796.440 5  -6510435.376 1
  19213726.721   -26872891.492 7 -20791183.080 3
  19945980.244    -4899953.512 6  -3784345.166 2
  20488572.791   -16538084.835 6 -12667679.798 1
 91  4  5 23 16 44.9940000  0  4 11 02 19 06
  22236596.096    -8482497.418 5  -6491501.141 1
  19208831.682   -26898612.853 7 -20811225.667 3
  19947508.338    -4891914.899 6  -3778081.346 2
  20479916.104   -16583566.495 6 -12703119.979 1
 91  4  5 23 16 59.9940000  0  4 11 02 19 06
  22241239.275    -8458101.773 5  -6472491.603 1
  19203949.299   -26924272.832 7 -20831220.429 3
  19949048.150    -4883811.077 6  -3771766.706 2
  20471262.736   -16629039.273 6 -12738553.229 1
 91  4  5 23 17 14.9940000  0  4 11 02 19 06
  22245902.041    -8433600.264 6  -6453399.587 1
  19199079.205   -26949862.242 7 -20851160.203 3
  19950607.533    -4875632.462 6  -3765393.794 2
  20462613.994   -16674493.550 6 -12773972.070 1
 91  4  5 23 17 29.9940000  0  4 11 02 19 06
  22250582.572    -8409011.068 6  -6434239.236 1
  19194219.002   -26975398.647 7 -20871058.667 3
  19952173.088    -4867396.804 6  -3758976.433 2
  20453964.752   -16719947.000 6 -12809390.257 1
 91  4  5 23 17 44.9940000  0  4 11 02 19 06
  22255278.564    -8384317.576 6  -6414997.611 1
  19189372.572   -27000865.261 7 -20890902.750 3
  19953755.229    -4859087.103 6  -3752501.368 2
  20445319.791   -16765382.536 6 -12844794.502 1
 91  4  5 23 17 59.9940000  0  4 11 02 19 06
  22259996.846    -8359527.309 6  -6395680.587 1
  19184538.299   -27026269.460 7 -20910698.202 3
  19955349.643    -4850710.522 6  -3745974.193 2
  20436674.963   -16810807.164 6 -12880190.238 1
 91  4  5 23 18 14.9940000  0  4 11 02 19 06
  22264733.533    -8334639.535 6  -6376287.578 1
  19179717.166   -27051610.246 7 -20930444.239 3
  19956957.439    -4842266.079 6  -3739394.133 2
  20428035.236   -16856219.817 6 -12915576.653 1
 91  4  5 23 18 29.9940000  0  4 11 02 19 06
  22269489.057    -8309652.673 6  -6356817.348 1
  19174906.471   -27076885.861 7 -20950139.494 3
  19958574.721    -4833751.704 6  -3732759.588 2
  20419393.354   -16901618.449 6 -12950952.143 1
 91  4  5 23 18 44.9940000  0  4 11 02 19 06
  22274258.994    -8284572.106 6  -6337274.122 1
  19170108.447   -27102101.300 7 -20969787.861 3
  19960210.479    -4825172.392 6  -3726074.436 2
  20410757.244   -16947007.906 6 -12986320.486 1
 91  4  5 23 18 59.9940000  0  4 11 02 19 06
  22279050.791    -8259398.668 6  -6317658.508 1
  19165322.119   -27127257.107 7 -20989389.757 3
  19961852.713    -4816528.389 6  -3719338.888 2
  20402120.400   -16992388.475 6 -13021681.894 1
 91  4  5 23 19 14.9940000  0  4 11 02 19 06
  22283860.846    -8234122.703 6  -6297963.000 1
  19160547.877   -27152343.289 7 -21008937.406 3
  19963513.822    -4807809.946 6  -3712545.335 2
  20393488.135   -17037750.148 6 -13057028.587 1
 91  4  5 23 19 29.9940000  0  4 11 02 19 06
  22288689.643    -8208748.911 5  -6278191.282 1
  19155786.783   -27177364.284 7 -21028434.250 3
  19965184.416    -4799021.237 6  -3705697.024 2
  20384858.377   -17083097.132 6 -13092363.836 1
 91  4  5 23 19 44.9940000  0  4 11 02 19 06
  22293534.846    -8183281.728 5  -6258346.783 1
  19151036.322   -27202324.470 7 -21047883.718 3
  19966869.932    -4790166.490 6  -3698797.258 2
  20376231.221   -17128433.522 6 -13127690.824 1
 91  4  5 23 19 59.9940000  0  4 11 02 19 06
  22298400.619    -8157721.955 5  -6238430.143 1
  19146299.291   -27227224.250 7 -21067286.113 3
  19968568.369    -4781246.170 6  -3691846.390 2
  20367604.986   -17173759.445 6 -13163009.664 1
 91  4  5 23 20 14.9940000  0  4 11 02 19 06
  22303280.643    -8132073.578 5  -6218444.464 1
  19141571.119   -27252067.388 7 -21086644.374 3
  19970277.135    -4772263.769 6  -3684847.153 2
  20358981.979   -17219078.505 6 -13198323.154 1
 91  4  5 23 20 29.9940000  0  4 11 02 19 06
  22308179.205    -8106338.850 5  -6198391.491 1
  19136855.752   -27276855.762 7 -21105959.957 3
  19971996.744    -4763221.134 6  -3677800.975 2
  20350360.650   -17264392.454 6 -13233632.665 1
 91  4  5 23 20 44.9940000  0  4 11 02 19 06
  22313094.025    -8080511.245 5  -6178266.162 1
  19132147.760   -27301582.616 7 -21125227.601 3
  19973732.674    -4754111.346 6  -3670702.474 2
  20341738.963   -17309694.240 6 -13268932.697 1
 91  4  5 23 20 59.9940000  0  4 11 02 19 06
  22318023.791    -8054590.603 5  -6158068.318 1
  19127454.127   -27326247.641 7 -21144447.065 3
  19975476.940    -4744933.962 6  -3663551.302 2
  20333120.283   -17354983.275 6 -13304222.794 1
 91  4  5 23 21 14.9940000  0  4 11 02 19 06
  22322972.650    -8028583.379 5  -6137803.028 1
  19122771.432   -27350856.935 7 -21163623.109 3
  19977236.619    -4735694.963 6  -3656352.117 2
  20324504.947   -17400265.611 6 -13339507.663 1
 91  4  5 23 21 29.9940000  0  4 11 02 19 06
  22327940.822    -8002478.410 5  -6117461.551 1
  19118102.580   -27375399.202 7 -21182746.922 3
  19979009.408    -4726382.896 6  -3649095.992 2
  20315890.713   -17445529.525 6 -13374778.194 1
 91  4  5 23 21 44.9940000  0  4 11 02 19 06
  22332928.260    -7976276.723 5  -6097044.723 1
  19113443.393   -27399875.190 7 -21201819.089 3
  19980794.205    -4716998.333 6  -3641783.378 2
  20307280.580   -17490775.706 6 -13410034.893 1
 91  4  5 23 21 59.9930000  0  4 11 02 19 06
  22337930.958    -7949982.048 5  -6076555.438 1
  19108800.114   -27424284.859 7 -21220839.576 3
  19982593.528    -4707543.537 6  -3634416.040 2
  20298672.778   -17536002.408 6 -13445276.424 1
 91  4  5 23 22 14.9930000  0  4 11 02 19 06
  22342953.989    -7923590.101 5  -6055990.338 1
  19104165.560   -27448630.181 7 -21239809.926 3
  19984406.341    -4698015.979 6  -3626992.006 2
  20290070.021   -17581214.434 6 -13480506.516 1
 91  4  5 23 22 29.9930000  0  4 11 02 19 06
  22347993.653    -7897102.703 5  -6035350.865 1
  19099545.669   -27472909.581 7 -21258728.907 3
  19986232.708    -4688415.982 6  -3619511.531 2
  20281470.903   -17626408.473 6 -13515722.592 1
 91  4  5 23 22 44.9930000  0  4 11 02 19 06
  22353053.974    -7870519.937 5  -6014637.077 1
  19094938.552   -27497123.028 7 -21277596.497 3
  19988075.919    -4678743.413 6  -3611974.497 2
  20272873.552   -17671584.013 6 -13550924.260 1
 91  4  5 23 22 59.9930000  0  4 11 02 19 06
  22358128.380    -7843852.720 5  -5993857.483 1
  19090341.560   -27521280.985 7 -21296420.849 3
  19989928.372    -4669008.819 6  -3604389.129 2
  20264278.638   -17716751.681 6 -13586119.788 1
 91  4  5 23 23 14.9930000  0  4 11 02 19 06
  22363219.325    -7817090.605 5  -5973003.943 1
  19085757.036   -27545372.749 7 -21315193.621 3
  19991793.864    -4659201.137 6  -3596746.815 2
  20255688.036   -17761900.371 6 -13621300.531 1
 91  4  5 23 23 29.9930000  0  4 11 02 19 06
  22368331.786    -7790239.119 5  -5952080.769 1
  19081182.388   -27569403.437 7 -21333918.804 3
  19993672.489    -4649325.631 6  -3589051.655 2
  20247096.481   -17807035.077 6 -13656470.378 1
 91  4  5 23 23 44.9930000  0  4 11 02 19 06
  22373455.130    -7763307.433 5  -5931095.114 1
  19076621.341   -27593381.871 7 -21352603.273 3
  19995563.177    -4639391.108 6  -3581310.510 2
  20238511.380   -17852164.614 6 -13691636.189 1
 91  4  5 23 23 59.9930000  0  4 11 02 19 06
  22378595.950    -7736295.071 5  -5910046.571 1
  19072067.169   -27617307.521 7 -21371246.605 3
  19997462.677    -4629396.735 6  -3573522.729 2
  20229923.528   -17897287.914 6 -13726797.149 2
 91  4  5 23 24 14.9930000  0  4 11 02 19 06
  22383753.778    -7709188.574 5  -5888924.692 1
  19067527.731   -27641166.829 7 -21389838.245 3
  19999380.739    -4619328.839 6  -3565677.647 2
  20221339.372   -17942391.094 6 -13761942.421 1
 91  4  5 23 24 29.9930000  0  4 11 02 19 06
  22388928.333    -7681998.143 5  -5867737.412 1
  19062998.114   -27664969.596 7 -21408385.823 3
  20001311.396    -4609197.167 6  -3557782.878 2
  20212757.966   -17987483.942 6 -13797079.644 1
 91  4  5 23 24 44.9930000  0  4 11 02 19 06
  22394118.677    -7654721.083 5  -5846482.618 1
  19058479.161   -27688713.013 7 -21426887.158 3
  20003248.450    -4598998.684 6  -3549836.045 2
  20204180.106   -18032563.146 6 -13832206.246 1
 91  4  5 23 24 59.9930000  0  4 11 02 19 06
  22399326.247    -7627354.465 5  -5825158.064 1
  19053973.114   -27712393.668 7 -21445339.588 3
  20005203.966    -4588729.951 6  -3541834.478 2
  20195604.224   -18077625.418 6 -13867319.642 1
 91  4  5 23 25 14.9930000  0  4 11 02 19 06
  22404552.005    -7599893.622 5  -5803760.064 1
  19049479.606   -27736006.719 7 -21463739.342 3
  20007171.380    -4578385.954 6  -3533774.261 2
  20187034.403   -18122665.438 6 -13902415.702 2
 91  4  5 23 25 29.9930000  0  4 11 02 19 06
  22409794.646    -7572350.019 5  -5782297.583 1
  19044997.583   -27759563.318 7 -21482095.105 3
  20009152.513    -4567977.797 6  -3525664.051 2
  20178467.817   -18167694.348 6 -13937503.103 1
 91  4  5 23 25 44.9930000  0  4 11 02 19 06
  22415051.271    -7544724.389 5  -5760771.180 1
  19040525.044   -27783063.822 7 -21500407.154 3
  20011145.185    -4557505.797 6  -3517504.086 2
  20169899.138   -18212712.222 6 -13972581.903 2
 91  4  5 23 25 59.9930000  0  4 11 02 19 06
  22420322.153    -7517012.930 5  -5739177.900 1
  19036063.935   -27806504.190 7 -21518672.348 3
  20013152.013    -4546965.903 6  -3509291.217 2
  20161335.646   -18257714.810 6 -14007648.785 1
 91  4  5 23 26 14.9930000  0  4 11 02 19 06
  22425612.974    -7489219.288 5  -5717520.589 1
  19031614.880   -27829887.800 7 -21536893.317 3
  20015169.661    -4536361.238 6  -3501027.877 2
  20152775.513   -18302705.229 6 -14042706.191 2
 91  4  5 23 26 29.9930000  0  4 11 02 19 06
  22430919.239    -7461342.556 5  -5695798.547 1
  19027175.528   -27853213.382 7 -21555069.065 3
  20017201.794    -4525690.525 6  -3492713.078 2
  20144215.333   -18347682.063 6 -14077753.009 1
 91  4  5 23 26 44.9930000  0  4 11 02 19 06
  22436239.810    -7433376.431 5  -5674006.841 1
  19022750.435   -27876474.519 7 -21573194.600 3
  20019244.528    -4514947.239 6  -3484341.723 2
  20135660.896   -18392638.544 6 -14112783.963 1
 91  4  5 23 26 59.9930000  0  4 11 02 19 06
  22441576.646    -7405321.604 5  -5652146.017 1
  19018335.489   -27899671.588 7 -21591270.207 3
  20021301.989    -4504131.723 6  -3475914.083 2
  20127109.349   -18437574.903 6 -14147799.234 2
 91  4  5 23 27 14.9930000  0  4 11 02 19 06
  22446933.497    -7377182.595 5  -5630219.579 1
  19013932.591   -27922808.723 7 -21609299.111 3
  20023372.958    -4493247.943 6  -3467433.252 2
  20118559.981   -18482495.122 6 -14182801.925 1
 91  4  5 23 27 29.9930000  0  4 11 02 19 06
  22452305.192    -7348953.659 5  -5608223.076 1
  19009542.255   -27945880.086 7 -21627276.764 3
  20025460.794    -4482289.761 6  -3458894.452 2
  20110016.583   -18527392.900 6 -14217787.149 1
 91  4  5 23 27 44.9930000  0  4 11 02 19 06
  22457694.239    -7320635.128 5  -5586156.754 1
  19005164.450   -27968885.617 7 -21645203.120 3
  20027557.200    -4471257.410 6  -3450297.853 2
  20101477.442   -18572268.215 6 -14252754.852 1
 91  4  5 23 27 59.9930000  0  4 11 02 19 06
  22463097.560    -7292235.404 5  -5564027.161 1
  19000798.372   -27991833.515 7 -21663084.571 3
  20029668.755    -4460158.798 6  -3441649.622 2
  20092941.817   -18617128.842 6 -14287711.117 2
 91  4  5 23 28 14.9930000  0  4 11 02 19 06
  22468518.325    -7263748.990 5  -5541830.029 1
  18996442.599   -28014717.918 7 -21680916.539 3
  20031795.716    -4448987.933 6  -3432945.087 2
  20084407.794   -18661968.797 6 -14322651.269 2
 91  4  5 23 28 29.9930000  0  4 11 02 19 06
  22473954.724    -7235180.205 5  -5519568.726 1
  18992098.536   -28037542.794 7 -21698702.127 3
  20033934.028    -4437748.667 6  -3424187.259 2
  20075878.060   -18706791.816 6 -14357578.221 2
 91  4  5 23 28 44.9930000  0  4 11 02 19 06
  22479410.044    -7206518.790 5  -5497235.217 1
  18987767.974   -28060297.766 7 -21716433.244 3
  20036088.739    -4426430.514 6  -3415367.954 2
  20067354.138   -18751587.202 6 -14392483.644 1
 91  4  5 23 28 59.9930000  0  4 11 02 19 06
  22484876.130    -7177782.546 5  -5474843.388 1
  18983448.083   -28083000.425 7 -21734123.598 3
  20038256.435    -4415050.912 6  -3406500.779 2
  20058831.388   -18796372.251 6 -14427381.014 2
 91  4  5 23 29 14.9930000  0  4 11 02 19 06
  22490364.942    -7148956.801 5  -5452381.806 1
  18979142.271   -28105635.586 7 -21751761.349 3
  20040433.302    -4403594.452 6  -3397573.704 2
  20050313.231   -18841131.583 6 -14462258.333 2
 91  4  5 23 29 29.9930000  0  4 11 02 19 06
  22495861.763    -7120051.122 5  -5429857.973 1
  18974845.646   -28128212.717 7 -21769353.893 3
  20042624.778    -4392070.603 6  -3388594.123 2
  20041798.981   -18885874.457 6 -14497122.842 2
 91  4  5 23 29 44.9930000  0  4 11 02 19 06
  22501379.146    -7091067.784 5  -5407273.616 1
  18970559.521   -28150733.876 7 -21786902.819 3
  20044832.075    -4380481.316 6  -3379563.548 2
  20033288.224   -18930602.677 6 -14531975.929 2
 91  4  5 23 29 59.9930000  0  4 11 02 19 06
  22506907.692    -7062016.567 5  -5384636.381 1
  18966283.677   -28173208.504 7 -21804415.487 3
  20047046.224    -4368836.163 6  -3370489.449 2
  20024778.739   -18975325.519 6 -14566824.825 2
 91  4  5 23 30 14.9930000  0  4 11 02 19 06
  22512451.630    -7032880.440 5  -5361932.984 1
  18962017.614   -28195619.264 7 -21821878.390 3
  20049277.825    -4357117.712 6  -3361358.231 2
  20016271.396   -19020025.341 6 -14601655.779 2
 91  4  5 23 30 29.9930000  0  4 11 02 19 06
  22518012.294    -7003664.588 5  -5339167.438 1
  18957763.700   -28217970.982 7 -21839295.285 3
  20051522.114    -4345330.494 6  -3352173.430 2
  20007768.138   -19064706.873 6 -14636472.479 2
 91  4  5 23 30 44.9930000  0  4 11 02 19 06
  22523588.856    -6974366.215 6  -5316337.601 1
  18953523.349   -28240260.743 7 -21856663.904 3
  20053778.286    -4333471.390 6  -3342932.615 2
  19999269.841   -19109366.875 6 -14671272.403 2
 91  4  5 23 30 59.9930000  0  4 11 02 19 06
  22529177.958    -6944981.413 6  -5293440.417 1
  18949293.802   -28262484.292 7 -21873980.933 3
  20056048.356    -4321536.322 6  -3333632.603 2
  19990776.106   -19154000.736 6 -14706051.965 2
 91  4  5 23 31 14.9930000  0  4 11 02 19 06
  22534785.372    -6915523.617 6  -5270486.343 1
  18945075.481   -28284654.669 7 -21891256.524 3
  20058331.669    -4309538.426 6  -3324283.640 2
  19982285.060   -19198621.563 6 -14740821.373 2
 91  4  5 23 31 29.9930000  0  3 02 19 06
  18940873.224   -28306741.133 7 -21908466.729 3
  20060631.239    -4297446.590 6  -3314861.475 2
  19973803.239   -19243198.142 6 -14775556.300 2
 91  4  5 23 31 44.9930000  0  3 02 19 06
  18936680.888   -28328770.974 7 -21925632.814 4
  20062948.021    -4285287.826 6  -3305387.147 2
  19965325.075   -19287757.440 6 -14810277.759 2
 91  4  5 23 31 59.9930000  0  3 02 19 06
  18932497.802   -28350749.940 7 -21942759.257 4
  20065272.966    -4273067.992 6  -3295865.239 2
  19956847.028   -19332305.106 6 -14844990.156 2
 91  4  5 23 32 14.9930000  0  3 02 19 06
  18928326.106   -28372667.984 7 -21959838.227 4
  20067612.724    -4260776.895 6  -3286287.811 2
  19948373.427   -19376830.810 6 -14879685.439 2
 91  4  5 23 32 29.9930000  0  3 02 19 06
  18924166.013   -28394529.848 7 -21976873.420 4
  20069963.333    -4248419.293 6  -3276658.559 2
  19939905.013   -19421339.185 6 -14914367.222 2
 91  4  5 23 32 44.9930000  0  3 02 19 06
  18920016.130   -28416342.397 7 -21993870.190 4
  20072325.653    -4236002.051 6  -3266982.825 2
  19931435.825   -19465836.786 6 -14949040.612 2
 91  4  5 23 32 59.9930000  0  3 02 19 06
  18915875.317   -28438095.354 7 -22010820.525 4
  20074702.489    -4223514.579 6  -3257252.378 2
  19922973.333   -19510313.008 7 -14983697.340 2
 91  4  5 23 33 14.9930000  0  3 02 19 06
  18911746.458   -28459796.226 7 -22027730.275 4
  20077090.083    -4210964.420 6  -3247473.076 2
  19914511.599   -19554775.059 6 -15018343.024 2
 91  4  5 23 33 29.9930000  0  3 02 19 06
  18907629.982   -28481430.944 7 -22044588.471 4
  20079494.388    -4198337.412 6  -3237633.895 2
  19906057.513   -19599208.675 6 -15052966.554 2
 91  4  5 23 33 44.9930000  0  3 02 19 06
  18903523.599   -28503009.903 7 -22061403.224 4
  20081908.294    -4185643.944 6  -3227742.927 2
  19897604.278   -19643624.226 6 -15087575.998 2
 91  4  5 23 33 59.9930000  0  3 02 19 06
  18899427.146   -28524532.702 7 -22078174.209 4
  20084337.942    -4172883.295 6  -3217799.613 2
  19889155.653   -19688020.934 6 -15122170.768 2
 91  4  5 23 34 14.9930000  0  3 02 19 06
  18895343.044   -28545997.408 7 -22094899.928 4
  20086778.997    -4160053.585 6  -3207802.486 2
  19880711.411   -19732396.635 6 -15156749.168 2
 91  4  5 23 34 29.9930000  0  3 02 19 06
  18891269.817   -28567402.136 7 -22111578.912 4
  20089233.255    -4147152.662 6  -3197749.864 2
  19872270.255   -19776748.977 6 -15191309.362 2
 91  4  5 23 34 44.9930000  0  3 02 19 06
  18887207.247   -28588747.635 7 -22128211.742 4
  20091702.310    -4134181.199 6  -3187642.272 2
  19863836.247   -19821078.554 6 -15225851.823 2
 91  4  5 23 34 59.9930000  0  3 02 19 06
  18883155.841   -28610039.898 7 -22144803.092 4
  20094182.310    -4121145.167 6  -3177484.370 2
  19855403.669   -19865390.944 6 -15260380.892 2
 91  4  5 23 35 14.9930000  0  3 02 19 06
  18879115.403   -28631270.459 7 -22161346.356 4
  20096676.396    -4108036.303 6  -3167269.720 2
  19846977.185   -19909677.910 6 -15294890.151 2
 91  4  5 23 35 29.9930000  0  3 02 19 06
  18875087.185   -28652442.422 7 -22177843.966 4
  20099187.231    -4094857.588 6  -3157000.647 2
  19838552.138   -19953942.180 6 -15329381.727 2
 91  4  5 23 35 44.9930000  0  3 02 19 06
  18871068.591   -28673555.314 7 -22194295.541 4
  20101707.731    -4081608.286 6  -3146676.572 2
  19830134.075   -19998182.873 6 -15363854.923 2
 91  4  5 23 35 59.9930000  0  3 02 19 06
  18867063.317   -28694608.009 7 -22210700.213 4
  20104240.450    -4068286.943 6  -3136296.355 2
  19821720.333   -20042398.400 6 -15398308.516 2
 91  4  5 23 36 14.9930000  0  3 02 19 06
  18863067.247   -28715602.482 7 -22227059.512 4
  20106789.521    -4054895.860 6  -3125861.786 2
  19813309.606   -20086590.746 6 -15432744.040 2
 91  4  5 23 36 29.9930000  0  3 02 19 06
  18859084.927   -28736536.802 7 -22243371.944 4
  20109350.888    -4041432.859 6  -3115371.187 2
  19804904.724   -20130757.771 6 -15467159.841 2
 91  4  5 23 36 44.9930000  0  3 02 19 06
  18855111.271   -28757413.728 7 -22259639.649 4
  20111925.903    -4027900.538 6  -3104826.569 2
  19796506.208   -20174901.708 7 -15501557.652 2
 91  4  5 23 36 59.9930000  0  3 02 19 06
  18851150.989   -28778227.306 7 -22275857.990 4
  20114519.575    -4014293.073 6  -3094223.414 2
  19788110.497   -20219016.670 7 -15535932.886 2
 91  4  5 23 37 14.9930000  0  4 15 02 19 06
  22210660.716          -0.51115
  18847201.388   -28798987.796 7 -22292034.966 4
  20117118.458    -4000620.447 6  -3083569.480 2
  19779718.630   -20263112.579 7 -15570293.271 2
 91  4  5 23 37 29.9930000  0  4 15 02 19 06
  22202657.989      -42043.231 5
  18843260.450   -28819688.744 7 -22308165.543 4
  20119733.036    -3986876.216 6  -3072859.743 2
  19771332.466   -20307182.780 6 -15604633.622 2
 91  4  5 23 37 44.9930000  0  4 15 02 19 06
  22194674.302      -84005.617 5
  18839333.247   -28840329.503 7 -22324249.224 4
  20122362.716    -3973059.586 6  -3062093.589 2
  19762951.466   -20351226.164 6 -15638953.077 2
 91  4  5 23 37 59.9930000  0  4 15 02 19 06
  22186704.122     -125891.771 5        -0.17811
  18835415.646   -28860914.728 7 -22340289.634 4
  20125003.427    -3959175.142 6  -3051274.598 2
  19754574.661   -20395247.304 6 -15673255.206 2
 91  4  5 23 38 14.9930000  0  4 15 02 19 06
  22178747.356     -167691.329 5    -32571.143 1
  18831511.927   -28881434.470 7 -22356279.015 4
  20127661.950    -3945212.762 6  -3040394.877 2
  19746204.521   -20439235.796 6 -15707531.897 2
 91  4  5 23 38 29.9930000  0  4 15 02 19 06
  22170811.856     -209411.477 5    -65080.248 1
  18827617.599   -28901896.432 7 -22372223.376 4
  20130333.903    -3931180.231 6  -3029460.490 2
  19737836.653   -20483199.336 6 -15741789.142 2
 91  4  5 23 38 44.9930000  0  4 15 02 19 06
  22162883.067     -251055.041 5    -97529.650 1
  18823734.372   -28922303.889 7 -22388125.264 4
  20133016.146    -3917080.783 6  -3018473.951 2
  19729477.802   -20527140.744 6 -15776029.140 2
 91  4  5 23 38 59.9930000  0  4 15 02 19 06
  22154977.474     -292618.485 5   -129916.652 1
  18819861.271   -28942653.649 7 -22403982.194 4
  20135712.919    -3902911.012 6  -3007432.618 2
  19721118.474   -20571056.638 6 -15810249.259 2
 91  4  5 23 39 14.9930000  0  4 15 02 19 06
  22147080.286     -334104.057 5   -162242.958 1
  18816000.341   -28962948.221 7 -22419796.117 4
  20138421.685    -3888673.404 6  -2996338.423 2
  19712764.872   -20614949.227 6 -15844451.215 2
 91  4  5 23 39 29.9930000  0  4 15 02 19 06
  22139204.942     -375501.719 5   -194500.768 1
  18812149.396   -28983178.309 7 -22435559.797 4
  20141144.435    -3874358.644 6  -2985184.128 2
  19704419.013   -20658808.940 6 -15878627.559 2
 91  4  5 23 39 44.9930000  0  4 15 02 19 06
  22131341.106     -416821.747 5   -226698.049 1
  18808311.044   -29003354.514 7 -22451281.494 4
  20143881.505    -3859977.365 6  -2973978.002 2
  19696078.130   -20702646.348 6 -15912786.528 2
 91  4  5 23 39 59.9930000  0  4 15 02 19 06
  22123493.481     -458062.920 5   -258833.911 1
  18804480.646   -29023476.219 7 -22466960.722 4
  20146632.255    -3845528.803 6  -2962719.442 2
  19687739.466   -20746460.306 6 -15946927.214 2
 91  4  5 23 40 14.9930000  0  4 15 02 19 06
  22115661.755     -499225.089 5   -290908.196 1
  18800661.997   -29043543.412 7 -22482597.468 4
  20149394.489    -3831012.767 6  -2951408.295 2
  19679407.388   -20790250.576 6 -15981049.451 2
 91  4  5 23 40 29.9930000  0  4 15 02 19 06
  22107842.716     -540311.663 5   -322923.579 1
  18796854.403   -29063559.840 7 -22498194.663 4
  20152167.349    -3816432.945 6  -2940047.446 2
  19671077.052   -20834020.787 6 -16015156.045 2
 91  4  5 23 40 44.9930000  0  4 15 02 19 06
  22100038.896     -581309.478 5   -354869.813 1
  18793057.294   -29083512.788 7 -22513742.390 4
  20154958.661    -3801776.725 6  -2928627.064 2
  19662755.864   -20877757.997 6 -16049236.933 2
 91  4  5 23 40 59.9930000  0  4 15 02 19 06
  22092253.317     -622220.879 5   -386748.692 1
  18789271.614   -29103405.111 7 -22529242.881 4
  20157759.552    -3787046.776 6  -2917149.244 2
  19654438.185   -20921464.660 6 -16083294.018 2
 91  4  5 23 41 14.9930000  0  4 15 02 19 06
  22084486.044     -663043.495 5   -418558.385 1
  18785497.278   -29123235.007 7 -22544694.732 4
  20160577.052    -3772241.200 6  -2905612.490 2
  19646127.294   -20965138.694 7 -16117325.678 2
 91  4  5 23 41 29.9930000  0  4 15 02 19 06
  22076733.364     -703783.687 5   -450303.868 1
  18781734.630   -29143009.231 7 -22560103.192 4
  20163409.903    -3757366.610 6  -2894021.951 2
  19637820.403   -21008786.495 6 -16151336.898 2
 91  4  5 23 41 44.9930000  0  4 15 02 19 06
  22068996.114     -744442.492 5   -481985.929 1
  18777982.622   -29162729.540 7 -22575469.651 4
  20166253.372    -3742424.493 6  -2882378.781 2
  19629521.489   -21052409.536 7 -16185328.820 2
 91  4  5 23 41 59.9930000  0  4 15 02 19 06
  22061276.716     -785020.019 5   -513604.668 1
  18774239.200   -29182395.764 7 -22590793.958 4
  20169107.239    -3727414.896 6  -2870683.043 2
  19621224.021   -21096007.569 6 -16219301.260 2
 91  4  5 23 42 14.9930000  0  4 15 02 19 06
  22053568.896     -825517.288 5   -545160.839 1
  18770506.974   -29202009.689 7 -22606077.517 4
  20171978.708    -3712339.715 6  -2858936.201 2
  19612931.528   -21139582.248 6 -16253255.499 2
 91  4  5 23 42 29.9930000  0  4 15 02 19 06
  22045877.013     -865931.308 5   -576652.153 1
  18766785.989   -29221568.655 7 -22621318.249 4
  20174855.630    -3697196.101 6  -2847136.037 2
  19604646.380   -21183130.556 7 -16287189.191 2
 91  4  5 23 42 44.9930000  0  5 15 13 02 19 06
  22038204.692     -906259.012 5   -608076.228 1
  21954071.497          -0.36814
  18763075.099   -29241070.014 7 -22636514.091 4
  20177754.739    -3681981.036 6  -2835280.191 2
  19596363.161   -21226649.324 7 -16321099.864 2
 91  4  5 23 42 59.9930000  0  5 15 13 02 19 06
  22030545.302     -946500.114 5   -639432.789 1
  21939750.224      -75270.116 4
  18759373.427   -29260513.940 7 -22651665.185 4
  20180663.810    -3666694.879 6  -2823368.954 2
  19588087.075   -21270138.560 7 -16354987.523 2
 91  4  5 23 43 14.9930000  0  5 15 13 02 19 06
  22022901.067     -986657.962 5   -670724.494 1
  21925431.122     -150514.520 4
  18755683.981   -29279904.272 7 -22666774.518 4
  20183584.653    -3651341.403 6  -2811405.262 2
  19579816.497   -21313601.896 7 -16388855.002 2
 91  4  5 23 43 29.9930000  0  5 15 13 02 19 06
  22015276.427    -1026730.907 5   -701950.030 1
  21911120.294     -225732.030 4
  18752004.942   -29299239.859 7 -22681841.189 4
  20186518.771    -3635919.405 6  -2799388.175 2
  19571550.716   -21357038.025 7 -16422701.277 2
 91  4  5 23 43 44.9930000  0  5 15 13 02 19 06
  22007666.638    -1066722.908 5   -733112.510 1
  21896806.552     -300926.506 3
  18748333.981   -29318525.047 7 -22696868.586 4
  20189465.614    -3620433.111 6  -2787320.990 2
  19563290.153   -21400450.771 7 -16456529.330 2
 91  4  5 23 43 59.9930000  0  5 15 13 02 19 06
  22000076.810    -1106620.330 5   -764201.276 1
  21882507.755     -376084.464 4
  18744677.130   -29337746.725 7 -22711846.496 4
  20192427.575    -3604869.233 6  -2775193.332 2
  19555035.138   -21443826.809 7 -16490328.779 2
 91  4  5 23 44 14.9930000  0  5 15 13 02 19 06
  21992498.544    -1146427.491 5   -795219.723 1
  21868210.536     -451209.864 4
  18741030.583   -29356909.272 7 -22726778.334 4
  20195404.833    -3589232.076 6  -2763008.578 2
  19546786.763   -21487170.338 7 -16524102.895 2
 91  4  5 23 44 29.9930000  0  5 15 13 02 19 06
  21984937.653    -1186155.021 5   -826176.092 1
  21853915.974     -526313.424 4
  18737392.880   -29376024.091 7 -22741672.980 4
  20198391.560    -3573533.075 6  -2750775.660 2
  19538544.442   -21530492.389 7 -16557860.277 2
 91  4  5 23 44 44.9930000  0  5 15 13 02 19 06
  21977395.177    -1225794.075 5   -857063.548 1
  21839630.958     -601385.972 4
  18733767.122   -29395082.414 7 -22756523.604 4
  20201391.575    -3557763.602 6  -2738487.811 2
  19530303.614   -21573784.109 7 -16591594.023 2
 91  4  5 23 44 59.9930000  0  5 15 13 02 19 06
  21969868.544    -1265348.733 5   -887885.237 1
  21825348.536     -676431.495 4        -0.06311
  18730150.255   -29414088.793 7 -22771333.747 4
  20204406.333    -3541928.189 6  -2726148.572 2
  19522071.653   -21617049.670 7 -16625307.389 2
 91  4  5 23 45 14.9930000  0  5 15 13 02 19 06
  21962361.380    -1304817.749 5   -918640.170 1
  21811071.411     -751449.323 4    -58455.205 1
  18726542.771   -29433042.674 7 -22786102.986 3
  20207432.075    -3526026.025 6  -2713757.313 2
  19513844.435   -21660288.202 7 -16658999.685 2
 91  4  5 23 45 29.9930000  0  5 15 13 02 19 06
  21954858.833    -1344200.709 5   -949328.063 1
  21796801.606     -826438.530 4   -116888.078 1
  18722946.591   -29451943.678 7 -22800831.018 4
  20210470.396    -3510056.765 6  -2701313.783 2
  19505621.552   -21703499.185 7 -16692670.522 2
 91  4  5 23 45 44.9930000  0  5 15 13 02 19 06
  21947386.755    -1383495.632 5   -979947.349 1
  21782535.724     -901396.988 4   -175296.969 1
  18719359.935   -29470790.354 7 -22815516.718 3
  20213522.067    -3494018.874 6  -2688816.785 2
  19497403.692   -21746680.751 7 -16726318.429 2
 91  4  5 23 45 59.9930000  0  5 15 13 02 19 06
  21939923.060    -1422700.826 5  -1010496.714 1
  21768279.599     -976323.196 4   -233680.740 1
  18715784.192   -29489581.674 7 -22830159.284 3
  20216587.825    -3477911.027 6  -2676265.268 2
  19489192.130   -21789831.500 7 -16759942.328 2
 91  4  5 23 46 14.9930000  0  5 15 13 02 19 06
  21932483.075    -1461816.120 5  -1040976.034 1
  21754025.130    -1051216.690 4   -292039.028 1
  18712217.583   -29508317.551 7 -22844758.648 3
  20219666.591    -3461733.161 6  -2663659.200 2
  19480986.442   -21832951.207 7 -16793542.034 2
 91  4  5 23 46 29.9930000  0  5 15 13 02 19 06
  21925054.927    -1500842.552 5  -1071386.119 1
  21739780.106    -1126078.783 4   -350372.859 1
  18708664.255   -29526999.625 7 -22859316.091 4
  20222758.146    -3445486.919 6  -2650999.849 2
  19472786.567   -21876041.219 7 -16827118.602 2
 91  4  5 23 46 44.9930000  0  5 15 13 02 19 06
  21917642.700    -1539779.929 5  -1101726.813 1
  21725540.747    -1200908.969 4   -408681.779 1
  18705118.981   -29545627.796 7 -22873831.530 3
  20225863.356    -3429172.208 6  -2638287.157 1
  19464593.231   -21919101.256 7 -16860671.816 2
 91  4  5 23 46 59.9930000  0  5 15 13 02 19 06
  21910253.771    -1578621.835 5  -1131993.106 1
  21711310.966    -1275701.106 5   -466961.069 1
  18701585.224   -29564196.432 7 -22888300.579 3
  20228981.036    -3412783.209 6  -2625516.575 2
  19456405.567   -21962125.264 7 -16894196.956 2
 91  4  5 23 47 14.9930000  0  5 15 13 02 19 06
  21902880.911    -1617372.618 5  -1162188.410 1
  21697082.489    -1350459.151 5   -525213.820 1
  18698061.864   -29582709.993 7 -22902726.708 4
  20232114.911    -3396324.400 6  -2612691.590 2
  19448223.396   -22005117.537 7 -16927697.359 2
 91  4  5 23 47 29.9920000  0  5 15 13 02 19 06
  21895524.649    -1656029.451 5  -1192310.507 1
  21682865.320    -1425177.799 5   -583435.856 1
  18694550.469   -29601167.542 7 -22917109.192 3
  20235257.938    -3379797.106 6  -2599813.236 2
  19440050.523   -22048075.174 7 -16961170.780 2
 91  4  5 23 47 44.9920000  0  5 15 13 02 19 06
  21888182.953    -1694599.827 5  -1222365.222 1
  21668650.320    -1499869.567 5   -641636.994 1
  18691046.367   -29619574.287 7 -22931452.092 3
  20238416.227    -3363202.020 6  -2586882.053 2
  19431880.414   -22091006.558 7 -16994623.747 2
 91  4  5 23 47 59.9920000  0  5 15 13 02 19 06
  21880862.180    -1733077.663 5  -1252347.835 1
  21654443.688    -1574525.766 4   -699810.384 1
  18687554.500   -29637925.925 7 -22945752.045 3
  20241589.742    -3346536.903 6  -2573896.311 1
  19423717.461   -22133905.095 7 -17028051.114 2
 91  4  5 23 48 14.9920000  0  5 15 13 02 19 06
  21873557.727    -1771463.011 5  -1282258.387 1
  21640241.469    -1649146.293 4   -757955.967 1
  18684072.867   -29656222.736 7 -22960009.278 3
  20244771.430    -3329802.156 6  -2560856.303 2
  19415560.188   -22176771.086 7 -17061453.125 2
 91  4  5 23 48 29.9920000  0  5 15 13 02 19 06
  21866271.602    -1809755.091 5  -1312096.285 1
  21626050.734    -1723730.734 5   -816073.437 1
  18680601.125   -29674464.815 7 -22974223.864 3
  20247969.211    -3312997.615 6  -2547761.919 2
  19407409.399   -22219604.110 7 -17094829.447 2
 91  4  5 23 48 44.9920000  0  5 15 13 02 19 06
  21859002.992    -1847956.836 5  -1341863.770 1
  21611864.024    -1798282.014 5   -874165.044 1
  18677141.539   -29692655.190 7 -22988398.163 3
  20251182.023    -3296126.476 6  -2534615.632 2
  19399263.328   -22262407.238 7 -17128182.476 2
 91  4  5 23 48 59.9920000  0  5 15 13 02 19 06
  21851749.524    -1886065.675 5  -1371558.864 1
  21597687.578    -1872797.440 5   -932228.759 1
  18673688.609   -29710791.968 7 -23002530.695 4
  20254402.953    -3279186.474 6  -2521415.698 1
  19391123.961   -22305177.851 7 -17161510.164 2
 91  4  5 23 49 14.9920000  0  5 15 13 02 19 06
  21844514.047    -1924079.443 5  -1401179.885 1
  21583512.969    -1947274.305 4   -990262.419 1
  18670246.828   -29728873.003 7 -23016619.791 4
  20257640.430    -3262175.648 6  -2508160.572 1
  19382991.359   -22347913.839 7 -17194810.871 2
 91  4  5 23 49 29.9920000  0  5 15 13 02 19 06
  21837298.836    -1962000.961 5  -1430729.021 1
  21569346.867    -2021715.616 4  -1048268.350 1
  18666816.586   -29746901.507 7 -23030667.950 4
  20260894.523    -3245097.149 6  -2494852.710 1
  19374865.922   -22390618.023 7 -17228086.801 3
 91  4  5 23 49 44.9920000  0  5 15 13 02 19 06
  21830098.000    -1999830.192 5  -1460206.245 1
  21555187.438    -2096121.189 4  -1106246.458 1
  18663396.094   -29764877.851 7 -23044675.471 4
  20264155.438    -3227950.992 6  -2481492.134 1
  19366744.641   -22433290.494 7 -17261338.020 3
 91  4  5 23 49 59.9920000  0  5 15 13 02 19 06
  21822919.563    -2037567.488 5  -1489611.847 1
  21541036.367    -2170491.470 5  -1164197.044 1
  18659985.617   -29782803.038 7 -23058643.127 4
  20267429.602    -3210738.274 6  -2468079.707 1
  19358631.148   -22475931.953 7 -17294565.072 2
 91  4  5 23 50 14.9920000  0  5 15 13 02 19 06
  21815759.031    -2075211.075 5  -1518944.420 1
  21526890.438    -2244824.544 4
  18656584.156   -29800675.397 7 -23072569.618 4
  20270718.453    -3193457.489 6  -2454614.234 1
  19350522.078   -22518540.592 7 -17327766.553 2
 91  4  5 23 50 29.9920000  0  5 15 13 02 19 06
  21808611.805    -2112758.058 5  -1548201.716 1
  21512752.297    -2319117.365 5
  18653194.289   -29818492.452 7 -23086453.016 4
  20274019.508    -3176106.120 6  -2441093.748 1
  19342421.336   -22561113.560 7 -17360940.234 2
 91  4  5 23 50 44.9920000  0  5 15 13 02 19 06
  21801481.445    -2150211.002 5  -1577385.721 1
  21498621.875    -2393372.646 5        -0.40511
  18649812.508   -29836257.421 7 -23100295.833 4
  20277334.453    -3158687.217 6  -2427520.636 1
  19334327.078   -22603653.821 7 -17394088.437 2
 91  4  5 23 50 59.9920000  0  5 15 13 02 19 06
  21794375.375    -2187573.968 5  -1606499.641 1
  21484498.289    -2467594.244 5    -57835.153 1
  18646441.023   -29853974.501 7 -23114101.325 4
  20280661.852    -3141205.046 6  -2413898.219 1
  19326237.484   -22646165.362 7 -17427214.260 3
 91  4  5 23 51 14.9920000  0  5 15 13 02 19 06
  21787282.711    -2224840.397 5  -1635538.331 1
  21470382.625    -2541775.708 5   -115638.614 1
  18643080.773   -29871637.671 7 -23127864.815 4
  20284001.492    -3123653.441 6  -2400221.711 1
  19318154.524   -22688641.702 7 -17460312.653 2
 91  4  5 23 51 29.9920000  0  5 15 13 02 19 06
  21780208.578    -2262011.002 5  -1664502.351 1
  21456275.766    -2615917.719 5   -173411.375 1
  18639728.813   -29889248.187 7 -23141587.276 4
  20287356.734    -3106033.460 6  -2386491.929 1
  19310077.383   -22731083.777 7 -17493384.349 3
 91  4  5 23 51 44.9920000  0  5 15 13 02 19 06
  21773155.703    -2299078.413 5  -1693385.972 1
  21442173.391    -2690012.636 5   -231147.411 1
  18636389.922   -29906798.789 7 -23155263.053 4
  20290722.188    -3088337.898 6  -2372703.245 1
  19302007.906   -22773484.164 7 -17526423.559 2
 91  4  5 23 51 59.9920000  0  5 15 13 02 19 06
  21766118.461    -2336049.441 5  -1722194.472 1
  21428080.289    -2764067.329 5   -288852.107 1
  18633060.336   -29924296.873 7 -23168897.901 4
  20294102.430    -3070574.129 6  -2358861.416 1
  19293946.570   -22815849.891 7 -17559435.761 3
 91  4  5 23 52 14.9920000  0  5 15 13 02 19 06
  21759104.586    -2372924.800 5  -1750928.425 1
  21413994.586    -2838082.286 5   -346525.855 1
  18629740.680   -29941743.326 7 -23182492.518 4
  20297495.898    -3052743.069 6  -2344967.151 1
  19285891.797   -22858181.664 7 -17592421.509 3
 91  4  5 23 52 29.9920000  0  5 15 13 02 19 06
  21752106.008    -2409701.246 5  -1779585.317 1
  21399918.477    -2912054.235 5   -404166.088 1
  18626430.508   -29959135.334 7 -23196044.714 4
  20300903.359    -3034841.848 6  -2331018.217 1
  19277843.297   -22900476.315 7 -17625378.328 3
 91  4  5 23 52 44.9920000  0  5 15 13 02 19 06
  21745120.594    -2446383.725 5  -1808168.986 1
  21385847.633    -2985988.279 5   -461776.775 1
  18623130.680   -29976478.379 7 -23209558.757 4
  20304320.375    -3016875.851 6  -2317018.809 1
  19269799.969   -22942739.080 7 -17658310.304 3
 91  4  5 23 52 59.9920000  0  5 15 13 02 19 06
  21738163.602    -2482967.795 5  -1836675.976 1
  21371787.133    -3059879.699 5   -519354.246 1
  18619838.531   -29993768.387 7 -23223031.469 4
  20307753.227    -2998841.050 6  -2302965.782 1
  19261764.148   -22984965.492 7 -17691213.949 3
 91  4  5 23 53 14.9920000  0  5 15 13 02 19 06
  21731217.766    -2519455.307 5  -1865107.717 1
  21357734.430    -3133730.244 5   -576899.868 1
  18616559.289   -30011007.517 7 -23236464.542 4
  20311198.453    -2980739.559 6  -2288860.796 1
  19253735.922   -23027157.477 7 -17724090.771 3
 91  4  5 23 53 29.9920000  0  5 15 13 02 19 06
  21724293.453    -2555845.797 5  -1893463.876 1
  21343690.563    -3207539.537 5   -634413.356 1
  18613288.984   -30028195.743 7 -23249857.948 4
  20314653.227    -2962571.500 6  -2274703.935 1
  19245713.359   -23069314.862 7 -17756940.632 3
 91  4  5 23 53 44.9920000  0  5 15 13 02 19 06
  21717387.477    -2592138.009 5  -1921743.435 1
  21329654.289    -3281306.307 5   -691893.712 1
  18610026.688   -30045332.094 7 -23263210.931 4
  20318124.508    -2944335.748 6  -2260494.321 1
  19237699.656   -23111436.206 7 -17789762.414 2
 91  4  5 23 53 59.9920000  0  5 15 13 02 19 06
  21710499.367    -2628334.473 5  -1949948.371 1
  21315622.703    -3355032.657 5   -749342.557 1
  18606774.977   -30062419.333 7 -23276525.639 4
  20321609.774    -2926034.863 6  -2246233.936 1
  19229687.188   -23153524.104 7 -17822558.131 2
 91  4  5 23 54 14.9920000  0  5 15 13 02 19 06
  21703632.492    -2664428.355 5  -1978073.401 1
  21301599.195    -3428711.775 5   -806754.641 1
  18603534.867   -30079451.252 7 -23289797.236 4
  20325104.063    -2907662.899 6  -2231918.183 1
  19221687.070   -23195572.033 7 -17855322.703 2
 91  4  5 23 54 29.9920000  0  5 15 13 02 19 06
  21696779.594    -2700421.962 5  -2006120.277 1
  21287587.625    -3502345.939 5   -864131.647 1
  18600304.367   -30096430.567 7 -23303027.860 4
  20328612.969    -2889222.082 6  -2217548.776 1
  19213691.852   -23237582.303 7 -17888057.934 2
 91  4  5 23 54 44.9920000  0  5 15 13 02 19 06
  21689952.047    -2736317.119 5  -2034090.464 1
  21273585.039    -3575936.982 5   -921475.058 1
  18597082.852   -30113359.454 7 -23316219.177 4
  20332135.266    -2870714.471 6  -2203127.312 1
  19205704.984   -23279556.729 7 -17920765.230 2
 91  4  5 23 54 59.9920000  0  5 15 13 02 19 06
  21683137.922    -2772118.141 5  -2061987.248 1
  21259590.555    -3649489.307 5   -978788.309 1
  18593869.938   -30130242.578 7 -23329374.841 4
  20335667.383    -2852145.131 6  -2188657.759 1
  19197724.297   -23321499.932 7 -17953448.198 2
 91  4  5 23 55 14.9920000  0  5 15 13 02 19 06
  21676344.508    -2807814.545 5  -2089802.542 1
  21245603.524    -3722992.311 5  -1036063.127 1
  18590667.031   -30147069.964 7 -23342487.071 4
  20339216.078    -2833503.967 6  -2174132.256 1
  19189749.414   -23363401.426 7 -17986098.665 2
 91  4  5 23 55 29.9920000  0  5 15 13 02 19 06
  21669572.203    -2843404.280 5  -2117534.727 1
  21231621.156    -3796443.898 5  -1093297.905 1
  18587476.680   -30163839.919 7 -23355554.548 4
  20342777.172    -2814789.062 6  -2159549.292 1
  19181784.305   -23405259.289 7 -18018715.129 2
 91  4  5 23 55 44.9920000  0  5 15 13 02 19 06
  21662820.727    -2878893.125 5  -2145188.274 1
  21217655.836    -3869849.452 5  -1150496.785 1
  18584294.836   -30180558.208 7 -23368581.764 4
  20346352.953    -2796006.469 6  -2144913.555 1
  19173826.664   -23447079.064 7 -18051301.925 2
 91  4  5 23 55 59.9920000  0  5 15 13 02 19 06
  21656085.305    -2914280.452 5  -2172762.736 1
  21203693.078    -3943208.457 5  -1207659.387 1
  18581123.820   -30197224.964 7 -23381568.828 4
  20349939.109    -2777156.253 6  -2130225.128 1
  19165875.742   -23488860.666 7 -18083858.972 2
 91  4  5 23 56 14.9920000  0  5 15 13 02 19 06
  21649366.867    -2949570.764 5  -2200261.599 1
  21189740.797    -4016525.175 5  -1264789.041 1
  18577960.484   -30213844.673 7 -23394519.229 4
  20353535.883    -2758242.724 6  -2115487.368 1
  19157932.086   -23530608.134 7 -18116389.424 2
 91  4  5 23 56 29.9920000  0  5 15 13 02 19 06
  21642670.609    -2984762.541 5  -2227683.660 1
  21175796.734    -4089798.361 5  -1321884.809 1
  18574807.641   -30230416.473 7 -23407432.300 4
  20357148.023    -2739265.156 6  -2100699.701 1
  19149994.805   -23572320.504 7 -18148892.526 2
 91  4  5 23 56 44.9920000  0  5 15 13 02 19 06
  21635994.906    -3019858.488 5  -2255031.073 1
  21161864.688    -4163030.182 5  -1378948.322 1
  18571661.281   -30246943.258 7 -23420310.297 4
  20360772.945    -2720226.307 6  -2085864.295 1
  19142062.758   -23614000.353 7 -18181370.288 2
 91  4  5 23 56 59.9920000  0  5 15 13 02 19 06
  21629334.281    -3054846.572 5  -2282294.411 1
  21147937.672    -4236208.743 5  -1435970.348 1
  18568527.938   -30263413.495 7 -23433144.227 4
  20364408.086    -2701114.552 6  -2070972.098 1
  19134139.961   -23655635.629 7 -18213813.318 3
 91  4  5 23 57 14.9920000  0  5 15 13 02 19 06
  21622696.609    -3089733.013 5  -2309478.560 1
  21134020.383    -4309340.299 5  -1492955.716 1
  18565403.141   -30279833.831 7 -23445939.276 4
  20368058.883    -2681936.516 6  -2056028.242 1
  19126224.188   -23697232.813 7 -18246226.663 3
 91  4  5 23 57 29.9920000  0  5 15 13 02 19 06
  21616076.039    -3124523.353 5  -2336587.844 1
  21120113.125    -4382430.440 5  -1549908.824 1
  18562286.055   -30296210.185 7 -23458700.052 4
  20371719.727    -2662698.091 6  -2041037.315 1
  19118313.750   -23738797.464 7 -18278614.660 3
 91  4  5 23 57 44.9920000  0  5 15 13 02 19 06
  21609474.977    -3159205.118 5  -2363612.486 1
  21106215.688    -4455466.433 5  -1606819.741 1
  18559180.813   -30312530.580 7 -23471417.215 4
  20375393.953    -2643387.085 5  -2025989.826 1
  19110414.008   -23780317.259 7 -18310967.706 3
 91  4  5 23 57 59.9920000  0  5 15 13 02 19 06
  21602896.516    -3193784.083 5  -2390557.038 1
  21092325.344    -4528453.688 5  -1663692.699 1
  18556085.523   -30328800.887 7 -23484095.357 4
  20379081.203    -2624009.490 5  -2010890.453 1
  19102519.539   -23821797.665 7 -18343290.058 3
 91  4  5 23 58 14.9920000  0  5 15 13 02 19 06
  21596335.914    -3228264.246 5  -2417424.607 1
  21078444.227    -4601396.266 5  -1720530.833 1
  18552998.336   -30345025.411 7 -23496737.827 4
  20382779.492    -2604569.886 5  -1995742.761 1
  19094634.359   -23863243.130 7 -18375585.185 2
 91  4  5 23 58 29.9920000  0  5 15 13 02 19 06
  21589792.719    -3262643.861 5  -2444213.827 1
  21064569.602    -4674292.487 5  -1777332.837 1
  18549918.930   -30361202.758 7 -23509343.535 4
  20386493.836    -2585066.738 5  -1980545.583 1
  19086752.250   -23904651.875 7 -18407851.696 3
 91  4  5 23 58 44.9920000  0  5 15 13 02 19 06
  21583268.055    -3296908.265 5  -2470913.277 1
  21050712.109    -4747127.610 5  -1834087.235 1
  18546853.188   -30377318.859 7 -23521901.515 4
  20390218.172    -2565485.885 5  -1965287.847 1
  19078882.602   -23946009.341 7 -18440078.249 3
 91  4  5 23 58 59.9920000  0  5 15 13 02 19 06
  21576771.086    -3331060.335 5  -2497525.199 1
  21036862.195    -4819904.213 5  -1890796.029 1
  18543795.617   -30393376.755 7 -23534414.138 4
  20393961.555    -2545830.285 5  -1949971.870 1
  19071022.469   -23987318.162 7 -18472266.899 3
 91  4  5 23 59 14.9920000  0  5 15 13 02 19 06
  21570293.578    -3365106.379 5  -2524054.497 1
  21023024.219    -4892628.368 5  -1947463.974 1
  18540749.766   -30409383.013 7 -23546886.533 4
  20397712.648    -2526106.605 5  -1934602.839 1
  19063169.258   -24028584.870 7 -18504422.731 3
 91  4  5 23 59 29.9920000  0  5 15 13 02 19 06
  21563835.688    -3399047.552 5  -2550502.078 1
  21009193.758    -4965301.916 5  -2004092.471 1
  18537714.766   -30425339.538 7 -23559320.173 4
  20401478.188    -2506316.681 5  -1919182.169 1
  19055325.164   -24069810.927 7 -18536546.888 3
 91  4  5 23 59 44.9920000  0  5 15 13 02 19 06
  21557395.688    -3432886.232 5  -2576869.790 1
  20995372.516    -5037926.332 5  -2060682.699 1
  18534687.430   -30441248.667 7 -23571716.880 4
  20405256.570    -2486462.721 5  -1903711.612 1
  19047487.531   -24110998.416 7 -18568640.987 3
 91  4  5 23 59 59.9920000  0  5 15 13 02 19 06
  21550976.422    -3466620.098 5  -2603155.830 1
  20981563.984    -5110499.285 5  -2117232.798 1
  18531669.680   -30457108.466 7 -23584075.147 4
  20409046.406    -2466542.928 5  -1888189.756 1
  19039657.172   -24152145.177 7 -18600703.350 3
 91  4  6  0  0 14.9920000  0  5 15 13 02 19 06
  21544576.336    -3500249.290 5  -2629360.319 1
  20967762.898    -5183021.118 5  -2173743.087 1
  18528659.234   -30472919.529 7 -23596395.443 4
  20412851.172    -2446557.754 5  -1872616.950 1
  19031834.164   -24193251.574 7 -18632734.264 3
 91  4  6  0  0 29.9920000  0  5 15 13 02 19 06
  21538200.008    -3533769.185 5  -2655479.642 1
  20953972.367    -5255487.205 5  -2230209.910 1
  18525661.477   -30488677.748 7 -23608674.557 4
  20416667.961    -2426503.139 5  -1856990.045 1
  19024021.109   -24234312.829 7 -18664729.998 3
 91  4  6  0  0 44.9920000  0  5 15 13 02 19 06
  21531840.117    -3567183.799 5  -2681516.911 1
  20940192.531    -5327901.545 5  -2286636.447 1
  18522671.266   -30504387.625 7 -23620916.004 4
  20420496.859    -2406383.388 5  -1841312.384 1
  19016214.125   -24275333.345 7 -18696693.991 3
 91  4  6  0  0 59.9920000  0  5 15 13 02 19 06
  21525503.422    -3600485.384 5  -2707466.117 1
  20926422.461    -5400256.287 5  -2343016.516 1
  18519693.102   -30520041.620 7 -23633113.903 4
  20424337.313    -2386191.045 5  -1825578.139 1
  19008417.539   -24316305.280 7 -18728620.127 3
 91  4  6  0  1 14.9920000  0  5 15 13 02 19 06
  21519187.930    -3633675.489 5  -2733328.468 1
  20912665.813    -5472552.807 5  -2399351.197 1
  18516724.563   -30535641.567 7 -23645269.692 4
  20428195.469    -2365927.928 5  -1809788.761 1
  19000629.492   -24357230.053 7 -18760509.514 3
 91  4  6  0  1 29.9920000  0  5 15 13 02 19 06
  21512889.969    -3666760.982 5  -2759109.296 1
  20898918.672    -5544797.680 5  -2455645.661 1
  18513765.047   -30551194.543 8 -23657388.881 4
  20432061.391    -2345601.257 5  -1793949.857 1
  18992851.008   -24398114.641 7 -18792367.588 3
 91  4  6  0  1 44.9920000  0  5 15 13 02 19 06
  21506616.016    -3699734.507 5  -2784802.881 1
  20885180.047    -5616983.454 5  -2511894.092 1
  18510815.109   -30566693.661 8 -23669466.104 4
  20435946.078    -2325204.009 5  -1778055.971 1
  18985078.609   -24438951.783 7 -18824188.691 3
 91  4  6  0  1 59.9920000  0  5 15 13 02 19 06
  21500362.023    -3732595.453 5  -2810408.728 1
  20871453.133    -5689109.358 5  -2568095.854 1
  18507875.984   -30582138.516 8 -23681501.042 4
  20439840.336    -2304735.778 5  -1762106.774 1
  18977317.500   -24479740.676 7 -18855972.197 3
 91  4  6  0  2 14.9920000  0  5 15 13 02 19 06
  21494129.039    -3765335.311 5  -2835920.228 1
  20857744.242    -5761167.151 5  -2624244.526 1
  18504948.750   -30597521.293 8 -23693487.608 4
  20443749.953    -2284188.598 5  -1746096.054 1
  18969565.352   -24520473.372 7 -18887711.910 3
 91  4  6  0  2 29.9920000  0  5 15 13 02 19 06
  21487919.219    -3797962.152 5  -2861343.660 1
  20844042.758    -5833164.399 5  -2680346.044 1
  18502032.891   -30612850.091 8 -23705432.112 4
  20447671.727    -2263570.730 5  -1730030.242 1
  18961824.977   -24561157.532 7 -18919413.808 3
 91  4  6  0  2 44.9920000  0  5 15 13 02 19 06
  21481737.484    -3830479.731 5  -2886681.955 1
  20830351.867    -5905104.930 5  -2736403.344 1
  18499124.203   -30628128.949 8 -23717337.705 4
  20451611.414    -2242886.207 5  -1713912.502 1
  18954090.352   -24601797.060 7 -18951080.922 3
 91  4  6  0  2 59.9920000  0  5 15 13 02 19 06
  21475568.758    -3862887.198 5  -2911934.436 1
  20816673.867    -5976987.772 5  -2792415.679 1
  18496226.406   -30643357.364 8 -23729203.991 4
  20455556.359    -2222134.497 5  -1697742.403 1
  18946366.375   -24642391.051 7 -18982712.552 3
 91  4  6  0  3 14.9920000  0  5 15 13 02 19 06
  21469422.492    -3895179.132 5  -2937096.899 1
  20803005.922    -6048807.546 5  -2848378.909 1
  18493339.820   -30658530.355 8 -23741027.091 4
  20459521.984    -2201310.654 5  -1681516.092 1
  18938649.992   -24682934.129 7 -19014304.509 3
 91  4  6  0  3 29.9920000  0  5 15 13 02 19 06
  21463303.109    -3927360.693 5  -2962173.355 1
  20789349.367    -6120569.161 5  -2904296.809 1
  18490462.031   -30673653.496 8 -23752811.347 4
  20463496.703    -2180420.162 5  -1665237.862 1
  18930944.148   -24723431.655 7 -19045860.971 3
 91  4  6  0  3 44.9920000  0  5 15 13 02 19 06
  21457196.461    -3959428.753 5  -2987161.379 1
  20775707.375    -6192269.617 5  -2960167.029 1
  18487593.555   -30688724.031 8 -23764554.614 4
  20467485.664    -2159460.287 5  -1648905.559 1
  18923247.313   -24763880.576 7 -19077379.559 3
 91  4  6  0  3 59.9920000  0  5 15 13 02 19 06
  21451115.578    -3991387.282 5  -3012064.079 1
  20762073.031    -6263912.660 5  -3015992.534 1
  18484735.430   -30703746.344 8 -23776260.306 4
  20471487.227    -2138435.553 5  -1632522.720 1
  18915558.523   -24804284.893 7 -19108863.390 3
 91  4  6  0  4 14.9920000  0  5 15 13 02 19 06
  21445053.727    -4023230.419 5  -3036876.820 1
  20748455.227    -6335492.277 5  -3071768.580 1
  18481886.578   -30718714.716 8 -23787923.963 4
  20475499.727    -2117340.148 5  -1616084.823 1
  18907877.805   -24844638.624 7 -19140307.801 3
 91  4  6  0  4 29.9920000  0  5 15 13 02 19 06
  21439017.586    -4054959.836 5  -3061600.972 1
  20734842.477    -6407009.970 5  -3127496.430 1
  18479047.945   -30733630.831 8 -23799546.899 4
  20479526.992    -2096175.731 5  -1599593.161 1
  18900208.797   -24884943.291 7 -19171713.987 3
 91  4  6  0  4 44.9920000  0  5 15 13 02 19 06
  21433002.609    -4086577.338 5  -3086237.910 1
  20721244.711    -6478467.341 5  -3183177.261 1
  18476219.578   -30748496.987 8 -23811130.905 4
  20483568.813    -2074944.584 5  -1583049.487 1
  18892548.492   -24925200.865 7 -19203083.474 3
 91  4  6  0  4 59.9920000  0  5 15 13 02 19 06
  21427008.742    -4118077.356 5  -3110783.297 1
  20707659.359    -6549859.095 5  -3238806.935 1
  18473401.383   -30763308.290 8 -23822672.174 4
  20487621.891    -2053641.736 5  -1566449.927 1
  18884898.273   -24965405.962 7 -19234412.073 3
 91  4  6  0  5 14.9920000  0  5 15 13 02 19 06
  21421032.078    -4149468.401 5  -3135243.767 1
  20694085.602    -6621193.390 5  -3294391.850 1
  18470590.938   -30778073.610 8 -23834177.611 4
  20491686.945    -2032275.951 5  -1549801.332 1
  18877254.617   -25005567.156 7 -19265706.456 3
 91  4  6  0  5 29.9920000  0  5 15 13 02 19 06
  21415080.789    -4180744.474 5  -3159614.658 1
  20680517.781    -6692464.119 5  -3349927.245 1
  18467790.688   -30792787.027 8 -23845642.602 4
  20495765.742    -2010841.570 5  -1533099.301 1
  18869622.938   -25045678.366 7 -19296961.897 3
 91  4  6  0  5 44.9920000  0  5 15 13 02 19 06
  21409151.234    -4211908.664 5  -3183898.373 1
  20666967.078    -6763674.279 5  -3405415.438 1
  18465000.609   -30807452.085 8 -23857069.910 4
  20499857.391    -1989342.260 5  -1516346.686 1
  18861997.469   -25085742.737 7 -19328180.836 3
 91  4  6  0  5 59.9920000  0  5 15 13 02 19 06
  21403241.359    -4242967.670 5  -3208100.136 1
  20653428.828    -6834830.450 5  -3460861.571 1
  18462218.305   -30822075.496 8 -23868464.767 4
  20503958.984    -1967784.565 5  -1499548.554 1
  18854383.273   -25125766.829 7 -19359368.390 3
 91  4  6  0  6 14.9920000  0  5 15 13 02 19 06
  21397353.016    -4273911.040 5  -3232211.777 1
  20639898.109    -6905921.821 5  -3516257.193 1
  18459445.789   -30836647.036 8 -23879819.203 4
  20508075.188    -1946158.287 5  -1482696.991 1
  18846774.844   -25165739.968 7 -19390516.240 3
 91  4  6  0  6 29.9920000  0  5 15 13 02 19 06
  21391488.313    -4304739.039 5  -3256233.525 1
  20626384.266    -6976948.922 5  -3571602.756 1
  18456681.242   -30851167.926 8 -23891134.170 4
  20512205.023    -1924464.381 5  -1465792.731 1
  18839177.852   -25205662.910 7 -19421624.981 3
 91  4  6  0  6 44.9920000  0  5 15 13 02 19 06
  21385642.875    -4335452.470 5  -3280165.991 1
  20612879.016    -7047912.458 5  -3626898.779 1
  18453927.383   -30865639.078 8 -23902410.384 4
  20516345.453    -1902703.978 5  -1448836.652 1
  18831589.211   -25245536.515 7 -19452695.273 3
 91  4  6  0  6 59.9920000  0  5 15 13 02 19 06
  21379820.258    -4366046.585 5  -3304005.490 1
  20599389.125    -7118807.539 5  -3682141.468 1
  18451184.281   -30880055.887 7 -23913644.249 4
  20520496.563    -1880872.566 5  -1431825.247 1
  18824013.531   -25285355.819 7 -19483723.253 3
 91  4  6  0  7 14.9920000  0  5 15 13 02 19 06
  21374018.188    -4396526.710 5  -3327756.137 1
  20585912.469    -7189639.351 5  -3737334.863 1
  18448450.914   -30894424.023 8 -23924840.188 4
  20524666.961    -1858975.749 5  -1414762.869 1
  18816445.422   -25325126.287 7 -19514713.177 3
 91  4  6  0  7 29.9920000  0  5 15 13 02 19 06
  21368243.008    -4426892.429 5  -3351417.648 1
  20572445.656    -7260407.319 5  -3792478.508 1
  18445725.273   -30908743.690 8 -23935998.358 4
  20528843.031    -1837013.690 5  -1397649.661 1
  18808887.273   -25364847.566 7 -19545664.775 3
 91  4  6  0  7 44.9920000  0  5 15 13 02 19 06
  21362484.016    -4457145.820 5  -3374991.651 1
  20558990.430    -7331113.330 5  -3847573.862 1
  18443009.805   -30923016.869 8 -23947120.301 4
  20533036.344    -1814988.377 5  -1380487.150 1
  18801336.602   -25404521.569 7 -19576579.541 3
 91  4  6  0  7 59.9920000  0  5 15 13 02 19 06
  21356748.930    -4487281.250 5  -3398473.727 1
  20545544.727    -7401751.784 5  -3902616.602 1
  18440302.727   -30937238.396 8 -23958201.999 4
  20537239.164    -1792894.645 5  -1363271.327 1
  18793796.617   -25444142.624 7 -19607453.047 3
 91  4  6  0  8 14.9920000  0  5 15 13 02 19 06
  21351036.063    -4517300.778 5  -3421865.481 1
  20532116.398    -7472324.673 5  -3957608.222 1
  18437606.102   -30951410.619 8 -23969245.272 4
  20541458.313    -1770734.879 5  -1346004.048 1
  18786265.422   -25483712.804 7 -19638286.907 3
 91  4  6  0  8 29.9920000  0  5 15 13 02 19 06
  21345346.094    -4547206.661 5  -3445168.686 1
  20518699.031    -7542834.102 5  -4012550.436 1
  18434918.633   -30965536.177 8 -23980252.187 4
  20545686.547    -1748511.901 5  -1328687.524 1
  18778746.195   -25523234.637 7 -19669083.097 3
 91  4  6  0  8 44.9920000  0  5 15 13 02 19 06
  21339677.391    -4576985.412 5  -3468372.831 1
  20505295.703    -7613266.365 5  -4067432.509 1
  18432241.430   -30979601.953 8 -23991212.511 4
  20549930.938    -1726212.264 5  -1311311.270 1
  18771237.555   -25562694.296 7 -19699830.840 3
 91  4  6  0  8 59.9920000  0  5 15 13 02 19 06
  21334033.711    -4606645.594 5  -3491484.593 1
  20491905.680    -7683629.851 5  -4122260.962 1
  18429574.930   -30993616.664 7 -24002133.048 4
  20554184.555    -1703844.815 5  -1293882.160 1
  18763739.000   -25602100.603 7 -19730537.012 3
 91  4  6  0  9 14.9920000  0  5 15 13 02 19 06
  21328411.930    -4636193.007 5  -3514508.465 1
  20478527.938    -7753930.276 5  -4177040.294 1
  18426916.344   -31007586.362 7 -24013018.508 4
  20558455.266    -1681415.698 5  -1276405.003 1
  18756248.852   -25641459.226 7 -19761206.021 3
 91  4  6  0  9 29.9920000  0  5 15 13 02 19 06
  21322813.055    -4665626.895 5  -3537443.883 1
  20465161.039    -7824166.776 5  -4231769.849 1
  18424265.805   -31021510.805 7 -24023868.699 4
  20562732.555    -1658924.559 5  -1258879.521 1
  18748768.469   -25680769.361 7 -19791837.255 3
 91  4  6  0  9 44.9920000  0  5 15 13 02 19 06
  21317230.164    -4694949.633 5  -3560292.706 1
  20451809.766    -7894341.703 5  -4286451.374 1
  18421625.313   -31035392.388 7 -24034685.498 4
  20567025.813    -1636374.012 5  -1241307.753 1
  18741296.703   -25720033.227 7 -19822432.432 3
 91  4  6  0  9 59.9920000  0  5 15 13 02 19 06
  21311673.477    -4724157.681 5  -3583052.140 1
  20438468.820    -7964451.501 5  -4341082.179 1
  18418991.938   -31049228.094 7 -24045466.543 4
  20571327.961    -1613760.872 5  -1223687.202 1
  18733834.516   -25759247.706 7 -19852989.126 3
 91  4  6  0 10 14.9920000  0  5 15 13 02 19 06
  21306137.273    -4753242.716 5  -3605715.726 1
  20425140.156    -8034487.601 5  -4395655.555 1
  18416368.836   -31063009.971 7 -24056205.642 4
  20575646.594    -1591077.169 5  -1206011.686 1
  18726383.289   -25798404.223 7 -19883500.656 3
 91  4  6  0 10 29.9920000  0  5 15 13 02 19 06
  21300626.523    -4782207.851 5  -3628285.890 1
  20411825.070    -8104452.975 5  -4450173.822 1
  18413756.063   -31076741.264 7 -24066905.329 4
  20579973.859    -1568326.471 5  -1188283.947 1
  18718941.773   -25837505.954 7 -19913969.495 3
 91  4  6  0 10 44.9920000  0  5 15 13 02 19 06
  21295135.938    -4811057.246 5  -3650765.862 1
  20398521.844    -8174351.471 5  -4504639.967 1
  18411152.375   -31090426.271 7 -24077568.949 4
  20584315.516    -1545512.947 5  -1170507.252 1
  18711511.414   -25876556.865 7 -19944398.737 3
 91  4  6  0 10 59.9920000  0  5 15 13 02 19 06
  21289668.086    -4839788.445 5  -3673153.734 1
  20385230.273    -8244180.594 5  -4559052.075 1
  18408556.961   -31104062.988 7 -24088194.936 4
  20588668.320    -1522634.619 5  -1152680.062 1
  18704089.578   -25915554.603 7 -19974786.540 3
 91  4  6  0 11 14.9920000  0  5 15 13 02 19 06
  21284227.422    -4868391.221 5  -3695441.548 1
  20371962.984    -8313929.790 5  -4613401.865 1
  18405972.938   -31117641.629 7 -24098775.676 4
  20593039.188    -1499681.576 5  -1134794.659 1
  18696680.125   -25954489.054 7 -20005125.035 3
 91  4  6  0 11 29.9920000  0  5 15 13 02 19 06
  21278806.352    -4896879.038 5  -3717639.770 1
  20358701.664    -8383612.901 5  -4667700.210 1
  18403398.227   -31131176.008 7 -24109321.920 4
  20597416.609    -1476667.727 5  -1116861.868 1
  18689281.266   -25993373.589 7 -20035424.631 3
 91  4  6  0 11 44.9920000  0  5 15 13 02 19 06
  21273404.008    -4925252.809 5  -3739749.136 1
  20345455.844    -8453230.428 6  -4721947.410 1
  18400830.578   -31144667.150 7 -24119834.478 4
  20601808.289    -1453594.099 5  -1098882.507 1
  18681892.055   -26032209.110 7 -20065686.031 3
 91  4  6  0 11 59.9920000  0  5 15 13 02 19 06
  21268025.930    -4953511.490 5  -3761768.824 1
  20332217.594    -8522781.438 6  -4776142.810 1
  18398271.281   -31158114.365 7 -24130312.806 4
  20606209.672    -1430460.195 5  -1080856.159 1
  18674510.305   -26070994.417 7 -20095908.309 3
 91  4  6  0 12 14.9920000  0  5 15 13 02 19 06
  21262671.625    -4981648.467 5  -3783693.672 1
  20318997.852    -8592258.910 6  -4830280.902 1
  18395722.320   -31171511.253 7 -24140751.916 4
  20610624.859    -1407259.407 5  -1062777.692 1
  18667140.609   -26109723.005 7 -20126086.389 3
 91  4  6  0 12 29.9920000  0  5 15 13 02 19 06
  21257342.656    -5009659.928 5  -3805520.712 1
  20305792.492    -8661658.931 6  -4884358.638 1
  18393183.297   -31184854.332 7 -24151149.100 4
  20615053.688    -1383988.307 5  -1044644.451 1
  18659782.641   -26148391.003 7 -20156217.252 3
 91  4  6  0 12 44.9920000  0  5 15 13 02 19 06
  21252035.149    -5037552.939 5  -3827255.458 1
  20292600.023    -8730988.375 6  -4938381.363 1
  18390651.867   -31198151.022 7 -24161510.133 4
  20619493.969    -1360654.344 5  -1026462.215 1
  18652433.336   -26187005.343 7 -20186306.304 3
 91  4  6  0 12 59.9910000  0  5 15 13 02 19 06
  21246750.378    -5065321.184 5  -3848892.974 1
  20279418.769    -8800238.410 6  -4992342.235 1
  18388132.581   -31211396.285 7 -24171831.103 4
  20623948.722    -1337255.096 5  -1008229.121 1
  18645097.722   -26225559.145 7 -20216348.186 3
 91  4  6  0 13 14.9910000  0  5 15 13 02 19 06
  21241487.026    -5092970.035 5  -3870437.461 1
  20266255.917    -8869419.601 6  -5046249.452 1
  18385619.784   -31224593.689 7 -24182114.775 4
  20628412.737    -1313789.178 5   -989944.076 1
  18637771.253   -26264059.141 7 -20246348.142 3
 91  4  6  0 13 29.9910000  0  5 15 13 02 19 06
  21236252.308    -5120497.066 5  -3891887.006 1
  20253104.409    -8938526.274 6  -5100098.610 1
  18383119.870   -31237742.009 7 -24192360.201 4
  20632888.355    -1290257.749 5   -971607.981 1
  18630455.347   -26302501.951 7 -20276303.531 3
 91  4  6  0 13 44.9910000  0  5 15 13 02 19 06
  21231034.870    -5147906.147 5  -3913244.662 1
  20239968.112    -9007562.629 6  -5153892.988 1
  18380625.589   -31250845.584 7 -24202570.765 4
  20637378.081    -1266665.164 5   -953224.227 1
  18623150.589   -26340891.798 7 -20306217.655 3
 91  4  6  0 13 59.9910000  0  5 15 13 02 19 06
  21225844.159    -5175190.105 5  -3934504.799 1
  20226846.597    -9076521.398 6  -5207626.886 1
  18378141.120   -31263897.327 7 -24212740.935 4
  20641883.511    -1243004.635 5   -934787.542 1
  18615855.331   -26379221.308 7 -20336084.763 3
 91  4  6  0 14 14.9910000  0  5 15 13 02 19 06
  21220674.550    -5202352.776 5  -3955670.440 1
  20213736.089    -9145405.909 6  -5261302.922 1
  18375667.964   -31276901.339 7 -24222873.917 4
  20646398.284    -1219280.133 5   -916301.008 1
  18608573.581   -26417494.065 7 -20365907.643 3
 91  4  6  0 14 29.9910000  0  5 15 13 02 19 06
  21215527.159    -5229387.895 5  -3976736.694 1
  20200644.034    -9214210.074 6  -5314916.371 1
  18373203.355   -31289851.864 7 -24232965.220 4
  20650927.245    -1195485.918 5   -897760.153 1
  18601302.175   -26455704.145 7 -20395681.683 3
 91  4  6  0 14 44.9910000  0  5 15 13 02 19 06
  21210408.855    -5256306.307 5  -3997712.000 1
  20187561.667    -9282944.173 6  -5368475.222 1
  18370746.472   -31302759.849 7 -24243023.375 4
  20655464.331    -1171632.883 5   -879173.464 1
  18594041.573   -26493862.108 7 -20425415.121 3
 91  4  6  0 14 59.9910000  0  5 15 13 02 19 06
  21205309.105    -5283098.973 5  -4018589.322 1
  20174497.026    -9351599.072 6  -5421972.336 1
  18368299.917   -31315616.508 7 -24253041.534 4
  20660017.683    -1147712.500 5   -860534.297 1
  18586791.573   -26531958.790 7 -20455100.801 3
 91  4  6  0 15 14.9910000  0  5 15 13 02 19 06
  21200233.636    -5309770.799 5  -4039372.499 1
  20161447.581    -9420179.941 6  -5475411.785 1
  18365862.425   -31328427.126 7 -24263023.822 4
  20664580.956    -1123730.024 5   -841846.748 1
  18579551.222   -26569999.246 7 -20484742.666 3
 91  4  6  0 15 29.9910000  0  5 15 13 02 19 06
  21195182.253    -5336317.036 5  -4060057.787 1
  20148412.034    -9488681.860 6  -5528789.718 1
  18363433.480   -31341187.067 8 -24272966.620 4
  20669155.237    -1099680.791 5   -823107.181 1
  18572324.144   -26607978.544 7 -20514336.877 3
 91  4  6  0 15 44.9910000  0  5 15 13 02 19 06
  21190154.425    -5362740.673 5  -4080647.569 1
  20135389.089    -9557107.396 6  -5582108.144 1
  18361014.323   -31353899.515 8 -24282872.416 4
  20673744.237    -1075568.008 5   -804318.088 1
  18565109.464   -26645899.544 7 -20543885.660 3
 91  4  6  0 15 59.9910000  0  5 15 13 02 19 06
  21185149.722    -5389041.736 5  -4101141.825 1
  20122385.073    -9625456.605 6  -5635367.085 1
  18358604.472   -31366564.956 8 -24292741.580 4
  20678347.237    -1051392.344 5   -785479.999 1
  18557904.144   -26683762.552 7 -20573389.258 3
 91  4  6  0 16 14.9910000  0  5 15 13 02 19 06
  21180167.464    -5415217.393 5  -4121538.382 1
  20109392.534    -9693726.772 6  -5688564.411 1
  18356204.245   -31379181.105 8 -24302572.335 4
  20682960.167    -1027151.369 5   -766591.019 1
  18550709.519   -26721564.783 7 -20602845.493 3
 91  4  6  0 16 29.9910000  0  5 15 13 02 19 06
  21175208.839    -5441265.671 5  -4141835.661 1
  20096416.878    -9761915.520 6  -5741698.327 1
  18353813.526   -31391745.906 8 -24312363.079 4
  20687586.097    -1002842.948 5   -747649.480 1
  18543529.722   -26759303.709 7 -20632252.403 3
 91  4  6  0 16 44.9910000  0  5 15 13 02 19 06
  21170278.964    -5467179.784 5  -4162028.408 1
  20083457.050    -9830015.853 6  -5794763.343 1
  18351433.034   -31404253.040 8 -24322108.886 4
  20692223.995     -978460.840 5   -728650.531 1
  18536360.558   -26796972.933 7 -20661604.999 3
 91  4  6  0 16 59.9910000  0  5 15 13 02 19 06
  21165368.253    -5492977.340 5  -4182130.335 1
  20070510.784    -9898045.220 6  -5847773.055 1
  18349060.722   -31416720.158 8 -24331823.518 4
  20696875.581     -954022.875 5   -709608.050 1
  18529202.019   -26834589.762 7 -20690916.768 3
 91  4  6  0 17 14.9910000  0  5 15 13 02 19 06
  21160485.222    -5518652.700 5  -4202137.036 1
  20057582.315    -9965997.691 6  -5900722.856 1
  18346696.245   -31429141.726 8 -24341502.656 4
  20701538.136     -929523.505 5   -690517.725 1
  18522055.503   -26872148.214 7 -20720183.047 3
 91  4  6  0 17 29.9910000  0  5 15 13 02 19 06
  21155623.480    -5544196.833 5  -4222041.484 1
  20044667.347   -10033864.364 6  -5953605.803 1
  18344343.722   -31441509.328 8 -24351139.743 4
  20706211.675     -904954.472 5   -671373.126 1
  18514920.409   -26909639.732 7 -20749397.174 3
 91  4  6  0 17 44.9910000  0  5 15 13 02 19 06
  21150785.683    -5569615.317 5  -4241848.037 1
  20031766.370   -10101650.578 6  -6006426.045 1
  18341998.542   -31453828.625 8 -24360739.186 4
  20710899.589     -880321.389 5   -652178.596 1
  18507798.034   -26947069.619 7 -20778563.278 3
 91  4  6  0 17 59.9910000  0  5 15 13 02 19 06
  21145972.300    -5594909.767 5  -4261557.921 1
  20018882.565   -10169357.730 6  -6059184.686 1
  18339662.972   -31466101.513 8 -24370302.474 4
  20715597.894     -855626.151 5   -632935.649 1
  18500686.269   -26984439.541 7 -20807682.645 3
 91  4  6  0 18 14.9910000  0  5 15 13 02 19 06
  21141183.073    -5620081.909 5  -4281172.502 1
  20006011.620   -10236987.471 6  -6111883.011 1
  18337336.948   -31478329.898 8 -24379831.078 4
  20720313.222     -830870.819 5   -613645.882 1
  18493586.526   -27021750.921 7 -20836756.407 3
 91  4  6  0 18 29.9910000  0  5 15 13 02 19 06
  21136413.128    -5645136.719 5  -4300695.683 1
  19993159.550   -10304544.405 6  -6164524.587 1
  18335016.370   -31490518.837 7 -24389328.946 4
  20725029.581     -806060.585 5   -594313.342 1
  18486497.737   -27059008.837 7 -20865788.504 3
 91  4  6  0 18 44.9910000  0  5 15 13 02 19 06
  21131670.441    -5670067.169 5  -4320121.938 1
  19980318.261   -10372021.782 6  -6217104.194 1
  18332705.753   -31502661.936 8 -24398791.092 4
  20729764.308     -781188.970 5   -574932.958 1
  18479418.050   -27096206.277 7 -20894773.479 3
 91  4  6  0 18 59.9910000  0  5 15 13 02 19 06
  21126949.105    -5694867.800 5  -4339447.052 1
  19967493.097   -10439413.709 6  -6269617.211 1
  18330405.019   -31514753.763 8 -24408213.289 4
  20734511.972     -756250.338 5   -555500.352 1
  18472352.855   -27133337.569 7 -20923706.910 3
 91  4  6  0 19 14.9910000  0  5 15 13 02 19 06
  21122252.425    -5719551.353 5  -4358680.925 1
  19954682.761   -10506733.252 6  -6322073.821 1
  18328111.808   -31526807.567 8 -24417605.860 4
  20739267.362     -731258.220 5   -536026.077 1
  18465297.097   -27170415.541 7 -20952598.793 3
 91  4  6  0 19 29.9910000  0  5 15 13 02 19 06
  21117579.339    -5744118.533 5  -4377824.139 1
  19941885.308   -10573980.504 6  -6374474.102 1
  18325826.487   -31538824.033 8 -24426969.333 4
  20744029.511     -706213.425 5   -516510.754 1
  18458250.870   -27207440.747 7 -20981449.555 3
 91  4  6  0 19 44.9910000  0  5 15 13 02 19 06
  21112927.440    -5768559.875 5  -4396869.282 1
  19929105.534   -10641145.760 6  -6426810.497 1
  18323546.956   -31550793.844 8 -24436296.449 4
  20748810.745     -681106.616 5   -496947.097 1
  18451217.284   -27244403.593 7 -21010251.734 3
 91  4  6  0 19 59.9910000  0  5 15 13 02 19 06
  21108301.456    -5792871.806 5  -4415813.596 1
  19916338.347   -10708225.401 6  -6479080.180 1
  18321278.261   -31562713.743 8 -24445584.674 4
  20753597.245     -655934.641 5   -477332.661 1
  18444195.730   -27281300.415 7 -21039002.465 3
 91  4  6  0 20 14.9910000  0  5 15 13 02 19 06
  21103697.487    -5817062.310 5  -4434663.286 1
  19903588.776   -10775227.524 6  -6531289.445 1
  18319019.151   -31574592.085 8 -24454840.515 4
  20758400.972     -630705.954 5   -457674.048 1
  18437185.855   -27318139.474 7 -21067708.187 3
 91  4  6  0 20 29.9910000  0  5 15 13 02 19 06
  21099118.683    -5841129.716 5  -4453417.055 1
  19890854.706   -10842150.095 6  -6583436.737 1
  18316766.284   -31586427.359 8 -24464062.798 4
  20763211.909     -605419.010 5   -437970.045 1
  18430187.964   -27354918.551 7 -21096367.174 3
 91  4  6  0 20 44.9910000  0  5 15 13 02 19 06
  21094562.792    -5865072.085 5  -4472073.397 1
  19878134.769   -10908991.093 6  -6635520.461 1
  18314522.417   -31598217.997 8 -24473250.299 4
  20768037.136     -580072.181 5   -418219.374 1
  18423199.956   -27391635.975 7 -21124978.116 3
 91  4  6  0 20 59.9910000  0  5 15 13 02 19 06
  21090030.144    -5888887.400 5  -4490630.733 1
  19865430.776   -10975748.359 6  -6687538.932 1
  18312288.167   -31609962.038 8 -24482401.494 4
  20772871.065     -554663.451 5   -398420.460 1
  18416225.894   -27428289.452 7 -21153539.227 3
 91  4  6  0 21 14.9910000  0  5 15 13 02 19 06
  21085523.097    -5912570.695 5  -4509085.199 1
  19852743.612   -11042416.918 6  -6739488.296 1
  18310063.128   -31621654.891 8 -24491512.805 4
  20777721.808     -529188.651 5   -378570.084 1
  18409263.120   -27464874.095 7 -21182046.707 3
 91  4  6  0 21 29.9910000  0  5 15 13 02 19 06
  21081041.409    -5936124.672 5  -4527438.901 1
  19840071.237   -11108999.267 6  -6791370.482 1
  18307846.675   -31633299.563 8 -24500586.556 4
  20782578.847     -503650.590 5   -358670.395 1
  18402313.464   -27501392.523 7 -21210502.588 3
 91  4  6  0 21 44.9910000  0  5 15 13 02 19 06
  21076583.901    -5959549.635 5  -4545692.071 1
  19827417.956   -11175495.377 6  -6843185.479 1
  18305639.917   -31644896.556 8 -24509623.173 4
  20787453.550     -478049.896 5   -338721.907 1
  18395377.573   -27537845.029 7 -21238907.106 3
 91  4  6  0 21 59.9910000  0  5 15 13 02 19 06
  21072151.073    -5982842.776 5  -4563842.527 1
  19814780.370   -11241902.190 6  -6894930.874 1
  18303442.081   -31656443.099 8 -24518620.466 4
  20792334.456     -452383.664 5   -318722.368 1
  18388453.151   -27574228.422 7 -21267257.768 3
 91  4  6  0 22 14.9910000  0  5 15 13 02 19 06
  21067742.175    -6006009.729 5  -4581894.642 1
  19802160.253   -11308225.270 6  -6946611.035 1
  18301253.620   -31667945.066 8 -24527583.027 4
  20797233.362     -426658.013 5   -298676.513 1
  18381541.940   -27610548.457 7 -21295559.059 3
 91  4  6  0 22 29.9910000  0  5 15 13 02 19 06
  21063360.253    -6029046.304 5  -4599845.193 1
  19789556.706   -11374460.224 6  -6998222.542 1
  18299075.230   -31679398.565 8 -24536507.824 4
  20802135.495     -400868.868 5   -278581.179 1
  18374643.276   -27646800.502 7 -21323807.380 3
 91  4  6  0 22 44.9910000  0  5 15 13 02 19 06
  21058999.042    -6051955.488 5  -4617696.443 1
  19776968.659   -11440609.675 6  -7049767.408 1
  18296903.331   -31690806.721 8 -24545397.282 4
  20807058.534     -375019.544 5   -258438.946 1
  18367756.690   -27682987.721 7 -21352005.176 3
 91  4  6  0 22 59.9910000  0  5 15 13 02 19 06
  21054663.073    -6074732.116 5  -4635444.414 1
  19764401.308   -11506668.585 6  -7101241.723 1
  18294741.815   -31702164.586 8 -24554247.559 4
  20811985.042     -349105.565 5   -238246.348 1
  18360884.214   -27719104.888 7 -21380148.393 3
 91  4  6  0 23 14.9910000  0  5 15 13 02 19 06
  21050353.511    -6097382.308 5  -4653093.873 1
  19751842.503   -11572642.838 6  -7152650.076 1
  18292589.019   -31713478.308 8 -24563063.437 4
  20816929.691     -323132.956 5   -218008.039 1
  18354023.597   -27755157.993 7 -21408241.689 3
 91  4  6  0 23 29.9910000  0  5 15 13 02 19 06
  21046069.276    -6119901.099 5  -4670640.922 1
  19739307.433   -11638527.277 6  -7203988.451 1
  18290445.198   -31724743.377 8 -24571841.398 4
  20821884.206     -297096.996 5   -197720.383 1
  18347175.550   -27791141.869 7 -21436281.042 3
 91  4  6  0 23 44.9910000  0  5 15 13 02 19 06
  21041807.230    -6142295.419 5  -4688090.986 1
  19726785.636   -11704328.691 6  -7255262.118 1
  18288309.620   -31735967.231 8 -24580587.250 4
  20826851.394     -271005.375 5   -177389.356 1
  18340339.972   -27827063.796 7 -21464272.122 3
 91  4  6  0 23 59.9910000  0  5 15 13 02 19 06
  21037567.214    -6164565.342 5  -4705444.128 1
  19714280.292   -11770047.210 6  -7306471.202 1
  18286181.323   -31747150.147 8 -24589301.199 4
  20831823.237     -244858.217 5   -157015.062 1
  18333516.440   -27862923.633 7 -21492214.818 3
 91  4  6  0 24 14.9910000  0  5 15 13 02 19 06
  21033357.081    -6186704.411 5  -4722695.310 1
  19701790.855   -11835676.046 6  -7357610.403 1
  18284062.448   -31758285.716 8 -24597978.253 4
  20836815.823     -218649.498 5   -136592.793 1
  18326705.026   -27898714.522 7 -21520103.793 3
 91  4  6  0 24 29.9910000  0  5 15 13 02 19 06
  21029170.323    -6208712.837 5  -4739844.683 1
  19689320.440   -11901214.977 6  -7408679.549 1
  18281952.378   -31769374.073 8 -24606618.523 4
  20841809.026     -192379.197 5   -116122.527 1
  18319907.190   -27934436.574 7 -21547939.125 3
 91  4  6  0 24 44.9910000  0  5 15 13 02 19 06
  21025006.347    -6230591.441 5  -4756892.899 1
  19676863.987   -11966664.853 6  -7459679.302 1
  18279850.542   -31780416.248 8 -24615222.804 4
  20846823.847     -166048.524 5    -95605.218 1
  18313123.448   -27970090.394 7 -21575721.288 3
 91  4  6  0 24 59.9910000  0  5 15 13 02 19 06
  21020866.714    -6252337.260 5  -4773837.650 1
  19664427.105   -12032022.714 6  -7510607.347 1
  18277758.065   -31791409.707 8 -24623789.126 4
  20851844.269     -139654.992 5    -75038.940 1
  18306351.659   -28005673.138 7 -21603448.070 3
 91  4  6  0 25 14.9910000  0  5 15 13 02 19 06
  21016753.628    -6273950.784 5  -4790679.305 1
  19652007.011   -12097288.854 6  -7561463.937 1
  18275675.808   -31802355.098 8 -24632317.988 4
  20856880.722     -113199.333 5    -54424.260 1
  18299594.550   -28041185.173 7 -21631119.748 3
 91  4  6  0 25 29.9910000  0  5 15 13 02 19 06
  21012665.034    -6295435.911 5  -4807420.918 1
  19639602.495   -12162467.084 6  -7612252.024 1
  18273600.972   -31813256.707 7 -24640812.741 4
  20861926.136      -86685.855 5    -33764.521 1
  18292849.011   -28076630.551 7 -21658739.486 3
 91  4  6  0 25 44.9910000  0  5 15 13 02 19 06
  21008601.058    -6316788.415 5  -4824059.184 1
  19627220.597   -12227552.827 6  -7662968.031 1
  18271535.448   -31824110.289 7 -24649270.064 4
  20866986.003      -60110.476 5    -13056.551 1
  18286118.183   -28112004.704 7 -21686303.729 3
 91  4  6  0 25 59.9910000  0  5 15 13 02 19 06
  21004561.308    -6338013.971 5  -4840598.527 1
  19614848.409   -12292551.502 6  -7713616.210 1
  18269479.753   -31834921.720 8 -24657694.548 4
  20872050.073      -33478.959 5      7695.166 1
  18279398.425   -28147313.067 7 -21713816.694 3
 91  4  6  0 26 14.9910000  0  5 15 13 02 19 06
  21000549.917    -6359106.550 5  -4857034.254 1
  19602496.855   -12357456.943 6  -7764191.724 1
  18267430.605   -31845685.200 8 -24666081.660 4
  20877130.191       -6785.729 5     28494.965 1
  18272693.808   -28182549.591 7 -21741273.687 3
 91  4  6  0 26 29.9910000  0  5 15 13 02 19 06
  20996559.198    -6380071.734 5  -4873370.712 1
  19590162.003   -12422274.134 6  -7814698.494 1
  18265390.940   -31856406.413 7 -24674435.839 4
  20882220.472       19963.524 5     49338.422 1
  18265999.370   -28217719.616 7 -21768678.861 3
 91  4  6  0 26 44.9910000  0  5 15 13 02 19 06
  20992597.542    -6400902.471 5  -4889602.410 1
  19577848.909   -12486996.581 6  -7865131.428 1
  18263359.894   -31867078.832 7 -24682751.998 4
  20887322.753       46775.374 5     70230.654 1
  18259321.261   -28252816.302 7 -21796026.893 3
 91  4  6  0 26 59.9910000  0  5 15 13 02 19 06
  20988656.495    -6421597.105 5  -4905728.048 1
  19565547.394   -12551622.335 6  -7915489.010 1
  18261337.456   -31877700.793 7 -24691028.837 4
  20892440.675       73651.326 5     91172.842 1
  18252656.597   -28287837.707 7 -21823316.262 3
 91  4  6  0 27 14.9910000  0  5 15 13 02 19 06
  20984746.065    -6442156.760 5  -4921748.491 1
  19553268.456   -12616152.195 6  -7965771.879 1
  18259326.065   -31888273.610 7 -24699267.382 4
  20897564.300      100589.853 5    112163.791 1
  18246006.581   -28322784.930 7 -21850547.825 3
 91  4  6  0 27 29.9910000  0  5 15 13 02 19 06
  20980858.066    -6462590.317 5  -4937670.703 1
  19541005.112   -12680595.012 6  -8015986.914 1
  18257322.526   -31898806.427 7 -24707474.759 4
  20902701.315      127581.869 5    133196.419 1
  18239369.222   -28357666.691 7 -21877728.380 3
 91  4  6  0 27 44.9910000  0  5 15 13 02 19 06
  20976992.558    -6482891.878 5  -4953490.046 1
  19528758.909   -12744944.394 6  -8066129.149 1
  18255325.690   -31909293.247 7 -24715646.297 4
  20907849.120      154633.152 5    154275.230 1
  18232745.667   -28392476.776 7 -21904853.081 3
 91  4  6  0 27 59.9910000  0  5 15 13 02 19 06
  20973158.011    -6503056.117 5  -4969202.393 1
  19516533.831   -12809194.714 6  -8116194.200 1
  18253340.480   -31919729.068 7 -24723778.094 4
  20913008.112      181748.816 5    175404.210 1
  18226134.636   -28427209.818 7 -21931917.747 3
 91  4  6  0 28 14.9910000  0  5 15 13 02 19 06
  20969343.042    -6523088.672 5  -4984812.122 1
  19504323.089   -12873351.723 6  -8166186.533 1
  18251362.394   -31930119.929 7 -24731874.855 4
  20918178.370      208922.580 5    196578.447 1
  18219540.425   -28461871.403 7 -21958926.735 3
 91  4  6  0 28 29.9910000  0  5 15 13 02 19 06
  20965557.026    -6542987.883 5  -5000317.950 1
  19492132.964   -12937413.637 6  -8216104.769 1
  18249394.683   -31940464.125 7 -24739935.256 4
  20923364.222      236156.049 5    217799.214 1
  18212957.026   -28496459.843 7 -21985878.728 3
 91  4  6  0 28 44.9910000  0  5 15 13 02 19 06
  20961796.362    -6562755.725 5  -5015721.398 1
  19479961.620   -13001382.252 6  -8265950.309 1
  18247434.245   -31950763.827 7 -24747960.980 4
  20928554.940      263446.989 5    239064.747 1
  18206389.761   -28530976.923 7 -22012775.112 3
 91  4  6  0 28 59.9910000  0  5 15 13 02 19 06
  20958060.245    -6582392.098 5  -5031022.401 1
  19467805.753   -13065257.050 6  -8315722.731 1
  18245482.847   -31961018.883 7 -24755951.924 4
  20933761.183      290795.491 4    260375.153 1
  18199835.026   -28565422.129 7 -22039615.492 3
 91  4  6  0 29 14.9910000  0  5 15 13 02 19 06
  20954348.347    -6601895.828 5  -5046220.056 1
  19455668.839   -13129036.822 6  -8365421.118 1
  18243540.097   -31971228.555 7 -24763907.498 4
  20938975.886      318202.361 4    281731.051 1
  18193292.792   -28599794.349 7 -22066398.996 3
 91  4  6  0 29 29.9910000  0  5 15 13 02 19 06
  20950662.815    -6621263.679 5  -5061311.835 1
  19443550.964   -13192718.281 6  -8415042.893 1
  18241605.933   -31981390.060 7 -24771825.533 4
  20944201.128      345670.387 4    303134.579 1
  18186766.581   -28634090.295 7 -22093123.070 3
 91  4  6  0 29 44.9910000  0  5 15 13 02 19 06
  20947003.058    -6640499.183 5  -5076300.474 1
  19431452.308   -13256304.862 6  -8464590.730 1
  18239681.417   -31991506.934 7 -24779708.801 4
  20949440.480      373195.652 4    324582.732 1
  18180254.355   -28668313.486 7 -22119790.449 3
 91  4  6  0 29 59.9910000  0  5 15 13 02 19 06
  20943367.386    -6659601.606 5  -5091185.413 1
  19419368.183   -13319795.223 6  -8514063.603 1
  18237764.776   -32001578.149 7 -24787556.489 4
  20954690.909      400779.115 4    346076.220 1
  18173755.191   -28702462.659 7 -22146400.156 3
 91  4  6  0 30 14.9910000  0  5 15 13 02 19 06
  20939755.605    -6678565.723 5  -5105962.574 1
  19407307.628   -13383184.277 6  -8563457.530 1
  18235858.253   -32011599.078 7 -24795365.000 4
  20959948.487      428425.331 4    367618.603 1
  18167273.081   -28736532.861 7 -22172948.328 3
 91  4  6  0 30 29.9910000  0  5 15 13 02 19 06
  20936173.323    -6697395.966 5  -5120635.442 1
  19395262.206   -13446475.991 6  -8612775.612 1
  18233959.284   -32021574.132 7 -24803137.755 4
  20965219.831      456129.893 5    389206.466 1
  18160802.730   -28770528.095 7 -22199438.082 3
 91  4  6  0 30 44.9910000  0  5 15 13 02 19 06
  20932618.081    -6716085.097 5  -5135198.335 1
  19383237.003   -13509663.082 6  -8662012.170 1
  18232070.722   -32031496.356 7 -24810869.346 4
  20970509.495      483899.825 5    410845.252 1
  18154349.862   -28804441.055 7 -22225863.726 3
 91  4  6  0 30 59.9910000  0  5 15 13 02 19 06
  20929086.159    -6734642.287 5  -5149658.422 1
  19371234.144   -13572754.729 6  -8711174.342 1
  18230192.089   -32041375.328 7 -24818567.234 4
  20975799.237      511725.496 5    432527.477 1
  18147910.269   -28838280.897 7 -22252232.403 3
 91  4  6  0 31 14.9910000  0  5 15 13 02 19 06
  20925580.417    -6753065.011 5  -5164013.725 1
  19359246.901   -13635748.269 6  -8760260.084 1
  18228320.425   -32051208.634 7 -24826229.543 4
  20981109.175      539609.106 5    454254.841 1
  18141486.011   -28872045.066 7 -22278542.112 3
 91  4  6  0 31 29.9910000  0  5 15 13 02 19 06
  20922101.136    -6771354.833 6  -5178265.471 1
  19347276.128   -13698644.902 6  -8809270.306 1
  18226456.550   -32060997.864 7 -24833857.505 4
  20986427.675      567548.865 5    476025.981 1
  18135074.644   -28905734.856 7 -22304793.862 3
 91  4  6  0 31 44.9910000  0  5 15 13 02 19 06
  20918643.784    -6789513.488 5  -5192415.017 1
  19335325.503   -13761446.271 6  -8858206.294 1
  18224602.206   -32070744.818 7 -24841452.525 4
  20991750.370      595542.634 4    497839.168 1
  18128676.847   -28939351.808 7 -22330988.861 3
 91  4  6  0 31 59.9910000  0  5 15 13 02 19 06
  20915216.097    -6807533.952 5  -5206456.870 1
  19323392.909   -13824145.189 6  -8907062.459 1
  18222758.526   -32080442.554 7 -24849009.189 4
  20997088.816      623597.523 5    519700.029 1
  18122295.651   -28972888.733 7 -22357121.496 3
 91  4  6  0 32 14.9910000  0  5 15 13 02 19 06
  20911814.441    -6825417.070 5  -5220391.707 1
  19311479.956   -13886741.988 6  -8955839.050 1
  18220920.378   -32090092.151 7 -24856528.345 4
  21002444.011      651712.518 5    541607.693 1
  18115929.206   -29006346.159 7 -22383192.184 3
 91  4  6  0 32 29.9910000  0  5 15 13 02 19 06
  20908434.550    -6843167.101 5  -5234222.837 1
  19299588.776   -13949240.674 6  -9004539.189 1
  18219093.636   -32099697.991 7 -24864013.404 4
  21007800.034      679882.883 5    563558.482 1
  18109575.722   -29039728.102 7 -22409204.056 3
 91  4  6  0 32 44.9910000  0  5 15 13 02 19 06
  20905082.628    -6860780.248 5  -5247947.309 1
  19287712.753   -14011637.214 6  -9053159.738 1
  18217274.292   -32109256.252 7 -24871461.391 4
  21013172.409      708112.564 5    585555.517 1
  18103239.847   -29073030.831 7 -22435154.197 3
 91  4  6  0 32 59.9910000  0  5 15 13 02 19 06
  20901755.355    -6878261.113 6  -5261568.713 1
  19275860.519   -14073936.311 6  -9101704.347 1
  18215464.058   -32118771.907 7 -24878876.178 4
  21018554.964      736396.405 5    607594.747 1
  18096916.308   -29106258.750 7 -22461046.047 3
 91  4  6  0 33 14.9910000  0  5 15 13 02 19 06
  20898456.003    -6895597.140 5  -5275077.245 1
  19264024.831   -14136125.437 6  -9150163.286 1
  18213663.644   -32128232.625 7 -24886248.156 4
  21023953.433      764746.551 5    629685.654 1
  18090609.815   -29139399.359 7 -22486869.864 3
 91  4  6  0 33 29.9910000  0  5 15 13 02 19 06
  20895187.214    -6912795.926 5  -5288478.839 1
  19252210.816   -14198211.560 6  -9198541.951 1
  18211871.745   -32137646.128 7 -24893583.342 4
  21029356.073      793155.384 5    651822.276 1
  18084318.378   -29172459.891 7 -22512631.279 3
 91  4  6  0 33 44.9910000  0  5 15 13 02 19 06
  20891939.659    -6929859.315 5  -5301774.943 1
  19240412.417   -14260196.704 6  -9246841.927 1
  18210089.472   -32147014.521 7 -24900883.380 4
  21034774.815      821620.672 5    674002.886 1
  18078042.347   -29205442.279 7 -22538331.810 3
 91  4  6  0 33 59.9910000  0  5 15 13 02 19 06
  20888713.925    -6946791.265 5  -5314968.615 1
  19228637.612   -14322084.562 6  -9295066.110 1
  18208314.370   -32156341.914 7 -24908151.461 4
  21040199.448      850138.300 5    696224.286 1
  18071780.183   -29238350.255 7 -22563974.359 3
 91  4  6  0 34 14.9910000  0  5 15 13 02 19 06
  20885520.003    -6963578.806 5  -5328049.755 1
  19216880.355   -14383862.014 6  -9343204.252 1
  18206549.628   -32165615.402 7 -24915377.552 4
  21045639.550      878720.826 4    718496.266 1
  18065533.776   -29271170.650 7 -22589548.659 3
 91  4  6  0 34 29.9910000  0  5 15 13 02 19 06
  20882350.073    -6980232.344 6  -5341026.495 1
  19205144.948   -14445538.860 6  -9391264.010 1
  18204792.995   -32174845.242 7 -24922569.621 4
  21051087.675      907357.977 4    740810.798 1
  18059303.237   -29303913.496 7 -22615062.530 3
 91  4  6  0 34 44.9910000  0  5 15 13 02 19 06
  20879209.433    -6996748.754 5  -5353896.371 1
  19193428.948   -14507112.307 6  -9439243.192 1
  18203045.823   -32184028.854 7 -24929725.674 4
  21056549.714      936052.163 4    763169.768 1
  18053087.878   -29336575.859 7 -22640513.688 3
 91  4  6  0 34 59.9910000  0  5 15 13 02 19 06
  20876091.151    -7013123.701 5  -5366656.024 1
  19181731.284   -14568577.348 6  -9487137.901 1
  18201307.159   -32193161.333 7 -24936841.882 4
  21062023.339      964808.067 4    785576.853 1
  18046888.480   -29369152.642 7 -22665898.165 3
 91  4  6  0 35 14.9910000  0  5 15 13 02 19 06
  20873002.745    -7029359.096 5  -5379306.943 1
  19170055.737   -14629936.112 6  -9534949.798 1
  18199579.019   -32202245.366 7 -24943920.338 4
  21067506.808      993623.117 4    808029.986 1
  18040705.519   -29401646.038 7 -22691217.660 3
 91  4  6  0 35 29.9910000  0  5 15 13 02 19 06
  20869940.831    -7045456.417 6  -5391850.257 1
  19158398.722   -14691189.760 6  -9582679.794 1
  18197858.659   -32211282.590 7 -24950962.324 4
  21072996.605     1022495.668 4    830527.950 1
  18034537.722   -29434057.380 7 -22716473.211 3
 91  4  6  0 35 44.9910000  0  5 15 13 02 19 06
  20866902.073    -7061417.715 6  -5404287.593 1
  19146763.847   -14752340.193 6  -9630329.352 1
  18196147.730   -32220275.247 7 -24957969.583 4
  21078506.026     1051423.298 4    853068.807 1
  18028384.644   -29466388.661 7 -22741666.380 3
 91  4  6  0 35 59.9910000  0  5 15 13 02 19 06
  20863891.003    -7077243.619 5  -5416619.431 1
  19135145.542   -14813387.719 6  -9677898.726 1
  18194444.831   -32229223.754 7 -24964942.433 4
  21084017.089     1080405.334 4    875652.093 1
  18022248.370   -29498640.067 7 -22766797.313 3
 91  4  6  0 36 14.9910000  0  5 15 13 02 19 06
  20860902.190    -7092936.102 6  -5428847.278 1
  19123547.784   -14874334.156 6  -9725389.346 1
  18192749.925   -32238130.370 7 -24971882.641 4
  21089544.511     1109439.610 4    898276.060 1
  18016125.659   -29530813.526 7 -22791867.500 3
 91  4  6  0 36 29.9910000  0  5 15 13 02 19 06
  20857943.433    -7108497.310 5  -5440972.854 1
  19111968.355   -14935181.412 6  -9772802.659 1
  18191062.589   -32246997.399 7 -24978792.005 4
  21095079.183     1138523.654 3    920938.812 1
  18010017.433   -29562910.977 7 -22816878.473 3
 91  4  6  0 36 44.9910000  0  5 15 13 02 19 06
  20855007.605    -7123918.420 6  -5452989.255 1
  19100410.542   -14995920.232 6  -9820131.490 1
  18189384.042   -32255815.817 7 -24985663.487 4
  21100623.925     1167666.260 3    943647.199 1
  18003925.542   -29594923.231 7 -22841823.048 3
 91  4  6  0 36 59.9910000  0  5 15 13 02 19 06
  20852100.737    -7139197.158 6  -5464894.734 1
  19088872.503   -15056548.269 6  -9867373.996 1
  18187716.003   -32264583.659 7 -24992495.566 4
  21106179.972     1196869.384 3    966402.745 1
  17997850.089   -29626847.961 7 -22866699.422 3
 91  4  6  0 37 14.9910000  0  5 15 13 02 19 06
  20849216.339    -7154349.882 5  -5476701.999 1
  19077355.894   -15117081.722 6  -9914542.796 1
  18186053.667   -32273317.344 7 -24999301.021 4
  21111748.597     1226116.615 3    989192.641 1
  17991789.355   -29658701.258 7 -22891520.141 3
 91  4  6  0 37 29.9910000  0  5 15 13 02 19 06
  20846358.964    -7169366.835 6  -5488403.478 1
  19065854.253   -15177510.678 6  -9961630.170 1
  18184400.378   -32282007.493 7 -25006072.551 4
  21117323.026     1255417.230 3   1012024.138 1
  17985743.651   -29690473.386 7 -22916277.604 3
 91  4  6  0 37 44.9910000  0  5 15 13 02 19 06
  20843529.386    -7184241.767 6  -5499994.295 1
  19054376.315   -15237828.486 6 -10008630.943 1
  18182756.495   -32290647.638 7 -25012805.127 4
  21122911.651     1284777.330 3   1034901.983 1
  17979714.370   -29722157.682 7 -22940966.630 3
 91  4  6  0 37 59.9910000  0  5 15 13 02 19 06
  20840723.011    -7198974.854 5  -5511474.589 1
  19042919.245   -15298035.138 6 -10055545.092 1
  18181122.339   -32299238.251 7 -25019499.101 4
  21128509.862     1314196.540 3   1057825.899 1
  17973701.534   -29753754.290 7 -22965587.329 3
 91  4  6  0 38 14.9910000  0  5 15 13 02 19 06
  20837947.487    -7213571.467 6  -5522848.539 1
  19031483.003   -15358136.440 6 -10102377.158 1
  18179495.378   -32307785.239 7 -25026159.081 4
  21134115.464     1343668.871 3   1080791.214 1
  17967703.565   -29785268.696 7 -22990143.973 3
 91  4  6  0 38 29.9910000  0  5 15 13 02 19 06
  20835193.784    -7228035.035 5  -5534118.821 1
  19020066.058   -15418135.318 6 -10149129.400 1
  18177876.675   -32316291.748 7 -25032787.518 4
  21139737.441     1373191.015 4   1103795.358 1
  17961722.355   -29816703.949 7 -23014638.942 3
 91  4  6  0 38 44.9910000  0  5 15 13 02 19 06
  20832466.839    -7242359.378 5  -5545280.618 1
  19008667.198   -15478025.192 6 -10195796.711 1
  18176265.964   -32324751.481 7 -25039379.504 4
  21145364.550     1402768.872 4   1126842.894 1
  17955757.558   -29848053.592 7 -23039067.203 3
 91  4  6  0 38 59.9900000  0  5 15 13 02 19 06
  20829771.904    -7256549.216 5  -5556337.608 1
  18997290.748   -15537807.546 6 -10242380.249 1
  18174664.358   -32333169.885 7 -25045939.293 4
  21150997.279     1432394.524 4   1149927.698 1
  17949807.357   -29879320.986 7 -23063431.373 3
 91  4  6  0 39 14.9900000  0  5 15 13 02 19 06
  20827094.498    -7270604.513 5  -5567289.755 1
  18985936.209   -15597488.254 6 -10288884.571 1
  18173070.740   -32341546.416 7 -25052466.450 4
  21156649.615     1462073.695 4   1173054.185 1
  17943872.178   -29910508.223 7 -23087733.083 3
 91  4  6  0 39 29.9900000  0  5 15 13 02 19 06
  20824441.920    -7284527.658 5  -5578138.934 1
  18974596.459   -15657066.144 6 -10335308.781 1
  18171485.170   -32349883.603 7 -25058962.950 4
  21162307.818     1491801.181 4   1196218.341 1
  17937952.014   -29941616.148 7 -23111972.994 3
 91  4  6  0 39 44.9900000  0  5 15 13 02 19 06
  20821823.029    -7298309.416 5  -5588877.939 1
  18963281.068   -15716531.892 6 -10381645.601 1
  18169906.670   -32358172.354 7 -25065421.714 4
  21167977.514     1521585.918 4   1219427.098 1
  17932049.693   -29972635.381 7 -23136143.796 3
 91  4  6  0 39 59.9900000  0  5 15 13 02 19 06
  20819225.725    -7311950.994 5  -5599507.691 1
  18951986.568   -15775886.812 6 -10427896.062 1
  18168339.022   -32366414.177 7 -25071843.902 4
  21173648.459     1551426.090 4   1242679.051 1
  17926164.498   -30003567.180 7 -23160246.468 3
 91  4  6  0 40 14.9900000  0  5 15 13 02 19 06
  20816659.209    -7325452.395 5  -5610028.227 1
  18940713.326   -15835130.449 6 -10474059.812 1
  18166778.545   -32374608.660 7 -25078229.206 4
  21179344.522     1581321.732 4   1265974.215 1
  17920293.686   -30034411.039 7 -23184280.612 3
 91  4  6  0 40 29.9900000  0  5 15 13 02 19 06
  20814115.795    -7338816.358 5  -5620441.675 1
  18929460.014   -15894265.358 6 -10520138.841 1
  18165228.178   -32382758.974 7 -25084580.090 4
  21185040.850     1611269.873 4   1289310.318 1
  17914440.514   -30065169.741 7 -23208248.404 3
 91  4  6  0 40 44.9900000  0  5 15 13 02 19 06
  20811598.162    -7352040.908 5  -5630746.478 1
  18918226.725   -15953289.498 6 -10566131.553 1
  18163685.686   -32390863.268 7 -25090895.119 4
  21190752.740     1641272.305 4   1312688.704 1
  17908604.498   -30095840.932 7 -23232148.002 3
 91  4  6  0 40 59.9900000  0  5 15 13 02 19 06
  20809109.006    -7365129.554 5  -5640945.389 1
  18907016.482   -16012206.058 6 -10612040.442 1
  18162151.818   -32398925.194 7 -25097177.130 4
  21196471.701     1671325.173 4   1336106.403 1
  17902784.107   -30126428.094 7 -23255982.129 3
 91  4  6  0 41 14.9900000  0  5 15 13 02 19 06
  20806646.537    -7378073.342 5  -5651031.419 1
  18895826.904   -16071006.029 6 -10657858.474 1
  18160627.272   -32406935.940 7 -25103419.263 4
  21202198.311     1701437.038 4   1359570.057 1
  17896980.990   -30156922.100 7 -23279743.664 3
 91  4  6  0 41 29.9900000  0  5 15 13 02 19 06
  20804208.115    -7390876.889 5  -5661008.181 1
  18884659.170   -16129693.519 6 -10703588.863 1
  18159111.264   -32414900.116 7 -25109625.111 4
  21207940.951     1731603.278 4   1383076.096 1
  17891195.068   -30187327.257 7 -23303435.969 3
 91  4  6  0 41 44.9900000  0  5 15 13 02 19 06
  20801799.092    -7403536.837 5  -5670873.032 1
  18873512.537   -16188265.277 6 -10749229.067 1
  18157606.154   -32422814.684 7 -25115792.297 4
  21213694.475     1761826.967 4   1406626.889 1
  17885426.287   -30217640.169 7 -23327056.395 3
 91  4  6  0 41 59.9900000  0  5 15 13 02 19 06
  20799414.865    -7416057.685 5  -5680629.500 1
  18862388.639   -16246725.363 6 -10794782.260 1
  18156108.076   -32430683.897 7 -25121924.150 4
  21219451.873     1792103.420 3   1430218.808 1
  17879675.178   -30247865.039 7 -23350608.212 3
 91  4  6  0 42 14.9900000  0  5 15 13 02 19 06
  20797061.943    -7428443.531 5  -5690280.781 1
  18851284.990   -16305077.484 6 -10840251.322 1
  18154618.865   -32438511.907 7 -25128023.892 4
  21225224.568     1822428.452 3   1453848.597 1
  17873938.897   -30278005.631 7 -23374094.362 3
 91  4  6  0 42 29.9900000  0  5 15 13 02 19 06
  20794727.928    -7440689.473 5  -5699823.037 1
  18840202.381   -16363316.900 6 -10885632.560 1
  18153136.420   -32446293.876 7 -25134087.760 4
  21231007.022     1852806.870 3   1477519.950 1
  17868220.811   -30308056.897 7 -23397510.902 3
 91  4  6  0 42 44.9900000  0  5 15 13 02 19 06
  20792427.326    -7452795.079 5  -5709255.947 1
  18829140.537   -16421442.908 6 -10930925.441 1
  18151665.615   -32454029.674 7 -25140115.654 4
  21236797.186     1883238.875 3   1501233.082 1
  17862519.639   -30338018.096 7 -23420857.262 3
 91  4  6  0 42 59.9900000  0  5 15 13 02 19 06
  20790150.139    -7464762.770 5  -5718581.381 1
  18818099.779   -16479457.796 6 -10976131.729 1
  18150201.568   -32461721.731 7 -25146109.458 4
  21242594.131     1913721.634 3   1524985.738 1
  17856834.420   -30367891.674 7 -23444135.344 3
 91  4  6  0 43 14.9900000  0  5 15 13 02 19 06
  20787895.428    -7476589.265 5  -5727796.788 1
  18807083.592   -16537357.755 6 -11021248.456 1
  18148747.131   -32469367.017 7 -25152066.821 4
  21248408.639     1944258.130 3   1548780.273 1
  17851168.100   -30397674.062 7 -23467342.371 3
 91  4  6  0 43 29.9900000  0  5 15 13 02 19 06
  20785674.631    -7488279.568 5  -5736906.067 1
  18796086.147   -16595147.800 6 -11066279.556 1
  18147299.623   -32476970.516 7 -25157991.625 4
  21254223.498     1974843.244 3   1572612.694 1
  17845515.545   -30427370.112 7 -23490482.119 3
 91  4  6  0 43 44.9900000  0  5 15 13 02 19 06
  20783473.287    -7499831.942 5  -5745907.874 1
  18785109.678   -16652825.781 6 -11111223.319 1
  18145861.154   -32484530.364 7 -25163882.406 4
  21260057.928     2005478.746 2   1596484.353 1
  17839882.389   -30456977.686 7 -23513552.925 3
 91  4  6  0 43 59.9900000  0  5 15 13 02 19 06
  20781302.154    -7511247.095 5  -5754802.759 1
  18774155.834   -16710392.472 6 -11156080.368 1
  18144431.131   -32492047.468 7 -25169739.886 4
  21265901.068     2036163.298 2   1620394.257 1
  17834264.834   -30486497.521 7 -23536555.367 3
 91  4  6  0 44 14.9900000  0  5 15 13 02 19 06
  20779154.365    -7522523.913 5  -5763589.843 1
  18763221.623   -16767846.453 6 -11200849.590 1
  18143009.803   -32499520.787 7 -25175563.244 4
  21271746.990     2066898.126 3   1644343.313 1
  17828663.811   -30515927.996 7 -23559488.170 3
 91  4  6  0 44 29.9900000  0  5 15 13 02 19 06
  20777039.162    -7533657.836 5  -5772265.587 1
  18752310.686   -16825182.834 6 -11245527.181 1
  18141595.904   -32506945.814 7 -25181348.968 4
  21277604.123     2097687.516 3   1668334.904 1
  17823081.139   -30545264.590 7 -23582347.819 3
 91  4  6  0 44 44.9900000  0  5 15 13 02 19 06
  20774941.068    -7544652.633 5  -5780832.928 1
  18741422.162   -16882405.053 6 -11290115.804 1
  18140191.131   -32514326.286 7 -25187099.972 4
  21283476.654     2128527.599 3   1692365.986 1
  17817516.014   -30574510.646 7 -23605136.924 3
 91  4  6  0 44 59.9900000  0  5 15 13 02 19 06
  20772879.725    -7555512.339 5  -5789295.014 1
  18730553.576   -16939517.043 6 -11334618.555 1
  18138794.170   -32521666.480 7 -25192819.596 4
  21289350.084     2159414.055 3   1716433.211 1
  17811967.608   -30603670.091 7 -23627858.531 3
 91  4  6  0 45 14.9900000  0  5 15 13 02 19 06
  20770838.568    -7566238.238 5  -5797652.794 1
  18719706.428   -16996519.828 6 -11379036.192 1
  18137405.342   -32528967.471 7 -25198508.674 4
  21295237.397     2190345.544 3   1740535.541 1
  17806435.022   -30632743.852 7 -23650513.374 3
 91  4  6  0 45 29.9900000  0  5 15 13 02 19 06
  20768824.545    -7576819.269 5  -5805897.710 1
  18708881.303   -17053402.289 6 -11423360.083 1
  18136026.225   -32536218.483 7 -25204158.800 4
  21301134.428     2221332.670 3   1764681.204 1
  17800920.412   -30661720.805 7 -23673092.788 3
 91  4  6  0 45 44.9900000  0  5 15 13 02 19 06
  20766834.873    -7587262.763 5  -5814035.463 1
  18698080.975   -17110171.324 6 -11467595.582 1
  18134653.787   -32543426.757 7 -25209775.627 4
  21307040.529     2252368.107 3   1788864.500 1
  17795422.943   -30690607.920 7 -23695602.195 3
 91  4  6  0 45 59.9900000  0  5 15 13 02 19 06
  20764872.772    -7597568.785 5  -5822066.098 1
  18687296.529   -17166826.650 6 -11511742.483 1
  18133291.295   -32550592.306 7 -25215359.162 4
  21312956.287     2283451.683 4   1813085.328 1
  17789943.553   -30719404.866 7 -23718041.342 3
 91  4  6  0 46 14.9900000  0  5 15 13 02 19 06
  20762940.147    -7607728.223 5  -5829982.503 1
  18676540.904   -17223358.882 6 -11555793.464 1
  18131937.693   -32557706.112 7 -25220902.375 4
  21318879.561     2314592.350 3   1837350.631 1
  17784482.264   -30748102.456 7 -23740403.069 3
 91  4  6  0 46 29.9900000  0  5 15 13 02 19 06
  20761036.107    -7617747.432 5  -5837789.641 1
  18665804.217   -17279774.366 6 -11599753.479 1
  18130592.115   -32564774.618 7 -25226410.286 4
  21324816.553     2345783.493 4   1861655.293 1
  17779038.514   -30776706.758 7 -23762692.106 3
 91  4  6  0 46 44.9900000  0  5 15 13 02 19 06
  20759157.818    -7627626.663 5  -5845487.712 1
  18655089.428   -17336073.328 6 -11643622.698 1
  18129255.139   -32571798.189 7 -25231883.186 4
  21330760.029     2377024.458 4   1885998.747 1
  17773613.287   -30805217.954 7 -23784908.591 3
 91  4  6  0 46 59.9900000  0  5 15 13 02 19 06
  20757303.803    -7637365.454 5  -5853076.351 1
  18644398.920   -17392254.959 6 -11687400.483 1
  18127926.732   -32578776.527 7 -25237320.841 4
  21336715.615     2408315.523 4   1910381.228 1
  17768205.545   -30833635.555 7 -23807052.144 3
 91  4  6  0 47 14.9900000  0  5 15 13 02 19 06
  20755474.639    -7646959.826 5  -5860552.454 1
  18633732.975   -17448315.075 6 -11731083.585 1
  18126608.725   -32585705.539 7 -25242720.058 4
  21342682.787     2439660.760 4   1934805.996 1
  17762817.709   -30861954.912 7 -23829119.147 3
 91  4  6  0 47 29.9900000  0  5 15 13 02 19 06
  20753672.240    -7656423.502 5  -5867926.721 1
  18623084.701   -17504267.248 6 -11774682.577 1
  18125296.873   -32592599.034 7 -25248091.598 4
  21348653.178     2471046.111 4   1959261.955 1
  17757444.772   -30890189.770 7 -23851120.304 3
 91  4  6  0 47 44.9900000  0  5 15 13 02 19 06
  20751903.764    -7665745.195 5  -5875190.353 1
  18612460.193   -17560100.011 6 -11818188.529 1
  18123993.732   -32599446.029 7 -25253426.903 4
  21354639.029     2502482.614 3   1983757.817 1
  17752089.936   -30918328.547 7 -23873046.594 3
 91  4  6  0 47 59.9900000  0  5 15 13 02 19 06
  20750151.193    -7674934.345 5  -5882350.697 1
  18601855.732   -17615822.259 7 -11861608.356 1
  18122698.975   -32606255.704 7 -25258733.131 4
  21360624.232     2533960.786 3   2008286.118 1
  17746750.881   -30946380.407 7 -23894905.155 3
 91  4  6  0 48 14.9900000  0  5 15 13 02 19 06
  20748432.779    -7683991.499 5  -5889408.203 1
  18591272.865   -17671434.302 7 -11904942.322 1
  18121408.873   -32613028.601 7 -25264010.701 4
  21366627.295     2565479.869 3   2032846.295 1
  17741428.936   -30974345.663 7 -23916696.232 3
 91  4  6  0 48 29.9900000  0  5 15 13 02 19 06
  20746728.615    -7692910.241 5  -5896357.843 1
  18580712.170   -17726929.930 6 -11948185.559 1
  18120129.576   -32619758.494 7 -25269254.760 4
  21372631.834     2597046.056 3   2057443.201 1
  17736124.897   -31002217.781 7 -23938414.733 3
 91  4  6  0 48 44.9900000  0  5 15 13 02 19 06
  20745061.514    -7701691.763 5  -5903200.553 1
  18570174.873   -17782309.609 7 -11991338.459 1
  18118856.686   -32626446.328 7 -25274466.044 4
  21378648.686     2628658.305 3
  17730839.803   -31029997.427 7 -23960061.181 3
 91  4  6  0 48 59.9900000  0  5 15 13 02 19 06
  20743420.795    -7710322.323 5  -5909925.634 1
  18559661.600   -17837559.746 7 -12034390.415 1
  18117594.225   -32633078.666 7 -25279634.087 4
  21384674.459     2660329.804 3
  17725573.061   -31057670.807 7 -23981624.819 3
 91  4  6  0 49 14.9900000  0  5 15 13 02 19 06
  20741801.959    -7718817.647 5  -5916545.338 1
  18549168.420   -17892695.738 7 -12077353.430 1
  18116338.397   -32639671.404 7 -25284771.276 4
  21390708.850     2692044.536 2
  17720325.178   -31085253.473 7 -24003117.776 3
 91  4  6  0 49 29.9900000  0  5 15 13 02 19 06
  20740210.936    -7727178.905 5  -5923060.599 1
  18538697.115   -17947718.676 7 -12120228.351 1
  18115092.295   -32646225.555 7 -25289878.395 4
  21396750.904     2723801.223 2        -0.14211
  17715091.865   -31112746.268 7 -24024540.701 3
 91  4  6  0 49 44.9900000  0  5 15 13 02 19 06
  20738642.186    -7735409.512 5  -5929474.017 1
  18528249.170   -18002631.403 7 -12163017.390 1
  18113852.123   -32652744.339 7 -25294957.955 4
  21402800.061     2755596.471 2     24775.245 1
  17709876.490   -31140152.343 7 -24045896.057 3
 91  4  6  0 49 59.9900000  0  5 15 13 02 19 06
  20737103.092    -7743500.566 5  -5935778.712 1
  18517821.186   -18057424.921 7 -12205713.543 1
  18112620.232   -32659219.088 7 -25300003.206 4
  21408866.467     2787438.951 2     49587.409 1
  17704679.850   -31167462.530 7 -24067176.690 3
 91  4  6  0 50 14.9900000  0  5 15 13 02 19 06
  20735588.850    -7751451.610 5  -5941974.314 1
  18507416.592   -18112098.486 7 -12248316.225 1
  18111396.209   -32665649.473 7 -25305013.883 4
  21414934.108     2819328.967 2     74436.601 1
  17699501.662   -31194676.207 7 -24088382.127 3
 91  4  6  0 50 29.9900000  0  4 15 13 02 06
  20734103.709    -7759264.430 5  -5948062.192 1
  18497036.522   -18166653.611 7 -12290826.611 1
  18110180.811   -32672037.150 7 -25309991.283 4
  17694341.193   -31221794.861 7 -24109513.517 3
 91  4  6  0 50 44.9900000  0  4 15 13 02 06
  20732641.412    -7766941.053 5  -5954043.953 1
  18486676.475   -18221092.259 7 -12333246.241 1
  18108971.826   -32678384.240 7 -25314937.059 4
  17689197.959   -31248820.168 7 -24130572.171 3
 91  4  6  0 50 59.9900000  0  4 15 13 02 06
  20731210.498    -7774478.708 5  -5959917.424 1
  18476339.740   -18275411.287 7 -12375572.663 1
  18107772.787   -32684687.956 7 -25319849.030 4
  17684073.998   -31275749.174 7 -24151555.779 3
 91  4  6  0 51 14.9900000  0  4 15 13 02 06
  20729804.139    -7781869.539 5  -5965676.496 1
  18466026.529   -18329602.793 7 -12417799.714 1
  18106581.943   -32690940.519 7 -25324721.144 4
  17678969.787   -31302573.801 7 -24172458.061 3
 91  4  6  0 51 29.9900000  0  4 15 13 02 06
  20728420.537    -7789114.908 5  -5971322.219 1
  18455738.147   -18383667.959 7 -12459928.310 1
  18105403.147   -32697143.448 7 -25329554.578 4
  17673884.373   -31329295.331 7 -24193280.003 3
 91  4  6  0 51 44.9900000  0  4 15 13 02 06
  20727072.889    -7796227.658 5  -5976864.605 1
  18445473.326   -18437619.196 7 -12501968.148 1
  18104229.381   -32703309.255 7 -25334359.091 4
  17668815.670   -31355926.117 7 -24214031.232 3
 91  4  6  0 51 59.9900000  0  4 15 13 02 06
  20725743.459    -7803195.413 5  -5982294.001 1
  18435229.514   -18491443.863 7 -12543909.352 1
  18103065.326   -32709425.371 7 -25339124.884 4
  17663769.037   -31382453.431 7 -24234701.833 3
 91  4  6  0 52 14.9900000  0  4 15 13 02 06
  20724444.920    -7810027.806 5  -5987617.913 1
  18425009.717   -18545151.250 7 -12585759.164 1
  18101908.412   -32715501.564 7 -25343859.570 4
  17658738.795   -31408886.752 7 -24255299.200 3
 91  4  6  0 52 29.9900000  0  4 15 13 02 06
  20723168.514    -7816730.004 5  -5992840.379 1
  18414810.553   -18598746.520 7 -12627521.622 1
  18100759.076   -32721543.388 7 -25348567.471 4
  17653726.326   -31435231.100 7 -24275827.233 3
 91  4  6  0 52 44.9900000  0  4 15 13 02 06
  20721922.193    -7823294.115 5  -5997955.257 1
  18404633.482   -18652221.485 7 -12669190.332 1
  18099618.475   -32727542.729 7 -25353242.269 4
  17648730.561   -31461478.234 7 -24296279.517 3
 91  4  6  0 52 59.9900000  0  4 15 13 02 06
  20720700.295    -7829709.305 5  -6002954.077 1
  18394483.412   -18705565.021 7 -12710756.625 1
  18098487.178   -32733488.616 7 -25357875.415 4
  17643757.045   -31487616.957 7 -24316647.327 3
 91  4  6  0 53 14.9900000  0  4 15 13 02 06
  20719502.639    -7835986.993 5  -6007845.770 1
  18384354.717   -18758788.330 7 -12752229.240 1
  18097363.733   -32739392.602 7 -25362475.916 4
  17638799.904   -31513658.437 7 -24336939.357 3
 91  4  6  0 53 29.9900000  0  4 15 13 02 06
  20718337.139    -7842120.796 5  -6012625.342 1
  18374252.514   -18811884.815 7 -12793603.026 1
  18096248.240   -32745248.026 7 -25367038.572 4
  17633865.045   -31539595.997 7 -24357150.418 3
 91  4  6  0 53 44.9900000  0  4 15 13 02 06
  20717198.686    -7848112.820 5  -6017294.432 1
  18364169.936   -18864856.250 7 -12834879.377 1
  18095142.756   -32751057.221 7 -25371565.208 4
  17628949.342   -31565431.589 7 -24377282.022 3
 91  4  6  0 53 59.9900000  0  4 15 13 02 06
  20716086.022    -7853965.037 5
  18354114.295   -18917704.489 7 -12876059.734 1
  18094045.764   -32756822.360 7
  17624050.037   -31591166.992 7 -24397335.556 3
 91  4  6  0 54 14.9900000  0  4 15 13 02 06
  20714997.397    -7859674.501 5
  18344080.436   -18970426.290 7 -12917141.564 1
  18092957.576   -32762540.215 7
  17619173.240   -31616798.768 7 -24417308.345 3
 91  4  6  0 54 29.9900000  0  4 15 13 02 06
  20713939.772    -7865245.563 5  -6030645.075 1
  18334071.592   -19023025.750 7 -12958128.060 1
  18091878.787   -32768215.188 7 -25384935.025 4
  17614314.568   -31642331.003 7 -24437203.565 3
 91  4  6  0 54 44.9900000  0  4 15 13 02 06
  20712903.131    -7870676.704 5  -6034877.111 1
  18324086.873   -19075501.318 7 -12999018.018 1
  18090807.670   -32773845.889 7 -25389322.579 4
  17609476.373   -31667762.007 7 -24457019.902 3
 91  4  6  0 54 59.9900000  0  4 15 13 02 06
  20711891.147    -7875967.137 5  -6038999.505 1
  18314122.756   -19127851.808 6 -13039810.518 1
  18089743.107   -32779431.362 7 -25393674.888 4
  17604656.240   -31693090.605 7 -24476756.446 3
